<?xml version='1.0' encoding='UTF-8'?><gpx version="1.1" creator="JPX - https://github.com/jenetics/jpx" xmlns="http://www.topografix.com/GPX/1/1"><trk><trkseg><trkpt lat="44.03744004109688" lon="10.842891915728167"><ele>796.0</ele><time>2026-03-28T08:04:49.92Z</time></trkpt><trkpt lat="44.037396600848695" lon="10.84310912308966"><ele>796.0</ele><time>2026-03-28T08:07:20.919Z</time></trkpt><trkpt lat="44.037461467207855" lon="10.842936378998683"><ele>796.0</ele><time>2026-03-28T08:08:47.918Z</time></trkpt><trkpt lat="44.03752900830148" lon="10.842858979516818"><ele>796.0</ele><time>2026-03-28T08:09:19.918Z</time></trkpt><trkpt lat="44.03759621799975" lon="10.842817017930733"><ele>793.8333333333333</ele><time>2026-03-28T08:09:25.918Z</time></trkpt><trkpt lat="44.0376329370936" lon="10.842735681184745"><ele>791.6666666666666</ele><time>2026-03-28T08:09:29.918Z</time></trkpt><trkpt lat="44.037700083894784" lon="10.842700545592347"><ele>789.5</ele><time>2026-03-28T08:09:34.918Z</time></trkpt><trkpt lat="44.03776332019292" lon="10.842680262412122"><ele>787.3333333333333</ele><time>2026-03-28T08:09:45.917Z</time></trkpt><trkpt lat="44.037834783997695" lon="10.842654943133477"><ele>785.1666666666666</ele><time>2026-03-28T08:09:50.917Z</time></trkpt><trkpt lat="44.037923481718465" lon="10.842687220784988"><ele>783.0</ele><time>2026-03-28T08:09:53.917Z</time></trkpt><trkpt lat="44.03797452553862" lon="10.842775160743507"><ele>783.0</ele><time>2026-03-28T08:09:56.916Z</time></trkpt><trkpt lat="44.03804979240605" lon="10.842804759859604"><ele>783.0</ele><time>2026-03-28T08:09:59.917Z</time></trkpt><trkpt lat="44.038141094061714" lon="10.84285832116797"><ele>783.0</ele><time>2026-03-28T08:10:02.916Z</time></trkpt><trkpt lat="44.03820242662022" lon="10.842942625562582"><ele>783.0</ele><time>2026-03-28T08:10:06.917Z</time></trkpt><trkpt lat="44.03826618611962" lon="10.842945562362472"><ele>783.0</ele><time>2026-03-28T08:10:09.916Z</time></trkpt><trkpt lat="44.03835043504929" lon="10.84294170899741"><ele>783.0</ele><time>2026-03-28T08:10:12.916Z</time></trkpt><trkpt lat="44.038425932736075" lon="10.842919874764263"><ele>780.8571428571428</ele><time>2026-03-28T08:10:16.916Z</time></trkpt><trkpt lat="44.038498936836575" lon="10.84290110637281"><ele>778.7142857142858</ele><time>2026-03-28T08:10:20.916Z</time></trkpt><trkpt lat="44.03857232884468" lon="10.842904453364673"><ele>776.5714285714286</ele><time>2026-03-28T08:10:24.916Z</time></trkpt><trkpt lat="44.038635839026256" lon="10.842867181325945"><ele>774.4285714285713</ele><time>2026-03-28T08:10:28.916Z</time></trkpt><trkpt lat="44.03870322490523" lon="10.842851655462736"><ele>772.2857142857142</ele><time>2026-03-28T08:10:32.916Z</time></trkpt><trkpt lat="44.03877784830718" lon="10.842876845044378"><ele>770.1428571428571</ele><time>2026-03-28T08:10:37.916Z</time></trkpt><trkpt lat="44.03886200244528" lon="10.84288438853595"><ele>768.0</ele><time>2026-03-28T08:10:41.916Z</time></trkpt><trkpt lat="44.038937679236255" lon="10.84288016522944"><ele>768.0</ele><time>2026-03-28T08:10:44.916Z</time></trkpt><trkpt lat="44.03903117237143" lon="10.842899484791216"><ele>768.0</ele><time>2026-03-28T08:10:47.915Z</time></trkpt><trkpt lat="44.03910815773353" lon="10.84293363240816"><ele>768.0</ele><time>2026-03-28T08:10:49.915Z</time></trkpt><trkpt lat="44.039188914141825" lon="10.84297169801423"><ele>768.0</ele><time>2026-03-28T08:10:51.915Z</time></trkpt><trkpt lat="44.039241696796346" lon="10.843028338076167"><ele>768.0</ele><time>2026-03-28T08:10:53.915Z</time></trkpt><trkpt lat="44.03930873398383" lon="10.843101084432924"><ele>768.0</ele><time>2026-03-28T08:10:56.915Z</time></trkpt><trkpt lat="44.03937189632023" lon="10.843182297161203"><ele>766.1428571428571</ele><time>2026-03-28T08:11:00.915Z</time></trkpt><trkpt lat="44.0394093726292" lon="10.843274060099974"><ele>764.2857142857142</ele><time>2026-03-28T08:11:04.915Z</time></trkpt><trkpt lat="44.039462465794436" lon="10.843344700037196"><ele>762.4285714285713</ele><time>2026-03-28T08:11:09.915Z</time></trkpt><trkpt lat="44.03953564089465" lon="10.843395883084519"><ele>760.5714285714286</ele><time>2026-03-28T08:11:12.915Z</time></trkpt><trkpt lat="44.039591526718254" lon="10.843454610047056"><ele>758.7142857142858</ele><time>2026-03-28T08:11:15.915Z</time></trkpt><trkpt lat="44.03962611846342" lon="10.843529640085086"><ele>756.8571428571428</ele><time>2026-03-28T08:11:18.915Z</time></trkpt><trkpt lat="44.03967716561334" lon="10.843602271737684"><ele>755.0</ele><time>2026-03-28T08:11:21.915Z</time></trkpt><trkpt lat="44.03974041109092" lon="10.8436637964455"><ele>754.1428571428571</ele><time>2026-03-28T08:11:24.915Z</time></trkpt><trkpt lat="44.03980942997552" lon="10.843726323406944"><ele>753.2857142857143</ele><time>2026-03-28T08:11:27.915Z</time></trkpt><trkpt lat="44.03987597600815" lon="10.843786593492059"><ele>752.4285714285714</ele><time>2026-03-28T08:11:32.915Z</time></trkpt><trkpt lat="44.03993436470053" lon="10.843825865654637"><ele>751.5714285714286</ele><time>2026-03-28T08:11:35.915Z</time></trkpt><trkpt lat="44.0399900928196" lon="10.843888086877097"><ele>750.7142857142858</ele><time>2026-03-28T08:11:39.915Z</time></trkpt><trkpt lat="44.04005133035903" lon="10.843920633981558"><ele>749.8571428571429</ele><time>2026-03-28T08:11:42.915Z</time></trkpt><trkpt lat="44.040128661667254" lon="10.843935191236946"><ele>749.0</ele><time>2026-03-28T08:11:46.915Z</time></trkpt><trkpt lat="44.0402029586958" lon="10.843940081197053"><ele>747.0</ele><time>2026-03-28T08:11:49.915Z</time></trkpt><trkpt lat="44.04025648018292" lon="10.843995654518462"><ele>745.0</ele><time>2026-03-28T08:11:52.915Z</time></trkpt><trkpt lat="44.04027637310065" lon="10.844085906773786"><ele>743.0</ele><time>2026-03-28T08:11:55.915Z</time></trkpt><trkpt lat="44.04032383286369" lon="10.844190315415412"><ele>741.0</ele><time>2026-03-28T08:11:58.915Z</time></trkpt><trkpt lat="44.04034146819377" lon="10.844313799250207"><ele>739.0</ele><time>2026-03-28T08:12:01.914Z</time></trkpt><trkpt lat="44.040353881222885" lon="10.84440157168709"><ele>737.0</ele><time>2026-03-28T08:12:03.914Z</time></trkpt><trkpt lat="44.04034985534177" lon="10.844495108173303"><ele>735.0</ele><time>2026-03-28T08:12:06.914Z</time></trkpt><trkpt lat="44.04035300246188" lon="10.844583307657322"><ele>734.4285714285714</ele><time>2026-03-28T08:12:09.914Z</time></trkpt><trkpt lat="44.04032236465985" lon="10.84466140610243"><ele>733.8571428571429</ele><time>2026-03-28T08:12:12.914Z</time></trkpt><trkpt lat="44.04032538607841" lon="10.844766002724686"><ele>733.2857142857142</ele><time>2026-03-28T08:12:15.914Z</time></trkpt><trkpt lat="44.0403269925711" lon="10.844867583178942"><ele>732.7142857142858</ele><time>2026-03-28T08:12:18.914Z</time></trkpt><trkpt lat="44.040318082991234" lon="10.844960956561522"><ele>732.1428571428571</ele><time>2026-03-28T08:12:21.914Z</time></trkpt><trkpt lat="44.040296069208665" lon="10.845078547663418"><ele>731.5714285714286</ele><time>2026-03-28T08:12:24.914Z</time></trkpt><trkpt lat="44.04025550741614" lon="10.84516661755388"><ele>731.0</ele><time>2026-03-28T08:12:27.914Z</time></trkpt><trkpt lat="44.040254061558635" lon="10.84528486999238"><ele>731.0</ele><time>2026-03-28T08:12:30.914Z</time></trkpt><trkpt lat="44.04020065823248" lon="10.845372831245056"><ele>731.0</ele><time>2026-03-28T08:12:33.914Z</time></trkpt><trkpt lat="44.040131708196085" lon="10.84545593041261"><ele>731.0</ele><time>2026-03-28T08:12:36.914Z</time></trkpt><trkpt lat="44.04012095317352" lon="10.845544027325952"><ele>731.0</ele><time>2026-03-28T08:12:38.914Z</time></trkpt><trkpt lat="44.0400796012045" lon="10.845635038792613"><ele>731.0</ele><time>2026-03-28T08:12:40.914Z</time></trkpt><trkpt lat="44.040032712727026" lon="10.845742160495265"><ele>731.0</ele><time>2026-03-28T08:12:43.914Z</time></trkpt><trkpt lat="44.03999548195213" lon="10.845814769391032"><ele>730.5714285714286</ele><time>2026-03-28T08:12:45.914Z</time></trkpt><trkpt lat="44.03996404287824" lon="10.845891202631277"><ele>730.1428571428571</ele><time>2026-03-28T08:12:47.914Z</time></trkpt><trkpt lat="44.03992491774803" lon="10.84601091110014"><ele>729.7142857142858</ele><time>2026-03-28T08:12:50.914Z</time></trkpt><trkpt lat="44.039888725163905" lon="10.846094672929503"><ele>729.2857142857142</ele><time>2026-03-28T08:12:52.914Z</time></trkpt><trkpt lat="44.03985855476812" lon="10.846176355989451"><ele>728.8571428571429</ele><time>2026-03-28T08:12:54.914Z</time></trkpt><trkpt lat="44.039826717483805" lon="10.846256434237043"><ele>728.4285714285714</ele><time>2026-03-28T08:12:56.913Z</time></trkpt><trkpt lat="44.039791712045194" lon="10.846338483420002"><ele>728.0</ele><time>2026-03-28T08:12:58.913Z</time></trkpt><trkpt lat="44.03975278603786" lon="10.846436851422546"><ele>728.0</ele><time>2026-03-28T08:13:01.913Z</time></trkpt><trkpt lat="44.039699786723446" lon="10.846505623296828"><ele>728.0</ele><time>2026-03-28T08:13:03.913Z</time></trkpt><trkpt lat="44.03964613225935" lon="10.846568990442881"><ele>728.0</ele><time>2026-03-28T08:13:05.913Z</time></trkpt><trkpt lat="44.03959606459027" lon="10.84664816763583"><ele>728.0</ele><time>2026-03-28T08:13:07.913Z</time></trkpt><trkpt lat="44.0395431726798" lon="10.846715357501987"><ele>728.0</ele><time>2026-03-28T08:13:09.913Z</time></trkpt><trkpt lat="44.03948281017608" lon="10.846810044606865"><ele>728.0</ele><time>2026-03-28T08:13:12.913Z</time></trkpt><trkpt lat="44.03944339967202" lon="10.846892022629117"><ele>728.0</ele><time>2026-03-28T08:13:14.913Z</time></trkpt><trkpt lat="44.03939891638039" lon="10.846957639844916"><ele>728.0</ele><time>2026-03-28T08:13:16.913Z</time></trkpt><trkpt lat="44.03932673985138" lon="10.847058930156209"><ele>728.0</ele><time>2026-03-28T08:13:19.913Z</time></trkpt><trkpt lat="44.03927946825174" lon="10.847131261997678"><ele>728.0</ele><time>2026-03-28T08:13:21.913Z</time></trkpt><trkpt lat="44.03923317027746" lon="10.847193525324407"><ele>728.0</ele><time>2026-03-28T08:13:23.913Z</time></trkpt><trkpt lat="44.03917501787617" lon="10.847268997733675"><ele>728.0</ele><time>2026-03-28T08:13:25.913Z</time></trkpt><trkpt lat="44.039124687458035" lon="10.847336380006556"><ele>727.1428571428571</ele><time>2026-03-28T08:13:27.913Z</time></trkpt><trkpt lat="44.03910275917794" lon="10.847422773470136"><ele>726.2857142857142</ele><time>2026-03-28T08:13:29.913Z</time></trkpt><trkpt lat="44.039092018732376" lon="10.847513556851558"><ele>725.4285714285714</ele><time>2026-03-28T08:13:31.913Z</time></trkpt><trkpt lat="44.039052594989386" lon="10.84759271771079"><ele>724.5714285714286</ele><time>2026-03-28T08:13:33.913Z</time></trkpt><trkpt lat="44.03901899597807" lon="10.84770083355227"><ele>723.7142857142857</ele><time>2026-03-28T08:13:36.913Z</time></trkpt><trkpt lat="44.03899151469015" lon="10.847803099215637"><ele>722.8571428571429</ele><time>2026-03-28T08:13:39.913Z</time></trkpt><trkpt lat="44.038980581987204" lon="10.84790712965043"><ele>722.0</ele><time>2026-03-28T08:13:41.913Z</time></trkpt><trkpt lat="44.038930369367044" lon="10.848037343987992"><ele>722.2</ele><time>2026-03-28T08:13:43.913Z</time></trkpt><trkpt lat="44.038843493475305" lon="10.84811292272675"><ele>722.4000000000001</ele><time>2026-03-28T08:13:44.913Z</time></trkpt><trkpt lat="44.03878589927893" lon="10.848233104371502"><ele>722.5999999999999</ele><time>2026-03-28T08:13:46.913Z</time></trkpt><trkpt lat="44.038719612890105" lon="10.848368259370552"><ele>722.8</ele><time>2026-03-28T08:13:48.913Z</time></trkpt><trkpt lat="44.038655211244176" lon="10.848514698606495"><ele>723.0</ele><time>2026-03-28T08:13:50.913Z</time></trkpt><trkpt lat="44.03861002370325" lon="10.84860324019315"><ele>723.0</ele><time>2026-03-28T08:13:51.913Z</time></trkpt><trkpt lat="44.03856893898715" lon="10.848688087093173"><ele>723.0</ele><time>2026-03-28T08:13:52.913Z</time></trkpt><trkpt lat="44.03852962923643" lon="10.848780740041713"><ele>723.0</ele><time>2026-03-28T08:13:53.913Z</time></trkpt><trkpt lat="44.03847899794931" lon="10.848872915205627"><ele>723.0</ele><time>2026-03-28T08:13:54.913Z</time></trkpt><trkpt lat="44.03843500589114" lon="10.848969622377425"><ele>723.0</ele><time>2026-03-28T08:13:55.913Z</time></trkpt><trkpt lat="44.0383888228547" lon="10.849066054878383"><ele>723.0</ele><time>2026-03-28T08:13:56.913Z</time></trkpt><trkpt lat="44.0383347945857" lon="10.84915802481149"><ele>721.3333333333334</ele><time>2026-03-28T08:13:57.913Z</time></trkpt><trkpt lat="44.03829077159712" lon="10.849255060388032"><ele>719.6666666666666</ele><time>2026-03-28T08:13:58.913Z</time></trkpt><trkpt lat="44.03823348549841" lon="10.849362801280083"><ele>718.0</ele><time>2026-03-28T08:13:59.913Z</time></trkpt><trkpt lat="44.03818500335889" lon="10.849457710234004"><ele>716.3333333333333</ele><time>2026-03-28T08:14:00.913Z</time></trkpt><trkpt lat="44.03813422368113" lon="10.849558094981132"><ele>714.6666666666666</ele><time>2026-03-28T08:14:01.913Z</time></trkpt><trkpt lat="44.038085902566415" lon="10.849647818136892"><ele>713.0</ele><time>2026-03-28T08:14:02.913Z</time></trkpt><trkpt lat="44.038038079779405" lon="10.849756178751178"><ele>713.0</ele><time>2026-03-28T08:14:03.913Z</time></trkpt><trkpt lat="44.03798735687859" lon="10.849874830602605"><ele>713.0</ele><time>2026-03-28T08:14:04.913Z</time></trkpt><trkpt lat="44.037945912158634" lon="10.849995057126364"><ele>713.0</ele><time>2026-03-28T08:14:05.913Z</time></trkpt><trkpt lat="44.0379024129731" lon="10.850110041296066"><ele>713.0</ele><time>2026-03-28T08:14:06.912Z</time></trkpt><trkpt lat="44.03786092395434" lon="10.850234658057941"><ele>713.0</ele><time>2026-03-28T08:14:07.913Z</time></trkpt><trkpt lat="44.03781940300745" lon="10.850353058684673"><ele>713.0</ele><time>2026-03-28T08:14:08.913Z</time></trkpt><trkpt lat="44.03778368295485" lon="10.850484503977674"><ele>713.0</ele><time>2026-03-28T08:14:09.913Z</time></trkpt><trkpt lat="44.03774585625294" lon="10.850612801669596"><ele>713.0</ele><time>2026-03-28T08:14:10.913Z</time></trkpt><trkpt lat="44.03771079671265" lon="10.850722307662428"><ele>713.0</ele><time>2026-03-28T08:14:11.913Z</time></trkpt><trkpt lat="44.03768083138571" lon="10.850853062009739"><ele>713.0</ele><time>2026-03-28T08:14:12.912Z</time></trkpt><trkpt lat="44.0376580363133" lon="10.850985694471094"><ele>712.8333333333333</ele><time>2026-03-28T08:14:13.912Z</time></trkpt><trkpt lat="44.03762939450547" lon="10.851102025492695"><ele>712.6666666666666</ele><time>2026-03-28T08:14:14.912Z</time></trkpt><trkpt lat="44.03761122731507" lon="10.851204107994318"><ele>712.5</ele><time>2026-03-28T08:14:15.912Z</time></trkpt><trkpt lat="44.0375954066467" lon="10.851311578520257"><ele>712.3333333333334</ele><time>2026-03-28T08:14:16.912Z</time></trkpt><trkpt lat="44.037601321655536" lon="10.851402595171246"><ele>712.1666666666667</ele><time>2026-03-28T08:14:17.912Z</time></trkpt><trkpt lat="44.03761508994289" lon="10.851503847125613"><ele>712.0</ele><time>2026-03-28T08:14:18.912Z</time></trkpt><trkpt lat="44.037636580508746" lon="10.851607546933671"><ele>712.0</ele><time>2026-03-28T08:14:19.912Z</time></trkpt><trkpt lat="44.03765035115921" lon="10.851702280960204"><ele>712.0</ele><time>2026-03-28T08:14:20.912Z</time></trkpt><trkpt lat="44.03765498380265" lon="10.85178963329748"><ele>712.0</ele><time>2026-03-28T08:14:21.912Z</time></trkpt><trkpt lat="44.0376634527144" lon="10.85188213026883"><ele>712.0</ele><time>2026-03-28T08:14:22.912Z</time></trkpt><trkpt lat="44.03769888297886" lon="10.852047890859401"><ele>712.0</ele><time>2026-03-28T08:14:24.912Z</time></trkpt><trkpt lat="44.03771422699191" lon="10.852217660360104"><ele>712.0</ele><time>2026-03-28T08:14:26.912Z</time></trkpt><trkpt lat="44.0377325253605" lon="10.852360545808386"><ele>712.0</ele><time>2026-03-28T08:14:28.912Z</time></trkpt><trkpt lat="44.03775068649274" lon="10.852502563334863"><ele>712.0</ele><time>2026-03-28T08:14:30.912Z</time></trkpt><trkpt lat="44.037762630075285" lon="10.852652957165947"><ele>712.0</ele><time>2026-03-28T08:14:32.912Z</time></trkpt><trkpt lat="44.03776751436931" lon="10.852802216934336"><ele>712.0</ele><time>2026-03-28T08:14:34.912Z</time></trkpt><trkpt lat="44.03777569805912" lon="10.852953942322038"><ele>712.0</ele><time>2026-03-28T08:14:36.912Z</time></trkpt><trkpt lat="44.03774180972517" lon="10.853102470871374"><ele>711.3333333333334</ele><time>2026-03-28T08:14:38.912Z</time></trkpt><trkpt lat="44.03770939321767" lon="10.85317771327348"><ele>710.6666666666667</ele><time>2026-03-28T08:14:39.912Z</time></trkpt><trkpt lat="44.03763006453641" lon="10.853283206770355"><ele>710.0</ele><time>2026-03-28T08:14:41.912Z</time></trkpt><trkpt lat="44.03758194716364" lon="10.853341092599736"><ele>709.3333333333334</ele><time>2026-03-28T08:14:42.912Z</time></trkpt><trkpt lat="44.03750948848167" lon="10.853446343365205"><ele>708.6666666666666</ele><time>2026-03-28T08:14:44.912Z</time></trkpt><trkpt lat="44.03746261808837" lon="10.85356645522516"><ele>708.0</ele><time>2026-03-28T08:14:46.912Z</time></trkpt><trkpt lat="44.037428218779176" lon="10.85370987742539"><ele>709.0</ele><time>2026-03-28T08:14:48.912Z</time></trkpt><trkpt lat="44.03739239562122" lon="10.853848954931284"><ele>710.0</ele><time>2026-03-28T08:14:50.912Z</time></trkpt><trkpt lat="44.03738121818114" lon="10.85399990365267"><ele>711.0</ele><time>2026-03-28T08:14:52.912Z</time></trkpt><trkpt lat="44.037398365792875" lon="10.854104027726638"><ele>712.0</ele><time>2026-03-28T08:14:54.912Z</time></trkpt><trkpt lat="44.037441277295535" lon="10.854219757942142"><ele>713.0</ele><time>2026-03-28T08:14:56.912Z</time></trkpt><trkpt lat="44.03747278311228" lon="10.854331751695776"><ele>713.0</ele><time>2026-03-28T08:14:58.912Z</time></trkpt><trkpt lat="44.03752840391253" lon="10.854410015408503"><ele>713.0</ele><time>2026-03-28T08:15:00.912Z</time></trkpt><trkpt lat="44.03759257184118" lon="10.85453561411213"><ele>713.0</ele><time>2026-03-28T08:15:02.912Z</time></trkpt><trkpt lat="44.037649363050065" lon="10.854659460320873"><ele>713.0</ele><time>2026-03-28T08:15:04.912Z</time></trkpt><trkpt lat="44.03769439519271" lon="10.85477601131179"><ele>713.0</ele><time>2026-03-28T08:15:06.912Z</time></trkpt><trkpt lat="44.03771820773148" lon="10.854927275095461"><ele>713.0</ele><time>2026-03-28T08:15:08.912Z</time></trkpt><trkpt lat="44.03773309105147" lon="10.855071844992924"><ele>713.0</ele><time>2026-03-28T08:15:10.912Z</time></trkpt><trkpt lat="44.0377491189129" lon="10.855236740207634"><ele>713.0</ele><time>2026-03-28T08:15:12.912Z</time></trkpt><trkpt lat="44.037739578353225" lon="10.855369188699438"><ele>713.0</ele><time>2026-03-28T08:15:14.912Z</time></trkpt><trkpt lat="44.037749707761265" lon="10.855518390478474"><ele>713.0</ele><time>2026-03-28T08:15:16.912Z</time></trkpt><trkpt lat="44.037773270887506" lon="10.855638476123001"><ele>713.3333333333333</ele><time>2026-03-28T08:15:18.912Z</time></trkpt><trkpt lat="44.037757118358996" lon="10.855736577121235"><ele>713.6666666666666</ele><time>2026-03-28T08:15:20.912Z</time></trkpt><trkpt lat="44.037763711571955" lon="10.855860814726276"><ele>714.0</ele><time>2026-03-28T08:15:22.912Z</time></trkpt><trkpt lat="44.03777248248175" lon="10.856020770618734"><ele>714.3333333333334</ele><time>2026-03-28T08:15:24.912Z</time></trkpt><trkpt lat="44.037774110717336" lon="10.856123713660253"><ele>714.6666666666667</ele><time>2026-03-28T08:15:25.912Z</time></trkpt><trkpt lat="44.03778816707323" lon="10.856239268410432"><ele>715.0</ele><time>2026-03-28T08:15:26.912Z</time></trkpt><trkpt lat="44.03778958723077" lon="10.856344289160111"><ele>715.0</ele><time>2026-03-28T08:15:27.912Z</time></trkpt><trkpt lat="44.03779384356934" lon="10.856433133003392"><ele>715.0</ele><time>2026-03-28T08:15:28.912Z</time></trkpt><trkpt lat="44.037812548412305" lon="10.856603879327881"><ele>715.0</ele><time>2026-03-28T08:15:30.912Z</time></trkpt><trkpt lat="44.03782667361238" lon="10.856701458933298"><ele>715.0</ele><time>2026-03-28T08:15:31.912Z</time></trkpt><trkpt lat="44.03785036843797" lon="10.856790409080771"><ele>715.0</ele><time>2026-03-28T08:15:32.912Z</time></trkpt><trkpt lat="44.037897579392265" lon="10.85686919451588"><ele>715.0</ele><time>2026-03-28T08:15:33.912Z</time></trkpt><trkpt lat="44.03797158827607" lon="10.856953509425747"><ele>715.3333333333334</ele><time>2026-03-28T08:15:34.912Z</time></trkpt><trkpt lat="44.03804413323545" lon="10.857027359661055"><ele>715.6666666666667</ele><time>2026-03-28T08:15:35.912Z</time></trkpt><trkpt lat="44.03815938839475" lon="10.857100855497649"><ele>716.0</ele><time>2026-03-28T08:15:37.912Z</time></trkpt><trkpt lat="44.03821885585418" lon="10.85716783289536"><ele>716.3333333333334</ele><time>2026-03-28T08:15:38.912Z</time></trkpt><trkpt lat="44.038270329845794" lon="10.857228712939946"><ele>716.6666666666666</ele><time>2026-03-28T08:15:39.912Z</time></trkpt><trkpt lat="44.03830934513365" lon="10.857300489459954"><ele>717.0</ele><time>2026-03-28T08:15:40.912Z</time></trkpt><trkpt lat="44.03834395705035" lon="10.857392979849818"><ele>715.5</ele><time>2026-03-28T08:15:41.912Z</time></trkpt><trkpt lat="44.03836540690174" lon="10.857477894556641"><ele>714.0</ele><time>2026-03-28T08:15:42.912Z</time></trkpt><trkpt lat="44.03838547552728" lon="10.857564976386184"><ele>712.5</ele><time>2026-03-28T08:15:43.912Z</time></trkpt><trkpt lat="44.0384192042992" lon="10.857742465780133"><ele>711.0</ele><time>2026-03-28T08:15:45.912Z</time></trkpt><trkpt lat="44.038436766793424" lon="10.857827892500882"><ele>709.5</ele><time>2026-03-28T08:15:46.912Z</time></trkpt><trkpt lat="44.03847500740169" lon="10.857988811580288"><ele>708.0</ele><time>2026-03-28T08:15:48.912Z</time></trkpt><trkpt lat="44.03849431790818" lon="10.85807666579505"><ele>708.0</ele><time>2026-03-28T08:15:49.912Z</time></trkpt><trkpt lat="44.03851659496689" lon="10.858170197745212"><ele>708.0</ele><time>2026-03-28T08:15:50.912Z</time></trkpt><trkpt lat="44.03853226145443" lon="10.858256424687964"><ele>708.0</ele><time>2026-03-28T08:15:51.912Z</time></trkpt><trkpt lat="44.03856113338231" lon="10.85840090092801"><ele>708.0</ele><time>2026-03-28T08:15:53.912Z</time></trkpt><trkpt lat="44.03858211708603" lon="10.858552702577308"><ele>708.0</ele><time>2026-03-28T08:15:55.912Z</time></trkpt><trkpt lat="44.03863075423141" lon="10.858735029777401"><ele>708.1428571428572</ele><time>2026-03-28T08:15:57.911Z</time></trkpt><trkpt lat="44.03865887405728" lon="10.858816727004589"><ele>708.2857142857142</ele><time>2026-03-28T08:15:58.911Z</time></trkpt><trkpt lat="44.03868667840397" lon="10.858905646313062"><ele>708.4285714285714</ele><time>2026-03-28T08:15:59.911Z</time></trkpt><trkpt lat="44.03869159314655" lon="10.858994911625075"><ele>708.5714285714287</ele><time>2026-03-28T08:16:00.911Z</time></trkpt><trkpt lat="44.038700540449604" lon="10.85908538716912"><ele>708.7142857142858</ele><time>2026-03-28T08:16:01.911Z</time></trkpt><trkpt lat="44.0387065815673" lon="10.859176578643526"><ele>708.8571428571429</ele><time>2026-03-28T08:16:02.911Z</time></trkpt><trkpt lat="44.03873510083487" lon="10.859260892020117"><ele>709.0</ele><time>2026-03-28T08:16:03.911Z</time></trkpt><trkpt lat="44.03873507932211" lon="10.859361176672047"><ele>707.2</ele><time>2026-03-28T08:16:04.911Z</time></trkpt><trkpt lat="44.03874754847523" lon="10.859461987760303"><ele>705.4000000000001</ele><time>2026-03-28T08:16:05.911Z</time></trkpt><trkpt lat="44.03876788469068" lon="10.85961555469413"><ele>703.6</ele><time>2026-03-28T08:16:07.911Z</time></trkpt><trkpt lat="44.03877431995794" lon="10.859735141466519"><ele>701.8</ele><time>2026-03-28T08:16:08.911Z</time></trkpt><trkpt lat="44.038771382063636" lon="10.859829086991434"><ele>700.0</ele><time>2026-03-28T08:16:09.911Z</time></trkpt><trkpt lat="44.0387569206246" lon="10.859999122499358"><ele>700.0</ele><time>2026-03-28T08:16:11.911Z</time></trkpt><trkpt lat="44.038764359491815" lon="10.860095929859146"><ele>700.0</ele><time>2026-03-28T08:16:12.91Z</time></trkpt><trkpt lat="44.03877253646055" lon="10.860185717514756"><ele>700.0</ele><time>2026-03-28T08:16:13.911Z</time></trkpt><trkpt lat="44.038791367363906" lon="10.860275852049908"><ele>700.0</ele><time>2026-03-28T08:16:14.911Z</time></trkpt><trkpt lat="44.03881178655437" lon="10.86036125544046"><ele>700.0</ele><time>2026-03-28T08:16:15.911Z</time></trkpt><trkpt lat="44.03886783609247" lon="10.860521879790332"><ele>700.0</ele><time>2026-03-28T08:16:17.91Z</time></trkpt><trkpt lat="44.03887422330512" lon="10.860611132496238"><ele>698.6</ele><time>2026-03-28T08:16:18.91Z</time></trkpt><trkpt lat="44.03888526600062" lon="10.860698953751697"><ele>697.2</ele><time>2026-03-28T08:16:19.911Z</time></trkpt><trkpt lat="44.038873502872754" lon="10.860842524683894"><ele>695.8</ele><time>2026-03-28T08:16:21.911Z</time></trkpt><trkpt lat="44.03882381016245" lon="10.860978145361933"><ele>694.4</ele><time>2026-03-28T08:16:23.91Z</time></trkpt><trkpt lat="44.038778717014466" lon="10.861097402726964"><ele>693.0</ele><time>2026-03-28T08:16:25.91Z</time></trkpt><trkpt lat="44.03874658317008" lon="10.861196549763834"><ele>693.0</ele><time>2026-03-28T08:16:27.91Z</time></trkpt><trkpt lat="44.03871336569097" lon="10.861310478564633"><ele>693.0</ele><time>2026-03-28T08:16:29.91Z</time></trkpt><trkpt lat="44.03867503715569" lon="10.86139356168838"><ele>693.0</ele><time>2026-03-28T08:16:31.91Z</time></trkpt><trkpt lat="44.03864905312259" lon="10.861512407019854"><ele>693.0</ele><time>2026-03-28T08:16:33.91Z</time></trkpt><trkpt lat="44.038629725437474" lon="10.861610309837985"><ele>693.0</ele><time>2026-03-28T08:16:35.91Z</time></trkpt><trkpt lat="44.03862521395736" lon="10.861743692396681"><ele>693.0</ele><time>2026-03-28T08:16:37.91Z</time></trkpt><trkpt lat="44.038620963852026" lon="10.861889572885946"><ele>693.1666666666666</ele><time>2026-03-28T08:16:39.91Z</time></trkpt><trkpt lat="44.03861582702299" lon="10.861996071087647"><ele>693.3333333333334</ele><time>2026-03-28T08:16:41.91Z</time></trkpt><trkpt lat="44.03862085857503" lon="10.862103032796723"><ele>693.5</ele><time>2026-03-28T08:16:43.91Z</time></trkpt><trkpt lat="44.03864912788849" lon="10.8622011778934"><ele>693.6666666666667</ele><time>2026-03-28T08:16:45.91Z</time></trkpt><trkpt lat="44.038667183549016" lon="10.862304490704947"><ele>693.8333333333334</ele><time>2026-03-28T08:16:47.91Z</time></trkpt><trkpt lat="44.038678237080575" lon="10.862441451092712"><ele>694.0</ele><time>2026-03-28T08:16:49.91Z</time></trkpt><trkpt lat="44.03870007014658" lon="10.862565176618679"><ele>694.3333333333334</ele><time>2026-03-28T08:16:51.91Z</time></trkpt><trkpt lat="44.03872370463087" lon="10.862666791217828"><ele>694.6666666666667</ele><time>2026-03-28T08:16:53.91Z</time></trkpt><trkpt lat="44.038757559702084" lon="10.86278164104335"><ele>695.0</ele><time>2026-03-28T08:16:55.91Z</time></trkpt><trkpt lat="44.038766220557186" lon="10.862903103299992"><ele>695.3333333333334</ele><time>2026-03-28T08:16:57.91Z</time></trkpt><trkpt lat="44.038757977703334" lon="10.863013287835749"><ele>695.6666666666666</ele><time>2026-03-28T08:16:59.91Z</time></trkpt><trkpt lat="44.038756063216894" lon="10.863141754846627"><ele>696.0</ele><time>2026-03-28T08:17:01.91Z</time></trkpt><trkpt lat="44.03876981768474" lon="10.863258273075585"><ele>696.0</ele><time>2026-03-28T08:17:03.91Z</time></trkpt><trkpt lat="44.03877450385401" lon="10.863403095433437"><ele>696.0</ele><time>2026-03-28T08:17:05.91Z</time></trkpt><trkpt lat="44.03875310717412" lon="10.863554197962605"><ele>696.0</ele><time>2026-03-28T08:17:07.91Z</time></trkpt><trkpt lat="44.038742841413494" lon="10.863670620933906"><ele>696.0</ele><time>2026-03-28T08:17:09.91Z</time></trkpt><trkpt lat="44.03872478748666" lon="10.863789728790824"><ele>696.0</ele><time>2026-03-28T08:17:11.91Z</time></trkpt><trkpt lat="44.03869093182494" lon="10.863907747575743"><ele>696.3333333333334</ele><time>2026-03-28T08:17:13.91Z</time></trkpt><trkpt lat="44.038671724164956" lon="10.8640111798689"><ele>696.6666666666666</ele><time>2026-03-28T08:17:15.91Z</time></trkpt><trkpt lat="44.03864854636795" lon="10.864109610128883"><ele>697.0</ele><time>2026-03-28T08:17:17.909Z</time></trkpt><trkpt lat="44.03862547073701" lon="10.86422757066616"><ele>697.3333333333333</ele><time>2026-03-28T08:17:19.909Z</time></trkpt><trkpt lat="44.038604757132035" lon="10.864334948406595"><ele>697.6666666666666</ele><time>2026-03-28T08:17:21.909Z</time></trkpt><trkpt lat="44.03859299226076" lon="10.864424965070848"><ele>698.0</ele><time>2026-03-28T08:17:23.909Z</time></trkpt><trkpt lat="44.038586850721344" lon="10.86456269823035"><ele>698.0</ele><time>2026-03-28T08:17:25.909Z</time></trkpt><trkpt lat="44.038577969671515" lon="10.864697673064937"><ele>698.0</ele><time>2026-03-28T08:17:27.909Z</time></trkpt><trkpt lat="44.03856940915775" lon="10.864838686993435"><ele>698.0</ele><time>2026-03-28T08:17:29.909Z</time></trkpt><trkpt lat="44.038559933385216" lon="10.86500299091708"><ele>698.0</ele><time>2026-03-28T08:17:31.909Z</time></trkpt><trkpt lat="44.038551815956644" lon="10.865155952756652"><ele>698.0</ele><time>2026-03-28T08:17:33.909Z</time></trkpt><trkpt lat="44.03854021052561" lon="10.86529071038136"><ele>698.0</ele><time>2026-03-28T08:17:35.909Z</time></trkpt><trkpt lat="44.03852901875678" lon="10.865433636278855"><ele>698.0</ele><time>2026-03-28T08:17:37.909Z</time></trkpt><trkpt lat="44.03852066614941" lon="10.865529739049755"><ele>698.0</ele><time>2026-03-28T08:17:38.909Z</time></trkpt><trkpt lat="44.03848261927448" lon="10.865653948784038"><ele>698.0</ele><time>2026-03-28T08:17:40.909Z</time></trkpt><trkpt lat="44.03846531726025" lon="10.86581296582216"><ele>698.0</ele><time>2026-03-28T08:17:42.909Z</time></trkpt><trkpt lat="44.03845420040862" lon="10.865957598812084"><ele>698.2</ele><time>2026-03-28T08:17:44.909Z</time></trkpt><trkpt lat="44.03844477597848" lon="10.866088818930113"><ele>698.4</ele><time>2026-03-28T08:17:46.909Z</time></trkpt><trkpt lat="44.0384361138289" lon="10.866267388407046"><ele>698.6</ele><time>2026-03-28T08:17:48.909Z</time></trkpt><trkpt lat="44.03842023797796" lon="10.866433669183582"><ele>698.8000000000001</ele><time>2026-03-28T08:17:50.909Z</time></trkpt><trkpt lat="44.03840812098751" lon="10.866525079901688"><ele>699.0</ele><time>2026-03-28T08:17:51.909Z</time></trkpt><trkpt lat="44.038390913487575" lon="10.866684902773304"><ele>698.0</ele><time>2026-03-28T08:17:53.909Z</time></trkpt><trkpt lat="44.038376390896644" lon="10.86683893108085"><ele>697.0</ele><time>2026-03-28T08:17:55.909Z</time></trkpt><trkpt lat="44.03835026814081" lon="10.86700277121578"><ele>696.0</ele><time>2026-03-28T08:17:57.909Z</time></trkpt><trkpt lat="44.038348469234535" lon="10.867097293986559"><ele>695.0</ele><time>2026-03-28T08:17:58.909Z</time></trkpt><trkpt lat="44.038337246855946" lon="10.867254845021607"><ele>694.0</ele><time>2026-03-28T08:18:00.909Z</time></trkpt><trkpt lat="44.038332826776795" lon="10.867344552259409"><ele>694.0</ele><time>2026-03-28T08:18:01.909Z</time></trkpt><trkpt lat="44.03832039064039" lon="10.867441645718776"><ele>694.0</ele><time>2026-03-28T08:18:02.909Z</time></trkpt><trkpt lat="44.03830293657414" lon="10.867525927167964"><ele>694.0</ele><time>2026-03-28T08:18:03.909Z</time></trkpt><trkpt lat="44.03829475146469" lon="10.867614353213915"><ele>694.0</ele><time>2026-03-28T08:18:04.909Z</time></trkpt><trkpt lat="44.03829147768448" lon="10.86770325964959"><ele>694.0</ele><time>2026-03-28T08:18:05.909Z</time></trkpt><trkpt lat="44.0382801372658" lon="10.867868869828849"><ele>694.0</ele><time>2026-03-28T08:18:07.909Z</time></trkpt><trkpt lat="44.038272464747415" lon="10.86798324424236"><ele>693.3333333333334</ele><time>2026-03-28T08:18:08.909Z</time></trkpt><trkpt lat="44.03826448995179" lon="10.868072919037923"><ele>692.6666666666667</ele><time>2026-03-28T08:18:09.909Z</time></trkpt><trkpt lat="44.03824512331233" lon="10.86817380315284"><ele>692.0</ele><time>2026-03-28T08:18:10.909Z</time></trkpt><trkpt lat="44.03822166830054" lon="10.868261889252118"><ele>691.3333333333334</ele><time>2026-03-28T08:18:11.909Z</time></trkpt><trkpt lat="44.03818335760977" lon="10.868413721943188"><ele>690.6666666666666</ele><time>2026-03-28T08:18:13.909Z</time></trkpt><trkpt lat="44.03815746826886" lon="10.868505511485152"><ele>690.0</ele><time>2026-03-28T08:18:14.909Z</time></trkpt><trkpt lat="44.038152827396786" lon="10.868622034852528"><ele>689.3333333333334</ele><time>2026-03-28T08:18:15.909Z</time></trkpt><trkpt lat="44.038152281238524" lon="10.868715396086145"><ele>688.6666666666666</ele><time>2026-03-28T08:18:16.909Z</time></trkpt><trkpt lat="44.03813412687506" lon="10.868815637750911"><ele>688.0</ele><time>2026-03-28T08:18:17.908Z</time></trkpt><trkpt lat="44.038123111569895" lon="10.868911562189627"><ele>687.3333333333333</ele><time>2026-03-28T08:18:18.909Z</time></trkpt><trkpt lat="44.03811670745773" lon="10.869001994195925"><ele>686.6666666666666</ele><time>2026-03-28T08:18:19.909Z</time></trkpt><trkpt lat="44.03810857654696" lon="10.869157485802011"><ele>686.0</ele><time>2026-03-28T08:18:21.909Z</time></trkpt><trkpt lat="44.038120907954315" lon="10.869326588917907"><ele>685.4</ele><time>2026-03-28T08:18:23.908Z</time></trkpt><trkpt lat="44.038130998179525" lon="10.869478718927608"><ele>684.8</ele><time>2026-03-28T08:18:25.909Z</time></trkpt><trkpt lat="44.03814016635923" lon="10.869638510292914"><ele>684.1999999999999</ele><time>2026-03-28T08:18:27.909Z</time></trkpt><trkpt lat="44.038146412776854" lon="10.869742844697072"><ele>683.5999999999999</ele><time>2026-03-28T08:18:29.908Z</time></trkpt><trkpt lat="44.03813661044367" lon="10.869847743210494"><ele>683.0</ele><time>2026-03-28T08:18:31.909Z</time></trkpt><trkpt lat="44.03815811933435" lon="10.869977762603522"><ele>683.0</ele><time>2026-03-28T08:18:33.909Z</time></trkpt><trkpt lat="44.03816602653852" lon="10.870095150589203"><ele>683.0</ele><time>2026-03-28T08:18:35.909Z</time></trkpt><trkpt lat="44.03815803865365" lon="10.87021210219512"><ele>683.0</ele><time>2026-03-28T08:18:37.909Z</time></trkpt><trkpt lat="44.03817268965405" lon="10.870333507809363"><ele>683.0</ele><time>2026-03-28T08:18:39.909Z</time></trkpt><trkpt lat="44.038183693347165" lon="10.870468573151241"><ele>683.0</ele><time>2026-03-28T08:18:41.909Z</time></trkpt><trkpt lat="44.038201770742766" lon="10.870604712709428"><ele>682.2</ele><time>2026-03-28T08:18:43.909Z</time></trkpt><trkpt lat="44.038199679143965" lon="10.870695208947199"><ele>681.4</ele><time>2026-03-28T08:18:44.909Z</time></trkpt><trkpt lat="44.03814392517543" lon="10.870841371071117"><ele>680.6</ele><time>2026-03-28T08:18:46.909Z</time></trkpt><trkpt lat="44.03811886019283" lon="10.871020369418611"><ele>679.8000000000001</ele><time>2026-03-28T08:18:48.909Z</time></trkpt><trkpt lat="44.03813042310278" lon="10.871133940360217"><ele>679.0</ele><time>2026-03-28T08:18:49.909Z</time></trkpt><trkpt lat="44.03813835961622" lon="10.87124210086972"><ele>678.8000000000001</ele><time>2026-03-28T08:18:50.909Z</time></trkpt><trkpt lat="44.03814632080694" lon="10.871387430948019"><ele>678.6</ele><time>2026-03-28T08:18:52.909Z</time></trkpt><trkpt lat="44.03816363893311" lon="10.871519571636908"><ele>678.4</ele><time>2026-03-28T08:18:54.909Z</time></trkpt><trkpt lat="44.03818433345633" lon="10.871625747066497"><ele>678.2</ele><time>2026-03-28T08:18:56.909Z</time></trkpt><trkpt lat="44.03823215758463" lon="10.87174323086694"><ele>678.0</ele><time>2026-03-28T08:18:58.908Z</time></trkpt><trkpt lat="44.038265980002706" lon="10.871863487058253"><ele>679.1428571428571</ele><time>2026-03-28T08:19:00.908Z</time></trkpt><trkpt lat="44.03830746376461" lon="10.871966855508122"><ele>680.2857142857143</ele><time>2026-03-28T08:19:02.908Z</time></trkpt><trkpt lat="44.03833985852684" lon="10.872071693410353"><ele>681.4285714285714</ele><time>2026-03-28T08:19:04.908Z</time></trkpt><trkpt lat="44.038359506342914" lon="10.872159926826532"><ele>682.5714285714286</ele><time>2026-03-28T08:19:06.908Z</time></trkpt><trkpt lat="44.038384283725385" lon="10.87224610410788"><ele>683.7142857142858</ele><time>2026-03-28T08:19:08.908Z</time></trkpt><trkpt lat="44.03840466904717" lon="10.872341082200304"><ele>684.8571428571429</ele><time>2026-03-28T08:19:10.908Z</time></trkpt><trkpt lat="44.03845255810638" lon="10.872417273642982"><ele>686.0</ele><time>2026-03-28T08:19:12.908Z</time></trkpt><trkpt lat="44.03849783319656" lon="10.872487406463057"><ele>686.0</ele><time>2026-03-28T08:19:14.908Z</time></trkpt><trkpt lat="44.03854635027873" lon="10.872548090970783"><ele>686.0</ele><time>2026-03-28T08:19:16.908Z</time></trkpt><trkpt lat="44.03861927690706" lon="10.87258964093632"><ele>686.0</ele><time>2026-03-28T08:19:18.908Z</time></trkpt><trkpt lat="44.03867976000405" lon="10.872641216853355"><ele>686.0</ele><time>2026-03-28T08:19:20.908Z</time></trkpt><trkpt lat="44.038724286633894" lon="10.872718787984706"><ele>686.0</ele><time>2026-03-28T08:19:23.908Z</time></trkpt><trkpt lat="44.03875489688653" lon="10.872827387114462"><ele>686.0</ele><time>2026-03-28T08:19:27.908Z</time></trkpt><trkpt lat="44.03875428458466" lon="10.872935416437674"><ele>686.0</ele><time>2026-03-28T08:19:30.908Z</time></trkpt><trkpt lat="44.03875570317269" lon="10.873030233982567"><ele>685.3333333333333</ele><time>2026-03-28T08:19:32.908Z</time></trkpt><trkpt lat="44.038722799924905" lon="10.87311965987754"><ele>684.6666666666666</ele><time>2026-03-28T08:19:34.908Z</time></trkpt><trkpt lat="44.03870935461737" lon="10.873213560761808"><ele>684.0</ele><time>2026-03-28T08:19:36.908Z</time></trkpt><trkpt lat="44.038685919594165" lon="10.873308964187219"><ele>683.3333333333334</ele><time>2026-03-28T08:19:38.908Z</time></trkpt><trkpt lat="44.03866721510504" lon="10.87340601649795"><ele>682.6666666666667</ele><time>2026-03-28T08:19:40.908Z</time></trkpt><trkpt lat="44.03865960227342" lon="10.873503537933443"><ele>682.0</ele><time>2026-03-28T08:19:42.908Z</time></trkpt><trkpt lat="44.03858865994575" lon="10.873629090186448"><ele>681.0</ele><time>2026-03-28T08:19:45.908Z</time></trkpt><trkpt lat="44.03855107113303" lon="10.87375176373759"><ele>680.0</ele><time>2026-03-28T08:19:47.908Z</time></trkpt><trkpt lat="44.03857774599934" lon="10.873898704032728"><ele>679.0</ele><time>2026-03-28T08:19:49.908Z</time></trkpt><trkpt lat="44.03862440724181" lon="10.87395942274752"><ele>678.0</ele><time>2026-03-28T08:19:51.908Z</time></trkpt><trkpt lat="44.03864767104492" lon="10.874051513097818"><ele>677.0</ele><time>2026-03-28T08:19:54.908Z</time></trkpt><trkpt lat="44.03865319938774" lon="10.874143108075907"><ele>676.0</ele><time>2026-03-28T08:19:58.908Z</time></trkpt><trkpt lat="44.03861200778573" lon="10.8742204466686"><ele>675.6666666666667</ele><time>2026-03-28T08:20:02.908Z</time></trkpt><trkpt lat="44.03857727764508" lon="10.874308422576114"><ele>675.3333333333334</ele><time>2026-03-28T08:20:04.908Z</time></trkpt><trkpt lat="44.038594344359346" lon="10.874446072562916"><ele>675.0</ele><time>2026-03-28T08:20:06.908Z</time></trkpt><trkpt lat="44.038650719039374" lon="10.874561228441271"><ele>674.6666666666666</ele><time>2026-03-28T08:20:08.908Z</time></trkpt><trkpt lat="44.03869776726141" lon="10.874638663961186"><ele>674.3333333333333</ele><time>2026-03-28T08:20:10.908Z</time></trkpt><trkpt lat="44.03875046178499" lon="10.874739992735776"><ele>674.0</ele><time>2026-03-28T08:20:14.908Z</time></trkpt><trkpt lat="44.03878919118084" lon="10.874845191269754"><ele>674.0000000000001</ele><time>2026-03-28T08:20:17.908Z</time></trkpt><trkpt lat="44.03875648374887" lon="10.87492577402068"><ele>674.0</ele><time>2026-03-28T08:20:20.908Z</time></trkpt><trkpt lat="44.03877808557475" lon="10.875014438532299"><ele>674.0</ele><time>2026-03-28T08:20:22.908Z</time></trkpt><trkpt lat="44.038822929636865" lon="10.875113865583167"><ele>674.0</ele><time>2026-03-28T08:20:24.906Z</time></trkpt><trkpt lat="44.038865275106424" lon="10.87520391075383"><ele>674.0</ele><time>2026-03-28T08:20:26.906Z</time></trkpt><trkpt lat="44.03891837487379" lon="10.875285319426405"><ele>674.0000000000001</ele><time>2026-03-28T08:20:28.907Z</time></trkpt><trkpt lat="44.03893869939664" lon="10.875383251678857"><ele>674.0</ele><time>2026-03-28T08:20:30.906Z</time></trkpt><trkpt lat="44.038994724969264" lon="10.875493738991603"><ele>673.5</ele><time>2026-03-28T08:20:33.906Z</time></trkpt><trkpt lat="44.039025784960366" lon="10.87560180149917"><ele>673.0</ele><time>2026-03-28T08:20:36.906Z</time></trkpt><trkpt lat="44.03899387050606" lon="10.875703163272808"><ele>672.5</ele><time>2026-03-28T08:20:39.906Z</time></trkpt><trkpt lat="44.03895188559261" lon="10.875770910961092"><ele>672.0</ele><time>2026-03-28T08:20:40.906Z</time></trkpt><trkpt lat="44.038896062828584" lon="10.875833790705117"><ele>671.5</ele><time>2026-03-28T08:20:41.906Z</time></trkpt><trkpt lat="44.03883413070017" lon="10.875906873173893"><ele>671.0</ele><time>2026-03-28T08:20:43.906Z</time></trkpt><trkpt lat="44.03878042135813" lon="10.875985885881104"><ele>671.0</ele><time>2026-03-28T08:20:46.906Z</time></trkpt><trkpt lat="44.038755842566104" lon="10.876101151523155"><ele>671.0</ele><time>2026-03-28T08:20:51.906Z</time></trkpt><trkpt lat="44.03879878451424" lon="10.876207686431405"><ele>671.0</ele><time>2026-03-28T08:20:53.906Z</time></trkpt><trkpt lat="44.03884388209978" lon="10.876270732309479"><ele>671.0</ele><time>2026-03-28T08:20:55.906Z</time></trkpt><trkpt lat="44.03889540809257" lon="10.87637087896213"><ele>671.0</ele><time>2026-03-28T08:20:58.906Z</time></trkpt><trkpt lat="44.03894902494378" lon="10.876469319806596"><ele>671.0</ele><time>2026-03-28T08:21:00.906Z</time></trkpt><trkpt lat="44.03899153602438" lon="10.876565917332664"><ele>671.0</ele><time>2026-03-28T08:21:02.906Z</time></trkpt><trkpt lat="44.039029865262904" lon="10.876654879009433"><ele>671.0</ele><time>2026-03-28T08:21:04.906Z</time></trkpt><trkpt lat="44.039062560386675" lon="10.876736331870557"><ele>671.0</ele><time>2026-03-28T08:21:06.906Z</time></trkpt><trkpt lat="44.039080897020774" lon="10.876841568249635"><ele>671.0</ele><time>2026-03-28T08:21:09.906Z</time></trkpt><trkpt lat="44.03903156061219" lon="10.876903825544243"><ele>671.0</ele><time>2026-03-28T08:21:12.906Z</time></trkpt><trkpt lat="44.039028447031576" lon="10.877030770234063"><ele>671.0</ele><time>2026-03-28T08:21:15.906Z</time></trkpt><trkpt lat="44.039044757386065" lon="10.877128106005786"><ele>671.0</ele><time>2026-03-28T08:21:17.906Z</time></trkpt><trkpt lat="44.03904352532238" lon="10.87721937713713"><ele>672.0</ele><time>2026-03-28T08:21:18.906Z</time></trkpt><trkpt lat="44.03902602522259" lon="10.877326195765464"><ele>673.0</ele><time>2026-03-28T08:21:20.906Z</time></trkpt><trkpt lat="44.03902849464401" lon="10.877447683221366"><ele>674.0</ele><time>2026-03-28T08:21:22.906Z</time></trkpt><trkpt lat="44.039029833111314" lon="10.877551472930133"><ele>675.0</ele><time>2026-03-28T08:21:24.906Z</time></trkpt><trkpt lat="44.03903661435045" lon="10.877683750328439"><ele>676.0</ele><time>2026-03-28T08:21:26.906Z</time></trkpt><trkpt lat="44.03904307492102" lon="10.877785917317516"><ele>677.0</ele><time>2026-03-28T08:21:28.906Z</time></trkpt><trkpt lat="44.03905945247779" lon="10.877889805538013"><ele>677.0</ele><time>2026-03-28T08:21:30.906Z</time></trkpt><trkpt lat="44.039051485950544" lon="10.87798860994704"><ele>677.0</ele><time>2026-03-28T08:21:32.906Z</time></trkpt><trkpt lat="44.03903688150408" lon="10.878105256153622"><ele>677.0</ele><time>2026-03-28T08:21:36.906Z</time></trkpt><trkpt lat="44.039018977342536" lon="10.878204208179417"><ele>677.0</ele><time>2026-03-28T08:21:39.905Z</time></trkpt><trkpt lat="44.039023230224764" lon="10.878308485779208"><ele>677.0</ele><time>2026-03-28T08:21:42.905Z</time></trkpt><trkpt lat="44.03902690819053" lon="10.878409026844745"><ele>677.0</ele><time>2026-03-28T08:21:46.905Z</time></trkpt><trkpt lat="44.039026366923466" lon="10.878509371779566"><ele>677.0</ele><time>2026-03-28T08:21:49.905Z</time></trkpt><trkpt lat="44.03900470214026" lon="10.878604117437524"><ele>677.0</ele><time>2026-03-28T08:21:51.905Z</time></trkpt><trkpt lat="44.0389914797514" lon="10.878711060164331"><ele>677.0</ele><time>2026-03-28T08:21:53.905Z</time></trkpt><trkpt lat="44.03898372284282" lon="10.878844098531646"><ele>677.0</ele><time>2026-03-28T08:21:55.905Z</time></trkpt><trkpt lat="44.038956597465834" lon="10.878939039021427"><ele>677.0</ele><time>2026-03-28T08:21:58.905Z</time></trkpt><trkpt lat="44.038949963824145" lon="10.879082855718353"><ele>677.0</ele><time>2026-03-28T08:22:00.905Z</time></trkpt><trkpt lat="44.038955832658594" lon="10.87921369785875"><ele>675.8</ele><time>2026-03-28T08:22:02.905Z</time></trkpt><trkpt lat="44.03894593230466" lon="10.879374333051791"><ele>674.6</ele><time>2026-03-28T08:22:04.905Z</time></trkpt><trkpt lat="44.03894860393415" lon="10.879480766823168"><ele>673.4</ele><time>2026-03-28T08:22:05.905Z</time></trkpt><trkpt lat="44.03896729343213" lon="10.879627829220265"><ele>672.1999999999999</ele><time>2026-03-28T08:22:07.905Z</time></trkpt><trkpt lat="44.038973367050964" lon="10.879724341028474"><ele>671.0</ele><time>2026-03-28T08:22:08.905Z</time></trkpt><trkpt lat="44.0389656245759" lon="10.879864923799047"><ele>671.0</ele><time>2026-03-28T08:22:10.905Z</time></trkpt><trkpt lat="44.03897320801506" lon="10.879987902883371"><ele>671.0</ele><time>2026-03-28T08:22:11.905Z</time></trkpt><trkpt lat="44.0389927010728" lon="10.880097822632733"><ele>671.0</ele><time>2026-03-28T08:22:12.905Z</time></trkpt><trkpt lat="44.038977066524495" lon="10.880203489967187"><ele>671.0</ele><time>2026-03-28T08:22:13.905Z</time></trkpt><trkpt lat="44.038993604012276" lon="10.880313238878268"><ele>671.0</ele><time>2026-03-28T08:22:14.905Z</time></trkpt><trkpt lat="44.03897828131022" lon="10.880411056235037"><ele>671.0</ele><time>2026-03-28T08:22:15.905Z</time></trkpt><trkpt lat="44.03898560416625" lon="10.880597806825874"><ele>670.3333333333333</ele><time>2026-03-28T08:22:17.905Z</time></trkpt><trkpt lat="44.039001277839546" lon="10.880719500276943"><ele>669.6666666666666</ele><time>2026-03-28T08:22:18.905Z</time></trkpt><trkpt lat="44.03900725459541" lon="10.880832349913343"><ele>669.0</ele><time>2026-03-28T08:22:19.905Z</time></trkpt><trkpt lat="44.03901829837052" lon="10.880956973965809"><ele>668.3333333333334</ele><time>2026-03-28T08:22:20.905Z</time></trkpt><trkpt lat="44.039048140724105" lon="10.881055429351985"><ele>667.6666666666667</ele><time>2026-03-28T08:22:21.905Z</time></trkpt><trkpt lat="44.03908931607458" lon="10.881150067374243"><ele>667.0</ele><time>2026-03-28T08:22:22.905Z</time></trkpt><trkpt lat="44.03914215827099" lon="10.881222877216217"><ele>667.0</ele><time>2026-03-28T08:22:23.905Z</time></trkpt><trkpt lat="44.03919037674162" lon="10.881378119657718"><ele>667.0</ele><time>2026-03-28T08:22:25.905Z</time></trkpt><trkpt lat="44.0391976892661" lon="10.881555581004829"><ele>667.0</ele><time>2026-03-28T08:22:27.905Z</time></trkpt><trkpt lat="44.039190441565204" lon="10.881648858587226"><ele>667.0</ele><time>2026-03-28T08:22:28.905Z</time></trkpt><trkpt lat="44.039176970569585" lon="10.881781586728055"><ele>667.0</ele><time>2026-03-28T08:22:30.904Z</time></trkpt><trkpt lat="44.039181290175726" lon="10.881876917246567"><ele>665.8</ele><time>2026-03-28T08:22:31.904Z</time></trkpt><trkpt lat="44.03920562593671" lon="10.882044754964967"><ele>664.6</ele><time>2026-03-28T08:22:33.904Z</time></trkpt><trkpt lat="44.039222468283356" lon="10.882131366153795"><ele>663.4</ele><time>2026-03-28T08:22:34.904Z</time></trkpt><trkpt lat="44.03926458739746" lon="10.882287726725382"><ele>662.1999999999999</ele><time>2026-03-28T08:22:36.904Z</time></trkpt><trkpt lat="44.03929511310128" lon="10.882436941049756"><ele>661.0</ele><time>2026-03-28T08:22:38.904Z</time></trkpt><trkpt lat="44.03935817989568" lon="10.882515392177858"><ele>660.5</ele><time>2026-03-28T08:22:40.904Z</time></trkpt><trkpt lat="44.0393561352586" lon="10.882636851852642"><ele>660.0</ele><time>2026-03-28T08:22:42.904Z</time></trkpt><trkpt lat="44.03936007687154" lon="10.882728991136847"><ele>659.5</ele><time>2026-03-28T08:22:43.904Z</time></trkpt><trkpt lat="44.0394268348626" lon="10.882866515012187"><ele>659.0</ele><time>2026-03-28T08:22:45.904Z</time></trkpt><trkpt lat="44.039481171295925" lon="10.882948815926364"><ele>658.5</ele><time>2026-03-28T08:22:46.904Z</time></trkpt><trkpt lat="44.039555781017164" lon="10.883013603555753"><ele>658.0</ele><time>2026-03-28T08:22:48.904Z</time></trkpt><trkpt lat="44.03960978822849" lon="10.88306257239331"><ele>658.0</ele><time>2026-03-28T08:22:50.904Z</time></trkpt><trkpt lat="44.03963386625041" lon="10.883152828017254"><ele>658.0</ele><time>2026-03-28T08:22:52.904Z</time></trkpt><trkpt lat="44.0396557942935" lon="10.883257106409438"><ele>658.0</ele><time>2026-03-28T08:22:54.904Z</time></trkpt><trkpt lat="44.03966882142768" lon="10.883347967342747"><ele>658.0</ele><time>2026-03-28T08:22:56.904Z</time></trkpt><trkpt lat="44.0397018624721" lon="10.88344077813685"><ele>658.0</ele><time>2026-03-28T08:22:58.904Z</time></trkpt><trkpt lat="44.03975378727545" lon="10.883521516253072"><ele>658.0</ele><time>2026-03-28T08:23:00.904Z</time></trkpt><trkpt lat="44.03977178953207" lon="10.883640779535806"><ele>658.1666666666667</ele><time>2026-03-28T08:23:03.904Z</time></trkpt><trkpt lat="44.03977782982346" lon="10.8837328839648"><ele>658.3333333333334</ele><time>2026-03-28T08:23:05.904Z</time></trkpt><trkpt lat="44.039780196251684" lon="10.883842877190085"><ele>658.5</ele><time>2026-03-28T08:23:08.904Z</time></trkpt><trkpt lat="44.039812085285405" lon="10.883940523594015"><ele>658.6666666666666</ele><time>2026-03-28T08:23:11.904Z</time></trkpt><trkpt lat="44.03983187467485" lon="10.88404621463886"><ele>658.8333333333333</ele><time>2026-03-28T08:23:14.904Z</time></trkpt><trkpt lat="44.03986931290713" lon="10.88416569335559"><ele>659.0</ele><time>2026-03-28T08:23:17.904Z</time></trkpt><trkpt lat="44.039890148479344" lon="10.884248930092541"><ele>659.0</ele><time>2026-03-28T08:23:19.904Z</time></trkpt><trkpt lat="44.03991951756321" lon="10.884330794464496"><ele>659.0</ele><time>2026-03-28T08:23:21.904Z</time></trkpt><trkpt lat="44.039954291428195" lon="10.884431606547317"><ele>659.0</ele><time>2026-03-28T08:23:24.904Z</time></trkpt><trkpt lat="44.03997874749468" lon="10.884526000881124"><ele>659.0</ele><time>2026-03-28T08:23:26.904Z</time></trkpt><trkpt lat="44.04003363010848" lon="10.884574890078474"><ele>659.0</ele><time>2026-03-28T08:23:28.904Z</time></trkpt><trkpt lat="44.04006825206487" lon="10.884648840597132"><ele>659.0</ele><time>2026-03-28T08:23:30.904Z</time></trkpt><trkpt lat="44.04008971285464" lon="10.884774860830783"><ele>659.0</ele><time>2026-03-28T08:23:32.904Z</time></trkpt><trkpt lat="44.040107596054604" lon="10.884883021011824"><ele>658.8333333333333</ele><time>2026-03-28T08:23:35.904Z</time></trkpt><trkpt lat="44.040112053015456" lon="10.884977099652835"><ele>658.6666666666666</ele><time>2026-03-28T08:23:37.904Z</time></trkpt><trkpt lat="44.04013670488022" lon="10.88507424945682"><ele>658.5</ele><time>2026-03-28T08:23:39.904Z</time></trkpt><trkpt lat="44.04014853908526" lon="10.885173806919061"><ele>658.3333333333334</ele><time>2026-03-28T08:23:41.904Z</time></trkpt><trkpt lat="44.04018731745043" lon="10.88528726110998"><ele>658.1666666666667</ele><time>2026-03-28T08:23:43.904Z</time></trkpt><trkpt lat="44.04022970784515" lon="10.885407579815906"><ele>658.0</ele><time>2026-03-28T08:23:45.904Z</time></trkpt><trkpt lat="44.04025961320175" lon="10.885521697323028"><ele>658.0</ele><time>2026-03-28T08:23:47.904Z</time></trkpt><trkpt lat="44.040322175784496" lon="10.88564572056881"><ele>658.0</ele><time>2026-03-28T08:23:49.904Z</time></trkpt><trkpt lat="44.040386368927905" lon="10.885755016267595"><ele>658.0</ele><time>2026-03-28T08:23:51.904Z</time></trkpt><trkpt lat="44.04046575180252" lon="10.885821930690923"><ele>658.0</ele><time>2026-03-28T08:23:53.904Z</time></trkpt><trkpt lat="44.04055005082565" lon="10.885892180941974"><ele>658.0</ele><time>2026-03-28T08:23:55.903Z</time></trkpt><trkpt lat="44.04060255605783" lon="10.88596105792497"><ele>658.8333333333334</ele><time>2026-03-28T08:23:57.903Z</time></trkpt><trkpt lat="44.04066560470771" lon="10.886015776131712"><ele>659.6666666666667</ele><time>2026-03-28T08:23:59.903Z</time></trkpt><trkpt lat="44.04072175112648" lon="10.886077683667038"><ele>660.5</ele><time>2026-03-28T08:24:01.903Z</time></trkpt><trkpt lat="44.040798351813436" lon="10.886148187811466"><ele>661.3333333333334</ele><time>2026-03-28T08:24:03.903Z</time></trkpt><trkpt lat="44.04088072063967" lon="10.886223999082262"><ele>662.1666666666666</ele><time>2026-03-28T08:24:06.903Z</time></trkpt><trkpt lat="44.040958984960646" lon="10.886282640400566"><ele>663.0</ele><time>2026-03-28T08:24:08.903Z</time></trkpt><trkpt lat="44.04103681069111" lon="10.886317138308232"><ele>662.9999999999999</ele><time>2026-03-28T08:24:10.903Z</time></trkpt><trkpt lat="44.04111293110215" lon="10.886307596221753"><ele>663.0</ele><time>2026-03-28T08:24:12.903Z</time></trkpt><trkpt lat="44.04118093166405" lon="10.886332621174688"><ele>663.0</ele><time>2026-03-28T08:24:14.903Z</time></trkpt><trkpt lat="44.0412501324511" lon="10.886354492939313"><ele>663.0</ele><time>2026-03-28T08:24:16.903Z</time></trkpt><trkpt lat="44.0413209443746" lon="10.886401984854187"><ele>663.0</ele><time>2026-03-28T08:24:18.903Z</time></trkpt><trkpt lat="44.041358512958894" lon="10.886474304104727"><ele>662.9999999999999</ele><time>2026-03-28T08:24:20.903Z</time></trkpt><trkpt lat="44.04141846378826" lon="10.886534238936589"><ele>663.0</ele><time>2026-03-28T08:24:22.903Z</time></trkpt><trkpt lat="44.04147797764661" lon="10.886632957424387"><ele>663.0</ele><time>2026-03-28T08:24:24.903Z</time></trkpt><trkpt lat="44.04154368777745" lon="10.886731441788921"><ele>663.0</ele><time>2026-03-28T08:24:26.903Z</time></trkpt><trkpt lat="44.04161074213949" lon="10.886819539693642"><ele>663.0</ele><time>2026-03-28T08:24:28.903Z</time></trkpt><trkpt lat="44.04168892855925" lon="10.886933449784134"><ele>663.0</ele><time>2026-03-28T08:24:30.903Z</time></trkpt><trkpt lat="44.04173999387843" lon="10.886992349398849"><ele>663.0</ele><time>2026-03-28T08:24:31.903Z</time></trkpt><trkpt lat="44.04181791117134" lon="10.887104267867292"><ele>661.5999999999999</ele><time>2026-03-28T08:24:33.903Z</time></trkpt><trkpt lat="44.04186482363552" lon="10.887165037264126"><ele>660.1999999999999</ele><time>2026-03-28T08:24:34.903Z</time></trkpt><trkpt lat="44.04193440754758" lon="10.887271974937757"><ele>658.8</ele><time>2026-03-28T08:24:36.903Z</time></trkpt><trkpt lat="44.04199656918612" lon="10.887383286659317"><ele>657.4</ele><time>2026-03-28T08:24:38.903Z</time></trkpt><trkpt lat="44.042050032067706" lon="10.887432494442232"><ele>656.0</ele><time>2026-03-28T08:24:39.902Z</time></trkpt><trkpt lat="44.042139574209905" lon="10.887541153497864"><ele>657.0</ele><time>2026-03-28T08:24:41.903Z</time></trkpt><trkpt lat="44.04223347497087" lon="10.887634725490111"><ele>658.0</ele><time>2026-03-28T08:24:43.902Z</time></trkpt><trkpt lat="44.0422763154814" lon="10.887744534075543"><ele>659.0</ele><time>2026-03-28T08:24:45.902Z</time></trkpt><trkpt lat="44.04233887957361" lon="10.88784597240749"><ele>660.0</ele><time>2026-03-28T08:24:47.903Z</time></trkpt><trkpt lat="44.042384212073046" lon="10.887933793945791"><ele>661.0</ele><time>2026-03-28T08:24:49.903Z</time></trkpt><trkpt lat="44.042431232697346" lon="10.88803654975876"><ele>659.5999999999999</ele><time>2026-03-28T08:24:51.903Z</time></trkpt><trkpt lat="44.04250917621133" lon="10.888156363948248"><ele>658.2</ele><time>2026-03-28T08:24:53.903Z</time></trkpt><trkpt lat="44.04256629739417" lon="10.888293247095325"><ele>656.8</ele><time>2026-03-28T08:24:55.903Z</time></trkpt><trkpt lat="44.04262685204609" lon="10.88840105688429"><ele>655.4000000000001</ele><time>2026-03-28T08:24:57.903Z</time></trkpt><trkpt lat="44.04268118439326" lon="10.888524925576377"><ele>654.0</ele><time>2026-03-28T08:24:59.903Z</time></trkpt><trkpt lat="44.042698600904714" lon="10.888680282952519"><ele>653.6666666666666</ele><time>2026-03-28T08:25:01.903Z</time></trkpt><trkpt lat="44.04272819102102" lon="10.888805915302754"><ele>653.3333333333334</ele><time>2026-03-28T08:25:03.903Z</time></trkpt><trkpt lat="44.042770436549176" lon="10.888934224037866"><ele>653.0</ele><time>2026-03-28T08:25:05.903Z</time></trkpt><trkpt lat="44.04280173140989" lon="10.88905880590698"><ele>652.6666666666667</ele><time>2026-03-28T08:25:07.903Z</time></trkpt><trkpt lat="44.042824601553434" lon="10.889159690175907"><ele>652.3333333333334</ele><time>2026-03-28T08:25:09.903Z</time></trkpt><trkpt lat="44.04284781814743" lon="10.889264351182188"><ele>652.0</ele><time>2026-03-28T08:25:12.903Z</time></trkpt><trkpt lat="44.042851560721815" lon="10.889391620312436"><ele>652.0</ele><time>2026-03-28T08:25:15.903Z</time></trkpt><trkpt lat="44.04285403430709" lon="10.889491795093871"><ele>652.0</ele><time>2026-03-28T08:25:18.903Z</time></trkpt><trkpt lat="44.04283337685225" lon="10.889595715226978"><ele>652.0</ele><time>2026-03-28T08:25:21.903Z</time></trkpt><trkpt lat="44.04280569300031" lon="10.889695545611742"><ele>652.0</ele><time>2026-03-28T08:25:24.903Z</time></trkpt><trkpt lat="44.042785884582706" lon="10.889789967309596"><ele>652.0</ele><time>2026-03-28T08:25:27.903Z</time></trkpt><trkpt lat="44.04276851561505" lon="10.889888638100615"><ele>652.0</ele><time>2026-03-28T08:25:29.903Z</time></trkpt><trkpt lat="44.04277101506854" lon="10.889983574711584"><ele>652.0</ele><time>2026-03-28T08:25:31.903Z</time></trkpt><trkpt lat="44.04275047063153" lon="10.890086196965836"><ele>652.8571428571429</ele><time>2026-03-28T08:25:34.903Z</time></trkpt><trkpt lat="44.04271807126021" lon="10.890169691189927"><ele>653.7142857142857</ele><time>2026-03-28T08:25:37.903Z</time></trkpt><trkpt lat="44.04269109044098" lon="10.89027462833014"><ele>654.5714285714286</ele><time>2026-03-28T08:25:40.903Z</time></trkpt><trkpt lat="44.04273465555626" lon="10.890353404297178"><ele>655.4285714285714</ele><time>2026-03-28T08:25:44.902Z</time></trkpt><trkpt lat="44.04280810651676" lon="10.890344618607902"><ele>656.2857142857142</ele><time>2026-03-28T08:25:49.902Z</time></trkpt><trkpt lat="44.04287575845141" lon="10.890346327623678"><ele>657.1428571428571</ele><time>2026-03-28T08:25:58.902Z</time></trkpt><trkpt lat="44.04294485947912" lon="10.890388963854262"><ele>658.0</ele><time>2026-03-28T08:26:07.902Z</time></trkpt><trkpt lat="44.04299390039163" lon="10.890445433954966"><ele>658.0</ele><time>2026-03-28T08:26:11.902Z</time></trkpt><trkpt lat="44.04304971781751" lon="10.890501972837978"><ele>658.0</ele><time>2026-03-28T08:26:16.902Z</time></trkpt><trkpt lat="44.04313404486983" lon="10.890502075264873"><ele>658.0</ele><time>2026-03-28T08:26:23.902Z</time></trkpt><trkpt lat="44.04321290083777" lon="10.8905015428301"><ele>658.0</ele><time>2026-03-28T08:26:28.902Z</time></trkpt><trkpt lat="44.04327268269155" lon="10.890538185105546"><ele>658.0</ele><time>2026-03-28T08:26:33.902Z</time></trkpt><trkpt lat="44.043339373421695" lon="10.890531534501223"><ele>658.0</ele><time>2026-03-28T08:26:36.902Z</time></trkpt><trkpt lat="44.043428386427394" lon="10.890552585826685"><ele>661.7142857142857</ele><time>2026-03-28T08:26:41.901Z</time></trkpt><trkpt lat="44.04349460787948" lon="10.890550481098687"><ele>665.4285714285714</ele><time>2026-03-28T08:26:45.9Z</time></trkpt><trkpt lat="44.04356620427667" lon="10.8905644299238"><ele>669.1428571428571</ele><time>2026-03-28T08:26:49.9Z</time></trkpt><trkpt lat="44.04363267696417" lon="10.89055147320053"><ele>672.8571428571429</ele><time>2026-03-28T08:26:54.901Z</time></trkpt><trkpt lat="44.04367384502255" lon="10.890623945464405"><ele>676.5714285714286</ele><time>2026-03-28T08:27:00.901Z</time></trkpt><trkpt lat="44.043748036959244" lon="10.89060808554949"><ele>680.2857142857142</ele><time>2026-03-28T08:27:06.9Z</time></trkpt><trkpt lat="44.04380887225437" lon="10.890548590040533"><ele>684.0</ele><time>2026-03-28T08:27:13.9Z</time></trkpt><trkpt lat="44.04377298289427" lon="10.890472017188864"><ele>683.9999999999999</ele><time>2026-03-28T08:27:30.9Z</time></trkpt><trkpt lat="44.043695985451755" lon="10.890495317348426"><ele>684.0</ele><time>2026-03-28T08:27:38.9Z</time></trkpt><trkpt lat="44.04363644417259" lon="10.890558781782596"><ele>684.0</ele><time>2026-03-28T08:27:45.9Z</time></trkpt><trkpt lat="44.04359635792409" lon="10.890629808203592"><ele>684.0</ele><time>2026-03-28T08:27:51.9Z</time></trkpt><trkpt lat="44.04354581004701" lon="10.890687880146674"><ele>684.0</ele><time>2026-03-28T08:27:57.9Z</time></trkpt><trkpt lat="44.04349077741617" lon="10.890752167874565"><ele>683.9999999999999</ele><time>2026-03-28T08:28:03.9Z</time></trkpt><trkpt lat="44.04342403841905" lon="10.89078331348782"><ele>684.0</ele><time>2026-03-28T08:28:07.9Z</time></trkpt><trkpt lat="44.04335279603967" lon="10.890785433507306"><ele>680.7142857142857</ele><time>2026-03-28T08:28:11.9Z</time></trkpt><trkpt lat="44.04329663155087" lon="10.890828709487991"><ele>677.4285714285714</ele><time>2026-03-28T08:28:16.9Z</time></trkpt><trkpt lat="44.04324726863563" lon="10.890885750029481"><ele>674.1428571428571</ele><time>2026-03-28T08:28:21.9Z</time></trkpt><trkpt lat="44.04318604861159" lon="10.890914253040524"><ele>670.8571428571429</ele><time>2026-03-28T08:28:25.9Z</time></trkpt><trkpt lat="44.04311928939684" lon="10.89094938109892"><ele>667.5714285714286</ele><time>2026-03-28T08:28:29.9Z</time></trkpt><trkpt lat="44.043049229097214" lon="10.89099834707555"><ele>664.2857142857142</ele><time>2026-03-28T08:28:33.9Z</time></trkpt><trkpt lat="44.04300465390709" lon="10.891074942533711"><ele>661.0</ele><time>2026-03-28T08:28:38.9Z</time></trkpt><trkpt lat="44.0429731243575" lon="10.891161283016991"><ele>661.0</ele><time>2026-03-28T08:28:42.899Z</time></trkpt><trkpt lat="44.04292992625618" lon="10.891248116548377"><ele>661.0</ele><time>2026-03-28T08:28:47.899Z</time></trkpt><trkpt lat="44.04292709589406" lon="10.891348105874561"><ele>661.0</ele><time>2026-03-28T08:28:52.899Z</time></trkpt><trkpt lat="44.04294789563819" lon="10.891447072281128"><ele>661.0</ele><time>2026-03-28T08:28:57.899Z</time></trkpt><trkpt lat="44.042974718004196" lon="10.891545445994593"><ele>661.0</ele><time>2026-03-28T08:29:03.898Z</time></trkpt><trkpt lat="44.0430152046538" lon="10.891614513113742"><ele>661.0</ele><time>2026-03-28T08:29:09.898Z</time></trkpt><trkpt lat="44.04306093525532" lon="10.891698627253154"><ele>661.0</ele><time>2026-03-28T08:29:15.898Z</time></trkpt><trkpt lat="44.04310162497836" lon="10.89177739905216"><ele>659.4285714285714</ele><time>2026-03-28T08:29:20.898Z</time></trkpt><trkpt lat="44.04314299314842" lon="10.891845539309223"><ele>657.8571428571429</ele><time>2026-03-28T08:29:24.898Z</time></trkpt><trkpt lat="44.04320186268243" lon="10.891885181228448"><ele>656.2857142857142</ele><time>2026-03-28T08:29:28.898Z</time></trkpt><trkpt lat="44.04326010469914" lon="10.891925788252687"><ele>654.7142857142858</ele><time>2026-03-28T08:29:32.898Z</time></trkpt><trkpt lat="44.04331408054156" lon="10.89199259813089"><ele>653.1428571428572</ele><time>2026-03-28T08:29:36.898Z</time></trkpt><trkpt lat="44.04336055245434" lon="10.892052919634324"><ele>651.5714285714286</ele><time>2026-03-28T08:29:40.898Z</time></trkpt><trkpt lat="44.04341207567028" lon="10.892107087590443"><ele>650.0</ele><time>2026-03-28T08:29:43.898Z</time></trkpt><trkpt lat="44.043457915803366" lon="10.89218599474421"><ele>654.5</ele><time>2026-03-28T08:29:47.898Z</time></trkpt><trkpt lat="44.04352091368748" lon="10.89224643056502"><ele>659.0</ele><time>2026-03-28T08:29:50.898Z</time></trkpt><trkpt lat="44.043597790580144" lon="10.892303902380615"><ele>663.5</ele><time>2026-03-28T08:29:54.898Z</time></trkpt><trkpt lat="44.04365954543511" lon="10.892372714280537"><ele>668.0</ele><time>2026-03-28T08:29:57.898Z</time></trkpt><trkpt lat="44.043728039052574" lon="10.89244198137945"><ele>672.5</ele><time>2026-03-28T08:30:00.898Z</time></trkpt><trkpt lat="44.043771926500305" lon="10.89251422331594"><ele>677.0</ele><time>2026-03-28T08:30:02.898Z</time></trkpt><trkpt lat="44.04383328198923" lon="10.892579373190992"><ele>677.4285714285713</ele><time>2026-03-28T08:30:05.898Z</time></trkpt><trkpt lat="44.043899710659964" lon="10.892611472083122"><ele>677.8571428571429</ele><time>2026-03-28T08:30:08.898Z</time></trkpt><trkpt lat="44.04394289270237" lon="10.89267558082617"><ele>678.2857142857142</ele><time>2026-03-28T08:30:12.898Z</time></trkpt><trkpt lat="44.044009659266685" lon="10.892764489576575"><ele>678.7142857142857</ele><time>2026-03-28T08:30:16.898Z</time></trkpt><trkpt lat="44.0440728201212" lon="10.892825011169368"><ele>679.1428571428571</ele><time>2026-03-28T08:30:20.898Z</time></trkpt><trkpt lat="44.04412228985729" lon="10.892884381704441"><ele>679.5714285714286</ele><time>2026-03-28T08:30:24.898Z</time></trkpt><trkpt lat="44.04416285444015" lon="10.892966679602148"><ele>680.0</ele><time>2026-03-28T08:30:28.898Z</time></trkpt><trkpt lat="44.044234853408796" lon="10.893015504365431"><ele>680.0</ele><time>2026-03-28T08:30:32.898Z</time></trkpt><trkpt lat="44.044295888917084" lon="10.893054535306195"><ele>680.0</ele><time>2026-03-28T08:30:36.897Z</time></trkpt><trkpt lat="44.044373767912234" lon="10.893122729729722"><ele>680.0</ele><time>2026-03-28T08:30:39.897Z</time></trkpt><trkpt lat="44.04442920012166" lon="10.893175384772327"><ele>680.0</ele><time>2026-03-28T08:30:43.897Z</time></trkpt><trkpt lat="44.04449272341936" lon="10.893213380315723"><ele>680.0</ele><time>2026-03-28T08:30:46.897Z</time></trkpt><trkpt lat="44.04455968483933" lon="10.893229254071889"><ele>680.0</ele><time>2026-03-28T08:30:49.897Z</time></trkpt><trkpt lat="44.04464343289792" lon="10.893251625899643"><ele>680.0</ele><time>2026-03-28T08:30:54.897Z</time></trkpt><trkpt lat="44.04471800012254" lon="10.893282812017423"><ele>680.0</ele><time>2026-03-28T08:30:58.897Z</time></trkpt><trkpt lat="44.04478868567027" lon="10.89331646648608"><ele>680.0</ele><time>2026-03-28T08:31:01.896Z</time></trkpt><trkpt lat="44.04485744810117" lon="10.893319732755726"><ele>680.0</ele><time>2026-03-28T08:31:03.896Z</time></trkpt><trkpt lat="44.04493021874861" lon="10.893307072818384"><ele>680.0</ele><time>2026-03-28T08:31:06.897Z</time></trkpt><trkpt lat="44.04500446066018" lon="10.893270527873874"><ele>680.0</ele><time>2026-03-28T08:31:10.897Z</time></trkpt><trkpt lat="44.04508243234313" lon="10.89326405570936"><ele>680.0</ele><time>2026-03-28T08:31:14.897Z</time></trkpt><trkpt lat="44.04514945183337" lon="10.893300147989772"><ele>680.0</ele><time>2026-03-28T08:31:19.897Z</time></trkpt><trkpt lat="44.04520598044778" lon="10.89334896148989"><ele>680.1428571428572</ele><time>2026-03-28T08:31:25.897Z</time></trkpt><trkpt lat="44.045245932672806" lon="10.893443249777919"><ele>680.2857142857142</ele><time>2026-03-28T08:31:30.897Z</time></trkpt><trkpt lat="44.045316602515534" lon="10.893449554828072"><ele>680.4285714285714</ele><time>2026-03-28T08:31:33.897Z</time></trkpt><trkpt lat="44.045379017078794" lon="10.893466235215149"><ele>680.5714285714287</ele><time>2026-03-28T08:31:38.897Z</time></trkpt><trkpt lat="44.04544422875183" lon="10.893493725259646"><ele>680.7142857142858</ele><time>2026-03-28T08:31:47.897Z</time></trkpt><trkpt lat="44.04549206608784" lon="10.893577737536813"><ele>680.8571428571429</ele><time>2026-03-28T08:31:51.897Z</time></trkpt><trkpt lat="44.045545715543746" lon="10.893647856404796"><ele>681.0</ele><time>2026-03-28T08:31:54.897Z</time></trkpt><trkpt lat="44.04559986959544" lon="10.893714955972074"><ele>681.0</ele><time>2026-03-28T08:31:57.897Z</time></trkpt><trkpt lat="44.04565111356942" lon="10.893775880609008"><ele>681.0</ele><time>2026-03-28T08:31:59.897Z</time></trkpt><trkpt lat="44.045714307098365" lon="10.893852350563051"><ele>681.0</ele><time>2026-03-28T08:32:02.897Z</time></trkpt><trkpt lat="44.0457690826886" lon="10.893912610120971"><ele>681.0</ele><time>2026-03-28T08:32:05.896Z</time></trkpt><trkpt lat="44.04581407696275" lon="10.894029552148368"><ele>681.0</ele><time>2026-03-28T08:32:09.896Z</time></trkpt><trkpt lat="44.045863909212365" lon="10.89411497323912"><ele>681.0</ele><time>2026-03-28T08:32:12.896Z</time></trkpt><trkpt lat="44.04591666512969" lon="10.894189642062846"><ele>683.5</ele><time>2026-03-28T08:32:15.896Z</time></trkpt><trkpt lat="44.04599777804625" lon="10.89421903816784"><ele>686.0</ele><time>2026-03-28T08:32:19.896Z</time></trkpt><trkpt lat="44.046070067519864" lon="10.89426911462625"><ele>688.5</ele><time>2026-03-28T08:32:22.896Z</time></trkpt><trkpt lat="44.04613659371825" lon="10.894303875384336"><ele>691.0</ele><time>2026-03-28T08:32:26.896Z</time></trkpt><trkpt lat="44.046193576956476" lon="10.894378311372654"><ele>693.5</ele><time>2026-03-28T08:32:30.896Z</time></trkpt><trkpt lat="44.04625103109871" lon="10.894437906098291"><ele>696.0</ele><time>2026-03-28T08:32:35.896Z</time></trkpt><trkpt lat="44.04629714115197" lon="10.894519365012634"><ele>696.0</ele><time>2026-03-28T08:32:41.896Z</time></trkpt><trkpt lat="44.046386283686985" lon="10.894519648009021"><ele>696.0</ele><time>2026-03-28T08:32:45.896Z</time></trkpt><trkpt lat="44.0463841810207" lon="10.894420176249785"><ele>696.0</ele><time>2026-03-28T08:32:54.896Z</time></trkpt><trkpt lat="44.046361553433314" lon="10.894329276015483"><ele>696.0</ele><time>2026-03-28T08:32:59.895Z</time></trkpt><trkpt lat="44.04630695948233" lon="10.894257155810974"><ele>696.0</ele><time>2026-03-28T08:33:05.895Z</time></trkpt><trkpt lat="44.046246671625546" lon="10.89422070508017"><ele>696.0</ele><time>2026-03-28T08:33:11.895Z</time></trkpt><trkpt lat="44.04618808562996" lon="10.894177696128033"><ele>696.0</ele><time>2026-03-28T08:33:16.895Z</time></trkpt><trkpt lat="44.046126272710225" lon="10.894103718451374"><ele>698.2857142857142</ele><time>2026-03-28T08:33:22.895Z</time></trkpt><trkpt lat="44.04605164264425" lon="10.894053325345956"><ele>700.5714285714286</ele><time>2026-03-28T08:33:28.895Z</time></trkpt><trkpt lat="44.04599544867926" lon="10.893965662872887"><ele>702.8571428571429</ele><time>2026-03-28T08:33:31.895Z</time></trkpt><trkpt lat="44.045966030137095" lon="10.893877779121892"><ele>705.1428571428571</ele><time>2026-03-28T08:33:35.899Z</time></trkpt><trkpt lat="44.0459400671827" lon="10.89378682411798"><ele>707.4285714285714</ele><time>2026-03-28T08:33:39.905Z</time></trkpt><trkpt lat="44.045911425641854" lon="10.89369585913615"><ele>709.7142857142857</ele><time>2026-03-28T08:33:43.91Z</time></trkpt><trkpt lat="44.04587931238283" lon="10.893619483160581"><ele>712.0</ele><time>2026-03-28T08:33:47.913Z</time></trkpt><trkpt lat="44.045863572434584" lon="10.893519967955712"><ele>711.9999999999999</ele><time>2026-03-28T08:33:51.916Z</time></trkpt><trkpt lat="44.045834630529704" lon="10.89343485907441"><ele>712.0</ele><time>2026-03-28T08:33:57.918Z</time></trkpt><trkpt lat="44.04580838718377" lon="10.893354236372204"><ele>712.0</ele><time>2026-03-28T08:34:01.92Z</time></trkpt><trkpt lat="44.04577198126284" lon="10.893255527623866"><ele>712.0</ele><time>2026-03-28T08:34:04.921Z</time></trkpt><trkpt lat="44.04573178652705" lon="10.893145662992906"><ele>712.0</ele><time>2026-03-28T08:34:07.921Z</time></trkpt><trkpt lat="44.045703730346254" lon="10.893062077640852"><ele>711.9999999999999</ele><time>2026-03-28T08:34:10.922Z</time></trkpt><trkpt lat="44.045670229768156" lon="10.892968940331478"><ele>712.0</ele><time>2026-03-28T08:34:14.922Z</time></trkpt><trkpt lat="44.0456475464954" lon="10.892858412710195"><ele>711.8571428571428</ele><time>2026-03-28T08:34:21.923Z</time></trkpt><trkpt lat="44.04560138878632" lon="10.892786407404644"><ele>711.7142857142857</ele><time>2026-03-28T08:34:28.923Z</time></trkpt><trkpt lat="44.04554395229835" lon="10.892749568909217"><ele>711.5714285714286</ele><time>2026-03-28T08:34:38.924Z</time></trkpt><trkpt lat="44.045471887781375" lon="10.892736756792958"><ele>711.4285714285713</ele><time>2026-03-28T08:34:42.924Z</time></trkpt><trkpt lat="44.04538661621459" lon="10.89273182048252"><ele>711.2857142857142</ele><time>2026-03-28T08:34:47.924Z</time></trkpt><trkpt lat="44.045317802986126" lon="10.892723977251482"><ele>711.1428571428571</ele><time>2026-03-28T08:34:50.924Z</time></trkpt><trkpt lat="44.04525078783536" lon="10.89272839690539"><ele>711.0</ele><time>2026-03-28T08:34:53.924Z</time></trkpt><trkpt lat="44.04518319257637" lon="10.892707676378915"><ele>711.0</ele><time>2026-03-28T08:34:56.924Z</time></trkpt><trkpt lat="44.045113945879756" lon="10.892679744809318"><ele>711.0</ele><time>2026-03-28T08:35:00.924Z</time></trkpt><trkpt lat="44.045047141695576" lon="10.892601137859021"><ele>711.0</ele><time>2026-03-28T08:35:04.924Z</time></trkpt><trkpt lat="44.04497989131802" lon="10.89255467002657"><ele>711.0</ele><time>2026-03-28T08:35:08.923Z</time></trkpt><trkpt lat="44.04492901728223" lon="10.892493432776366"><ele>711.0</ele><time>2026-03-28T08:35:11.923Z</time></trkpt><trkpt lat="44.0448752904686" lon="10.892442479029839"><ele>711.0</ele><time>2026-03-28T08:35:14.923Z</time></trkpt><trkpt lat="44.04482163253834" lon="10.892370424907707"><ele>711.0</ele><time>2026-03-28T08:35:19.923Z</time></trkpt><trkpt lat="44.0447653868707" lon="10.892297236246725"><ele>712.0</ele><time>2026-03-28T08:35:22.923Z</time></trkpt><trkpt lat="44.04471710924755" lon="10.892222417359504"><ele>713.0</ele><time>2026-03-28T08:35:25.923Z</time></trkpt><trkpt lat="44.044688435940515" lon="10.892108567741802"><ele>714.0</ele><time>2026-03-28T08:35:29.923Z</time></trkpt><trkpt lat="44.04468016694155" lon="10.892016142192869"><ele>715.0</ele><time>2026-03-28T08:35:33.923Z</time></trkpt><trkpt lat="44.04472936812317" lon="10.89195347476111"><ele>716.0</ele><time>2026-03-28T08:35:38.923Z</time></trkpt><trkpt lat="44.04478500869714" lon="10.891900202587586"><ele>717.0</ele><time>2026-03-28T08:35:43.923Z</time></trkpt><trkpt lat="44.04484672193155" lon="10.891836171102034"><ele>718.0</ele><time>2026-03-28T08:35:48.923Z</time></trkpt><trkpt lat="44.04488835305444" lon="10.891769638486146"><ele>720.2857142857143</ele><time>2026-03-28T08:35:53.923Z</time></trkpt><trkpt lat="44.044952800771085" lon="10.891716878567276"><ele>722.5714285714287</ele><time>2026-03-28T08:35:59.923Z</time></trkpt><trkpt lat="44.044993647255666" lon="10.891644199105306"><ele>724.8571428571429</ele><time>2026-03-28T08:36:03.923Z</time></trkpt><trkpt lat="44.045055669559176" lon="10.891597496711992"><ele>727.1428571428571</ele><time>2026-03-28T08:36:07.923Z</time></trkpt><trkpt lat="44.04512578183069" lon="10.89156653636738"><ele>729.4285714285714</ele><time>2026-03-28T08:36:11.923Z</time></trkpt><trkpt lat="44.04518384743064" lon="10.89151857110872"><ele>731.7142857142857</ele><time>2026-03-28T08:36:15.923Z</time></trkpt><trkpt lat="44.045208813235455" lon="10.891432636325614"><ele>734.0</ele><time>2026-03-28T08:36:20.923Z</time></trkpt><trkpt lat="44.04523236121871" lon="10.891340085463225"><ele>737.5714285714286</ele><time>2026-03-28T08:36:25.923Z</time></trkpt><trkpt lat="44.045283176620714" lon="10.891276459773236"><ele>741.1428571428572</ele><time>2026-03-28T08:36:28.923Z</time></trkpt><trkpt lat="44.04534753664214" lon="10.89125845980542"><ele>744.7142857142858</ele><time>2026-03-28T08:36:31.923Z</time></trkpt><trkpt lat="44.04541192458138" lon="10.891278198685857"><ele>748.2857142857142</ele><time>2026-03-28T08:36:39.923Z</time></trkpt><trkpt lat="44.04544116797555" lon="10.891368800904429"><ele>751.8571428571429</ele><time>2026-03-28T08:36:48.923Z</time></trkpt><trkpt lat="44.04544995521566" lon="10.891456281135751"><ele>755.4285714285714</ele><time>2026-03-28T08:36:52.923Z</time></trkpt><trkpt lat="44.045480632261594" lon="10.891548755419851"><ele>759.0</ele><time>2026-03-28T08:36:55.923Z</time></trkpt><trkpt lat="44.045524162860815" lon="10.89162192921805"><ele>759.0</ele><time>2026-03-28T08:36:59.923Z</time></trkpt><trkpt lat="44.04558145456001" lon="10.891698281508976"><ele>759.0</ele><time>2026-03-28T08:37:05.923Z</time></trkpt><trkpt lat="44.0456368887405" lon="10.891773776247245"><ele>759.0</ele><time>2026-03-28T08:37:10.923Z</time></trkpt><trkpt lat="44.04569850173054" lon="10.891816361055392"><ele>759.0</ele><time>2026-03-28T08:37:14.922Z</time></trkpt><trkpt lat="44.04575743029947" lon="10.891848704076997"><ele>759.0</ele><time>2026-03-28T08:37:17.922Z</time></trkpt><trkpt lat="44.04582201427153" lon="10.891892747809523"><ele>759.0</ele><time>2026-03-28T08:37:21.922Z</time></trkpt><trkpt lat="44.04588638595639" lon="10.891949143030706"><ele>759.0</ele><time>2026-03-28T08:37:25.922Z</time></trkpt><trkpt lat="44.04594235307266" lon="10.892005791032837"><ele>759.4285714285714</ele><time>2026-03-28T08:37:30.922Z</time></trkpt><trkpt lat="44.04600480823869" lon="10.892065744815095"><ele>759.8571428571429</ele><time>2026-03-28T08:37:35.922Z</time></trkpt><trkpt lat="44.04608132887778" lon="10.892116874582044"><ele>760.2857142857142</ele><time>2026-03-28T08:37:41.921Z</time></trkpt><trkpt lat="44.0461449818013" lon="10.892160790981407"><ele>760.7142857142858</ele><time>2026-03-28T08:37:45.921Z</time></trkpt><trkpt lat="44.04621288088682" lon="10.892185848115107"><ele>761.1428571428572</ele><time>2026-03-28T08:37:50.921Z</time></trkpt><trkpt lat="44.04626247508421" lon="10.892242130785553"><ele>761.5714285714286</ele><time>2026-03-28T08:37:54.921Z</time></trkpt><trkpt lat="44.04631991078323" lon="10.89228476903114"><ele>762.0</ele><time>2026-03-28T08:37:58.921Z</time></trkpt><trkpt lat="44.04633178428257" lon="10.89237586666215"><ele>762.0</ele><time>2026-03-28T08:38:05.921Z</time></trkpt><trkpt lat="44.046367428620755" lon="10.892475469723932"><ele>762.0</ele><time>2026-03-28T08:38:09.921Z</time></trkpt><trkpt lat="44.04640743023028" lon="10.892561142592374"><ele>762.0</ele><time>2026-03-28T08:38:13.921Z</time></trkpt><trkpt lat="44.04645025498658" lon="10.892656049521824"><ele>762.0</ele><time>2026-03-28T08:38:16.921Z</time></trkpt><trkpt lat="44.046484595277704" lon="10.892730951322694"><ele>762.0</ele><time>2026-03-28T08:38:19.921Z</time></trkpt><trkpt lat="44.04653073168077" lon="10.892812517134002"><ele>762.0</ele><time>2026-03-28T08:38:23.921Z</time></trkpt><trkpt lat="44.04658176585554" lon="10.89288623196817"><ele>762.0</ele><time>2026-03-28T08:38:28.921Z</time></trkpt><trkpt lat="44.04665195668209" lon="10.892942903691479"><ele>764.1428571428571</ele><time>2026-03-28T08:38:32.921Z</time></trkpt><trkpt lat="44.04670858303518" lon="10.893019246637405"><ele>766.2857142857143</ele><time>2026-03-28T08:38:36.921Z</time></trkpt><trkpt lat="44.0467605408481" lon="10.89307688045052"><ele>768.4285714285714</ele><time>2026-03-28T08:38:40.921Z</time></trkpt><trkpt lat="44.04680880414897" lon="10.893153429801153"><ele>770.5714285714286</ele><time>2026-03-28T08:38:44.921Z</time></trkpt><trkpt lat="44.046858286259784" lon="10.893208998435838"><ele>772.7142857142858</ele><time>2026-03-28T08:38:48.921Z</time></trkpt><trkpt lat="44.04692698220931" lon="10.893245489493795"><ele>774.8571428571429</ele><time>2026-03-28T08:38:51.921Z</time></trkpt><trkpt lat="44.0469933618936" lon="10.89329584302533"><ele>777.0</ele><time>2026-03-28T08:38:55.921Z</time></trkpt><trkpt lat="44.04705392746629" lon="10.893363748878224"><ele>778.8571428571429</ele><time>2026-03-28T08:38:59.921Z</time></trkpt><trkpt lat="44.04709965370593" lon="10.89343822787529"><ele>780.7142857142858</ele><time>2026-03-28T08:39:03.921Z</time></trkpt><trkpt lat="44.04716892466109" lon="10.893445516219828"><ele>782.5714285714286</ele><time>2026-03-28T08:39:06.921Z</time></trkpt><trkpt lat="44.047226202275105" lon="10.893523275635385"><ele>784.4285714285714</ele><time>2026-03-28T08:39:11.921Z</time></trkpt><trkpt lat="44.04729421799463" lon="10.89353589365857"><ele>786.2857142857143</ele><time>2026-03-28T08:39:15.921Z</time></trkpt><trkpt lat="44.047344308043" lon="10.893593308425086"><ele>788.1428571428571</ele><time>2026-03-28T08:39:18.92Z</time></trkpt><trkpt lat="44.047402799011685" lon="10.893627370213482"><ele>790.0</ele><time>2026-03-28T08:39:22.92Z</time></trkpt><trkpt lat="44.04746649619621" lon="10.893621190709164"><ele>790.0</ele><time>2026-03-28T08:39:26.92Z</time></trkpt><trkpt lat="44.047540839153385" lon="10.893666698385209"><ele>790.0</ele><time>2026-03-28T08:39:31.92Z</time></trkpt><trkpt lat="44.047608024442276" lon="10.89365479778019"><ele>790.0</ele><time>2026-03-28T08:39:35.92Z</time></trkpt><trkpt lat="44.047683316871606" lon="10.89367791015277"><ele>790.0</ele><time>2026-03-28T08:39:41.92Z</time></trkpt><trkpt lat="44.04774269650907" lon="10.893707467773975"><ele>790.0</ele><time>2026-03-28T08:39:44.92Z</time></trkpt><trkpt lat="44.04779451981673" lon="10.893765720320449"><ele>790.0</ele><time>2026-03-28T08:39:47.92Z</time></trkpt><trkpt lat="44.04786575122917" lon="10.893838689784486"><ele>790.0</ele><time>2026-03-28T08:39:52.92Z</time></trkpt><trkpt lat="44.047916675921414" lon="10.893922464257543"><ele>790.0</ele><time>2026-03-28T08:39:56.92Z</time></trkpt><trkpt lat="44.04796473231769" lon="10.893994266374357"><ele>790.0</ele><time>2026-03-28T08:39:59.92Z</time></trkpt><trkpt lat="44.04803870305511" lon="10.894045666211932"><ele>790.0</ele><time>2026-03-28T08:40:02.92Z</time></trkpt><trkpt lat="44.048040825284296" lon="10.893949818559822"><ele>790.0</ele><time>2026-03-28T08:40:17.92Z</time></trkpt><trkpt lat="44.048018750331764" lon="10.893861331958792"><ele>790.0</ele><time>2026-03-28T08:40:23.92Z</time></trkpt><trkpt lat="44.04799986660176" lon="10.893772881341505"><ele>790.0</ele><time>2026-03-28T08:40:29.92Z</time></trkpt><trkpt lat="44.04799988915458" lon="10.893668199996968"><ele>790.0</ele><time>2026-03-28T08:40:34.92Z</time></trkpt><trkpt lat="44.04799118463196" lon="10.893560731789725"><ele>790.0</ele><time>2026-03-28T08:40:39.92Z</time></trkpt><trkpt lat="44.047972142583085" lon="10.893442112809996"><ele>790.0</ele><time>2026-03-28T08:40:44.92Z</time></trkpt><trkpt lat="44.047946785195904" lon="10.893344947695578"><ele>790.0</ele><time>2026-03-28T08:40:48.92Z</time></trkpt><trkpt lat="44.04793222365665" lon="10.893253035673197"><ele>790.0</ele><time>2026-03-28T08:40:51.92Z</time></trkpt><trkpt lat="44.047905611420255" lon="10.89315709330413"><ele>790.0</ele><time>2026-03-28T08:40:55.92Z</time></trkpt><trkpt lat="44.04791370970758" lon="10.893062453433991"><ele>790.0</ele><time>2026-03-28T08:41:00.92Z</time></trkpt><trkpt lat="44.04789986591124" lon="10.892962757128043"><ele>790.0</ele><time>2026-03-28T08:41:05.92Z</time></trkpt><trkpt lat="44.047841459749456" lon="10.892888119201972"><ele>794.4285714285714</ele><time>2026-03-28T08:41:11.92Z</time></trkpt><trkpt lat="44.04780058594236" lon="10.892819941985609"><ele>798.8571428571429</ele><time>2026-03-28T08:41:16.92Z</time></trkpt><trkpt lat="44.04776374924116" lon="10.892744782354038"><ele>803.2857142857143</ele><time>2026-03-28T08:41:18.92Z</time></trkpt><trkpt lat="44.047722831394516" lon="10.89266866797178"><ele>807.7142857142858</ele><time>2026-03-28T08:41:21.92Z</time></trkpt><trkpt lat="44.0476670747127" lon="10.892582425478839"><ele>812.1428571428571</ele><time>2026-03-28T08:41:24.919Z</time></trkpt><trkpt lat="44.04761381555363" lon="10.892509808833196"><ele>816.5714285714287</ele><time>2026-03-28T08:41:28.919Z</time></trkpt><trkpt lat="44.047559875804865" lon="10.892414951667597"><ele>821.0</ele><time>2026-03-28T08:41:32.919Z</time></trkpt><trkpt lat="44.04751049525195" lon="10.892321045756551"><ele>824.7142857142858</ele><time>2026-03-28T08:41:36.919Z</time></trkpt><trkpt lat="44.04748867410252" lon="10.892223214875703"><ele>828.4285714285714</ele><time>2026-03-28T08:41:40.919Z</time></trkpt><trkpt lat="44.047499522087364" lon="10.892136380765102"><ele>832.1428571428571</ele><time>2026-03-28T08:41:44.919Z</time></trkpt><trkpt lat="44.04752891908363" lon="10.89203458892689"><ele>835.8571428571429</ele><time>2026-03-28T08:41:48.919Z</time></trkpt><trkpt lat="44.04757939125167" lon="10.891946244695347"><ele>839.5714285714286</ele><time>2026-03-28T08:41:52.919Z</time></trkpt><trkpt lat="44.04762544771628" lon="10.891881351593002"><ele>843.2857142857143</ele><time>2026-03-28T08:41:56.919Z</time></trkpt><trkpt lat="44.04768444972674" lon="10.891838843567813"><ele>847.0</ele><time>2026-03-28T08:42:00.919Z</time></trkpt><trkpt lat="44.04775065371956" lon="10.891812730964729"><ele>847.0</ele><time>2026-03-28T08:42:04.919Z</time></trkpt><trkpt lat="44.04781424790086" lon="10.891803590165702"><ele>847.0</ele><time>2026-03-28T08:42:09.919Z</time></trkpt><trkpt lat="44.047874248628695" lon="10.891831672134728"><ele>847.0</ele><time>2026-03-28T08:42:12.919Z</time></trkpt><trkpt lat="44.0479426964669" lon="10.891860015778494"><ele>847.0</ele><time>2026-03-28T08:42:16.919Z</time></trkpt><trkpt lat="44.04800283311068" lon="10.891892300785436"><ele>847.0</ele><time>2026-03-28T08:42:19.919Z</time></trkpt><trkpt lat="44.04806396383819" lon="10.891913958609825"><ele>847.0</ele><time>2026-03-28T08:42:23.919Z</time></trkpt><trkpt lat="44.04813592752101" lon="10.891914512490583"><ele>847.0</ele><time>2026-03-28T08:42:28.919Z</time></trkpt><trkpt lat="44.04821002977" lon="10.8919347598531"><ele>847.0</ele><time>2026-03-28T08:42:32.919Z</time></trkpt><trkpt lat="44.04825386575881" lon="10.891869895714448"><ele>847.0</ele><time>2026-03-28T08:42:38.919Z</time></trkpt><trkpt lat="44.048301820898544" lon="10.891800822361578"><ele>847.0</ele><time>2026-03-28T08:42:44.919Z</time></trkpt><trkpt lat="44.04834584153242" lon="10.89172091064276"><ele>847.0</ele><time>2026-03-28T08:42:49.919Z</time></trkpt><trkpt lat="44.04840316181801" lon="10.891662083511072"><ele>847.0</ele><time>2026-03-28T08:42:53.919Z</time></trkpt><trkpt lat="44.04846335569676" lon="10.891615618464021"><ele>847.0</ele><time>2026-03-28T08:42:56.919Z</time></trkpt><trkpt lat="44.04854908943471" lon="10.891595613179131"><ele>847.0</ele><time>2026-03-28T08:43:00.918Z</time></trkpt><trkpt lat="44.04861852490298" lon="10.891556756040707"><ele>848.5714285714286</ele><time>2026-03-28T08:43:03.918Z</time></trkpt><trkpt lat="44.04868487471886" lon="10.891533927156948"><ele>850.1428571428571</ele><time>2026-03-28T08:43:06.918Z</time></trkpt><trkpt lat="44.04876213453036" lon="10.891520303684102"><ele>851.7142857142858</ele><time>2026-03-28T08:43:09.918Z</time></trkpt><trkpt lat="44.048849351791596" lon="10.891487665027954"><ele>853.2857142857142</ele><time>2026-03-28T08:43:12.918Z</time></trkpt><trkpt lat="44.04891622063354" lon="10.891458669880034"><ele>854.8571428571429</ele><time>2026-03-28T08:43:16.918Z</time></trkpt><trkpt lat="44.04897811051741" lon="10.891423746295446"><ele>856.4285714285714</ele><time>2026-03-28T08:43:20.918Z</time></trkpt><trkpt lat="44.04903556089924" lon="10.89138245404756"><ele>858.0</ele><time>2026-03-28T08:43:24.918Z</time></trkpt><trkpt lat="44.04908845125164" lon="10.891325605938693"><ele>858.1666666666666</ele><time>2026-03-28T08:43:28.918Z</time></trkpt><trkpt lat="44.049132921943" lon="10.891237132657"><ele>858.3333333333333</ele><time>2026-03-28T08:43:32.917Z</time></trkpt><trkpt lat="44.049164799347345" lon="10.891154151071941"><ele>858.5</ele><time>2026-03-28T08:43:36.917Z</time></trkpt><trkpt lat="44.04921492549104" lon="10.891076922937"><ele>858.6666666666666</ele><time>2026-03-28T08:43:40.918Z</time></trkpt><trkpt lat="44.04926597066888" lon="10.890994266018158"><ele>858.8333333333333</ele><time>2026-03-28T08:43:44.917Z</time></trkpt><trkpt lat="44.04932379897606" lon="10.890913438776805"><ele>859.0</ele><time>2026-03-28T08:43:48.917Z</time></trkpt><trkpt lat="44.049387101381626" lon="10.890852385600079"><ele>858.9999999999999</ele><time>2026-03-28T08:43:51.917Z</time></trkpt><trkpt lat="44.049434753630955" lon="10.890791715813883"><ele>859.0</ele><time>2026-03-28T08:43:54.917Z</time></trkpt><trkpt lat="44.04949846118391" lon="10.890734934921005"><ele>859.0</ele><time>2026-03-28T08:43:57.917Z</time></trkpt><trkpt lat="44.04953970176256" lon="10.890661990145722"><ele>859.0</ele><time>2026-03-28T08:44:02.917Z</time></trkpt><trkpt lat="44.04957314914051" lon="10.890556909118203"><ele>859.0</ele><time>2026-03-28T08:44:06.917Z</time></trkpt><trkpt lat="44.04961939244811" lon="10.890466291863019"><ele>858.9999999999999</ele><time>2026-03-28T08:44:09.917Z</time></trkpt><trkpt lat="44.04966270935736" lon="10.890399204933617"><ele>859.0</ele><time>2026-03-28T08:44:12.917Z</time></trkpt><trkpt lat="44.04970280660403" lon="10.890322677600112"><ele>858.9999999999999</ele><time>2026-03-28T08:44:20.917Z</time></trkpt><trkpt lat="44.04975248831498" lon="10.890264190594696"><ele>859.0</ele><time>2026-03-28T08:44:30.917Z</time></trkpt><trkpt lat="44.04984655744148" lon="10.890222239026278"><ele>859.0</ele><time>2026-03-28T08:45:01.917Z</time></trkpt><trkpt lat="44.04994901814361" lon="10.890197411174391"><ele>859.0</ele><time>2026-03-28T08:45:23.916Z</time></trkpt><trkpt lat="44.04988318051942" lon="10.89018579692619"><ele>858.9999999999999</ele><time>2026-03-28T08:45:32.916Z</time></trkpt><trkpt lat="44.04981153317509" lon="10.890184644384776"><ele>859.0</ele><time>2026-03-28T08:47:03.915Z</time></trkpt><trkpt lat="44.04974743539345" lon="10.890215882230859"><ele>858.9999999999999</ele><time>2026-03-28T08:47:10.915Z</time></trkpt><trkpt lat="44.049702763431675" lon="10.89029416518336"><ele>859.0</ele><time>2026-03-28T08:47:14.915Z</time></trkpt><trkpt lat="44.04965790028052" lon="10.890388921950768"><ele>859.0</ele><time>2026-03-28T08:47:19.915Z</time></trkpt><trkpt lat="44.04960174745487" lon="10.890449433071495"><ele>859.0</ele><time>2026-03-28T08:47:23.915Z</time></trkpt><trkpt lat="44.049539782955634" lon="10.890528789317285"><ele>858.9999999999999</ele><time>2026-03-28T08:47:29.915Z</time></trkpt><trkpt lat="44.0495492453613" lon="10.890626033724041"><ele>859.0</ele><time>2026-03-28T08:47:36.915Z</time></trkpt><trkpt lat="44.04961048427792" lon="10.890677619270125"><ele>858.9999999999999</ele><time>2026-03-28T08:47:43.915Z</time></trkpt><trkpt lat="44.04967571954024" lon="10.89068428815432"><ele>859.0</ele><time>2026-03-28T08:47:46.915Z</time></trkpt><trkpt lat="44.04974787634981" lon="10.890656178101484"><ele>859.0</ele><time>2026-03-28T08:47:52.914Z</time></trkpt><trkpt lat="44.049824552755304" lon="10.89062722281041"><ele>859.0</ele><time>2026-03-28T08:47:58.914Z</time></trkpt><trkpt lat="44.049884322864465" lon="10.890573747658799"><ele>859.0</ele><time>2026-03-28T08:48:03.914Z</time></trkpt><trkpt lat="44.049935647755234" lon="10.890515278298803"><ele>858.9999999999999</ele><time>2026-03-28T08:48:08.914Z</time></trkpt><trkpt lat="44.0499846240396" lon="10.890443016145777"><ele>859.0</ele><time>2026-03-28T08:48:13.914Z</time></trkpt><trkpt lat="44.05005198901532" lon="10.890399737925215"><ele>862.1428571428571</ele><time>2026-03-28T08:48:18.914Z</time></trkpt><trkpt lat="44.050118952909756" lon="10.89041357234636"><ele>865.2857142857142</ele><time>2026-03-28T08:48:22.914Z</time></trkpt><trkpt lat="44.05020151145141" lon="10.890420011693626"><ele>868.4285714285713</ele><time>2026-03-28T08:48:26.914Z</time></trkpt><trkpt lat="44.050268521056836" lon="10.890424895853034"><ele>871.5714285714286</ele><time>2026-03-28T08:48:31.914Z</time></trkpt><trkpt lat="44.05033667951097" lon="10.890410132692272"><ele>874.7142857142858</ele><time>2026-03-28T08:48:36.914Z</time></trkpt><trkpt lat="44.05040076998596" lon="10.890395021100465"><ele>877.8571428571428</ele><time>2026-03-28T08:48:40.914Z</time></trkpt><trkpt lat="44.05046979173722" lon="10.890381710556722"><ele>881.0</ele><time>2026-03-28T08:48:48.914Z</time></trkpt><trkpt lat="44.05051575795503" lon="10.890300141905145"><ele>881.0000000000001</ele><time>2026-03-28T08:48:57.914Z</time></trkpt><trkpt lat="44.05054771733363" lon="10.890214313843238"><ele>881.0</ele><time>2026-03-28T08:49:01.914Z</time></trkpt><trkpt lat="44.050574215540934" lon="10.890114232716122"><ele>881.0</ele><time>2026-03-28T08:49:06.914Z</time></trkpt><trkpt lat="44.0505995001819" lon="10.890014529752351"><ele>881.0</ele><time>2026-03-28T08:49:09.914Z</time></trkpt><trkpt lat="44.050634847201444" lon="10.889904568463633"><ele>881.0000000000001</ele><time>2026-03-28T08:49:13.914Z</time></trkpt><trkpt lat="44.050655613201975" lon="10.889813522538786"><ele>881.0</ele><time>2026-03-28T08:49:16.914Z</time></trkpt><trkpt lat="44.05068315242567" lon="10.889715495972391"><ele>882.8571428571428</ele><time>2026-03-28T08:49:21.914Z</time></trkpt><trkpt lat="44.050724414151425" lon="10.889638343690132"><ele>884.7142857142858</ele><time>2026-03-28T08:49:25.914Z</time></trkpt><trkpt lat="44.050778135204794" lon="10.88955224292021"><ele>886.5714285714286</ele><time>2026-03-28T08:49:28.914Z</time></trkpt><trkpt lat="44.05083725619328" lon="10.889493696763955"><ele>888.4285714285713</ele><time>2026-03-28T08:49:32.914Z</time></trkpt><trkpt lat="44.050896433160695" lon="10.889437807230282"><ele>890.2857142857142</ele><time>2026-03-28T08:49:36.914Z</time></trkpt><trkpt lat="44.05093283116397" lon="10.889365713380682"><ele>892.1428571428571</ele><time>2026-03-28T08:49:41.914Z</time></trkpt><trkpt lat="44.050960724084575" lon="10.88927949775082"><ele>894.0</ele><time>2026-03-28T08:49:44.914Z</time></trkpt><trkpt lat="44.05099601459158" lon="10.889198587687703"><ele>893.9999999999999</ele><time>2026-03-28T08:49:47.914Z</time></trkpt><trkpt lat="44.051022496981034" lon="10.889102623537743"><ele>894.0</ele><time>2026-03-28T08:49:52.913Z</time></trkpt><trkpt lat="44.051037859303335" lon="10.889010418913045"><ele>894.0</ele><time>2026-03-28T08:49:56.915Z</time></trkpt><trkpt lat="44.051057398899744" lon="10.888923765596605"><ele>894.0</ele><time>2026-03-28T08:50:00.917Z</time></trkpt><trkpt lat="44.05111209420647" lon="10.888843741237777"><ele>894.0</ele><time>2026-03-28T08:50:04.918Z</time></trkpt><trkpt lat="44.05115221545433" lon="10.888748094652042"><ele>893.9999999999999</ele><time>2026-03-28T08:50:08.919Z</time></trkpt><trkpt lat="44.05120587140843" lon="10.888680642663084"><ele>894.0</ele><time>2026-03-28T08:50:12.92Z</time></trkpt><trkpt lat="44.05124737014613" lon="10.888607249848748"><ele>893.9999999999999</ele><time>2026-03-28T08:50:16.921Z</time></trkpt><trkpt lat="44.05129523719613" lon="10.888514082183667"><ele>894.0</ele><time>2026-03-28T08:50:21.921Z</time></trkpt><trkpt lat="44.05135744135295" lon="10.888454251488387"><ele>894.0</ele><time>2026-03-28T08:50:25.922Z</time></trkpt><trkpt lat="44.0514132279792" lon="10.888399191640348"><ele>894.0</ele><time>2026-03-28T08:50:29.922Z</time></trkpt><trkpt lat="44.051483376149456" lon="10.88836954243624"><ele>894.0</ele><time>2026-03-28T08:50:33.922Z</time></trkpt><trkpt lat="44.05153795783544" lon="10.888322225658381"><ele>893.9999999999999</ele><time>2026-03-28T08:50:37.922Z</time></trkpt><trkpt lat="44.05160028855272" lon="10.88825151578014"><ele>894.0</ele><time>2026-03-28T08:50:40.922Z</time></trkpt><trkpt lat="44.05168148433569" lon="10.88821209878649"><ele>897.5714285714284</ele><time>2026-03-28T08:50:44.923Z</time></trkpt><trkpt lat="44.05173978519911" lon="10.88817860431013"><ele>901.1428571428571</ele><time>2026-03-28T08:50:48.923Z</time></trkpt><trkpt lat="44.051817256106794" lon="10.888125805603684"><ele>904.7142857142857</ele><time>2026-03-28T08:50:53.923Z</time></trkpt><trkpt lat="44.051888750249276" lon="10.888098619710151"><ele>908.2857142857142</ele><time>2026-03-28T08:50:57.923Z</time></trkpt><trkpt lat="44.05195405913451" lon="10.888087859775741"><ele>911.8571428571428</ele><time>2026-03-28T08:51:02.923Z</time></trkpt><trkpt lat="44.05202621710297" lon="10.888124289113692"><ele>915.4285714285713</ele><time>2026-03-28T08:51:09.923Z</time></trkpt><trkpt lat="44.05209249359899" lon="10.88810747993532"><ele>919.0</ele><time>2026-03-28T08:51:15.923Z</time></trkpt><trkpt lat="44.05215960273353" lon="10.888102286859086"><ele>919.0</ele><time>2026-03-28T08:51:20.923Z</time></trkpt><trkpt lat="44.05222279482654" lon="10.888087774671222"><ele>918.9999999999999</ele><time>2026-03-28T08:51:25.923Z</time></trkpt><trkpt lat="44.05228412262567" lon="10.888132244638754"><ele>919.0</ele><time>2026-03-28T08:51:31.923Z</time></trkpt><trkpt lat="44.05235091003867" lon="10.888094877872655"><ele>919.0</ele><time>2026-03-28T08:51:49.923Z</time></trkpt><trkpt lat="44.05242378452277" lon="10.888039129374143"><ele>918.9999999999999</ele><time>2026-03-28T08:51:53.922Z</time></trkpt><trkpt lat="44.052483695385256" lon="10.887990144037756"><ele>919.0</ele><time>2026-03-28T08:51:56.922Z</time></trkpt><trkpt lat="44.05253514517712" lon="10.887931682762872"><ele>919.0</ele><time>2026-03-28T08:52:00.921Z</time></trkpt><trkpt lat="44.052597206940106" lon="10.887869379721351"><ele>920.4285714285713</ele><time>2026-03-28T08:52:04.922Z</time></trkpt><trkpt lat="44.05264405367817" lon="10.887792352181432"><ele>921.8571428571428</ele><time>2026-03-28T08:52:09.922Z</time></trkpt><trkpt lat="44.052664365424725" lon="10.887709434640982"><ele>923.2857142857142</ele><time>2026-03-28T08:52:16.922Z</time></trkpt><trkpt lat="44.05266420951146" lon="10.88761530746313"><ele>924.7142857142858</ele><time>2026-03-28T08:52:20.922Z</time></trkpt><trkpt lat="44.05265929703617" lon="10.887515929493864"><ele>926.1428571428572</ele><time>2026-03-28T08:52:26.922Z</time></trkpt><trkpt lat="44.05265254612122" lon="10.887405281102707"><ele>927.5714285714287</ele><time>2026-03-28T08:52:30.922Z</time></trkpt><trkpt lat="44.052651665083474" lon="10.887289942739427"><ele>929.0</ele><time>2026-03-28T08:52:35.922Z</time></trkpt><trkpt lat="44.0526281430041" lon="10.88718236367456"><ele>929.0</ele><time>2026-03-28T08:52:39.922Z</time></trkpt><trkpt lat="44.052605584951976" lon="10.887098322595792"><ele>929.0000000000001</ele><time>2026-03-28T08:52:42.922Z</time></trkpt><trkpt lat="44.052594052052584" lon="10.887001850243953"><ele>929.0</ele><time>2026-03-28T08:52:45.922Z</time></trkpt><trkpt lat="44.05259938655229" lon="10.886909764497185"><ele>929.0</ele><time>2026-03-28T08:52:49.922Z</time></trkpt><trkpt lat="44.052572768733086" lon="10.886816188625078"><ele>929.0000000000001</ele><time>2026-03-28T08:52:52.922Z</time></trkpt><trkpt lat="44.05255539056268" lon="10.886707100443028"><ele>929.0</ele><time>2026-03-28T08:52:56.922Z</time></trkpt><trkpt lat="44.052538596667674" lon="10.886594362459448"><ele>929.0</ele><time>2026-03-28T08:53:00.922Z</time></trkpt><trkpt lat="44.052517963516586" lon="10.88649918997878"><ele>930.0</ele><time>2026-03-28T08:53:04.922Z</time></trkpt><trkpt lat="44.05251246028752" lon="10.886408557120983"><ele>931.0000000000001</ele><time>2026-03-28T08:53:08.922Z</time></trkpt><trkpt lat="44.05250601540146" lon="10.886307613638749"><ele>932.0</ele><time>2026-03-28T08:53:12.922Z</time></trkpt><trkpt lat="44.05253713518431" lon="10.886230224720165"><ele>933.0</ele><time>2026-03-28T08:53:15.922Z</time></trkpt><trkpt lat="44.05258030339928" lon="10.886124066558677"><ele>934.0000000000001</ele><time>2026-03-28T08:53:20.922Z</time></trkpt><trkpt lat="44.052631701542836" lon="10.886053498250128"><ele>935.0</ele><time>2026-03-28T08:53:23.922Z</time></trkpt><trkpt lat="44.05269199725" lon="10.885985918672949"><ele>936.0</ele><time>2026-03-28T08:53:27.922Z</time></trkpt><trkpt lat="44.05273868161377" lon="10.885903958975614"><ele>936.0</ele><time>2026-03-28T08:53:30.922Z</time></trkpt><trkpt lat="44.05279833487803" lon="10.885852174767644"><ele>936.0000000000001</ele><time>2026-03-28T08:53:33.922Z</time></trkpt><trkpt lat="44.05285254339326" lon="10.885767433475403"><ele>936.0</ele><time>2026-03-28T08:53:37.922Z</time></trkpt><trkpt lat="44.05291015230784" lon="10.885714631167533"><ele>936.0</ele><time>2026-03-28T08:53:40.922Z</time></trkpt><trkpt lat="44.052964590804855" lon="10.885660878419907"><ele>936.0000000000001</ele><time>2026-03-28T08:53:43.922Z</time></trkpt><trkpt lat="44.05301978273608" lon="10.88561177026472"><ele>936.0</ele><time>2026-03-28T08:53:46.922Z</time></trkpt><trkpt lat="44.05308032925826" lon="10.885565494505556"><ele>936.0</ele><time>2026-03-28T08:53:50.921Z</time></trkpt><trkpt lat="44.05315607748178" lon="10.885525744667687"><ele>936.0</ele><time>2026-03-28T08:53:53.921Z</time></trkpt><trkpt lat="44.05321930586023" lon="10.885485756099342"><ele>936.0000000000001</ele><time>2026-03-28T08:53:56.921Z</time></trkpt><trkpt lat="44.05329192165018" lon="10.885443767236724"><ele>936.0</ele><time>2026-03-28T08:54:00.92Z</time></trkpt><trkpt lat="44.053353051929825" lon="10.88541041549649"><ele>936.0</ele><time>2026-03-28T08:54:03.921Z</time></trkpt><trkpt lat="44.05341523625221" lon="10.885367608790846"><ele>936.0000000000001</ele><time>2026-03-28T08:54:06.92Z</time></trkpt><trkpt lat="44.05348223321739" lon="10.885332763326295"><ele>936.0</ele><time>2026-03-28T08:54:09.921Z</time></trkpt><trkpt lat="44.05354467564694" lon="10.88526772148713"><ele>936.0</ele><time>2026-03-28T08:54:12.921Z</time></trkpt><trkpt lat="44.05360167499124" lon="10.885217751270943"><ele>939.5714285714287</ele><time>2026-03-28T08:54:15.921Z</time></trkpt><trkpt lat="44.05367030563602" lon="10.885203321593224"><ele>943.1428571428572</ele><time>2026-03-28T08:54:18.921Z</time></trkpt><trkpt lat="44.05373143949492" lon="10.885164115720922"><ele>946.7142857142858</ele><time>2026-03-28T08:54:21.921Z</time></trkpt><trkpt lat="44.053803405102165" lon="10.885135513493145"><ele>950.2857142857142</ele><time>2026-03-28T08:54:25.921Z</time></trkpt><trkpt lat="44.05388050838183" lon="10.885128223410952"><ele>953.8571428571428</ele><time>2026-03-28T08:54:28.921Z</time></trkpt><trkpt lat="44.05396361887674" lon="10.885118936067052"><ele>957.4285714285713</ele><time>2026-03-28T08:54:32.921Z</time></trkpt><trkpt lat="44.05403210289411" lon="10.885138649812003"><ele>961.0</ele><time>2026-03-28T08:54:36.921Z</time></trkpt><trkpt lat="44.05410825606174" lon="10.885123151221663"><ele>964.1428571428571</ele><time>2026-03-28T08:54:40.921Z</time></trkpt><trkpt lat="44.054177689836656" lon="10.88514385653177"><ele>967.2857142857142</ele><time>2026-03-28T08:54:44.921Z</time></trkpt><trkpt lat="44.05424030080752" lon="10.885174270697616"><ele>970.4285714285713</ele><time>2026-03-28T08:54:48.921Z</time></trkpt><trkpt lat="44.05431232014593" lon="10.885163640084523"><ele>973.5714285714284</ele><time>2026-03-28T08:54:53.921Z</time></trkpt><trkpt lat="44.054390728626615" lon="10.88518911451884"><ele>976.7142857142857</ele><time>2026-03-28T08:54:57.921Z</time></trkpt><trkpt lat="44.05447436535529" lon="10.885169172959051"><ele>979.8571428571427</ele><time>2026-03-28T08:55:01.921Z</time></trkpt><trkpt lat="44.05454771522955" lon="10.88515337926704"><ele>982.9999999999999</ele><time>2026-03-28T08:55:06.921Z</time></trkpt><trkpt lat="44.05461447087889" lon="10.885123790610326"><ele>978.7142857142856</ele><time>2026-03-28T08:55:13.921Z</time></trkpt><trkpt lat="44.054653469476" lon="10.88502844056222"><ele>974.4285714285713</ele><time>2026-03-28T08:55:19.921Z</time></trkpt><trkpt lat="44.05466042986288" lon="10.884933628895546"><ele>970.1428571428571</ele><time>2026-03-28T08:55:36.921Z</time></trkpt><trkpt lat="44.054628208477396" lon="10.884853775488011"><ele>965.8571428571428</ele><time>2026-03-28T08:55:40.921Z</time></trkpt><trkpt lat="44.05461233843204" lon="10.884761771473476"><ele>961.5714285714284</ele><time>2026-03-28T08:55:45.921Z</time></trkpt><trkpt lat="44.05457983503257" lon="10.884644600945986"><ele>957.2857142857143</ele><time>2026-03-28T08:55:50.921Z</time></trkpt><trkpt lat="44.054580905441625" lon="10.884555678267047"><ele>953.0</ele><time>2026-03-28T08:55:53.921Z</time></trkpt><trkpt lat="44.05455797184986" lon="10.884468549499552"><ele>953.0</ele><time>2026-03-28T08:55:57.921Z</time></trkpt><trkpt lat="44.054523317537786" lon="10.884389540358397"><ele>953.0</ele><time>2026-03-28T08:56:01.921Z</time></trkpt><trkpt lat="44.054534284331154" lon="10.884287752096546"><ele>953.0</ele><time>2026-03-28T08:56:09.919Z</time></trkpt><trkpt lat="44.05456373714769" lon="10.884207915956203"><ele>953.0</ele><time>2026-03-28T08:56:14.92Z</time></trkpt><trkpt lat="44.05460469563427" lon="10.884136216458755"><ele>953.0</ele><time>2026-03-28T08:56:20.919Z</time></trkpt><trkpt lat="44.05462048373484" lon="10.88404078625882"><ele>953.0</ele><time>2026-03-28T08:56:25.919Z</time></trkpt><trkpt lat="44.054656851546106" lon="10.883959597010156"><ele>953.0</ele><time>2026-03-28T08:56:30.919Z</time></trkpt><trkpt lat="44.05468589388427" lon="10.883860351943447"><ele>952.7142857142858</ele><time>2026-03-28T08:56:34.919Z</time></trkpt><trkpt lat="44.0547158963637" lon="10.883766114579286"><ele>952.4285714285713</ele><time>2026-03-28T08:56:38.919Z</time></trkpt><trkpt lat="44.05475491968996" lon="10.883692538041192"><ele>952.1428571428571</ele><time>2026-03-28T08:56:42.919Z</time></trkpt><trkpt lat="44.05478998847506" lon="10.88360784387887"><ele>951.8571428571429</ele><time>2026-03-28T08:56:46.919Z</time></trkpt><trkpt lat="44.05475374086608" lon="10.883703497301086"><ele>951.5714285714287</ele><time>2026-03-28T08:57:12.919Z</time></trkpt><trkpt lat="44.05472188107228" lon="10.883800217925497"><ele>951.2857142857142</ele><time>2026-03-28T08:57:16.919Z</time></trkpt><trkpt lat="44.05468987535899" lon="10.883892686790311"><ele>951.0</ele><time>2026-03-28T08:57:20.919Z</time></trkpt><trkpt lat="44.05467326293552" lon="10.883984755305507"><ele>951.0</ele><time>2026-03-28T08:57:23.919Z</time></trkpt><trkpt lat="44.05471113420659" lon="10.884091920600968"><ele>951.0</ele><time>2026-03-28T08:57:27.919Z</time></trkpt><trkpt lat="44.05474130680068" lon="10.884188422593079"><ele>951.0</ele><time>2026-03-28T08:57:30.919Z</time></trkpt><trkpt lat="44.054770265964144" lon="10.884285829017557"><ele>951.0</ele><time>2026-03-28T08:57:33.919Z</time></trkpt><trkpt lat="44.05480507881594" lon="10.884372242216124"><ele>951.0</ele><time>2026-03-28T08:57:36.919Z</time></trkpt><trkpt lat="44.054842453355775" lon="10.884443264169397"><ele>951.0</ele><time>2026-03-28T08:57:39.919Z</time></trkpt><trkpt lat="44.05491619780546" lon="10.88447675574259"><ele>951.0</ele><time>2026-03-28T08:57:43.919Z</time></trkpt><trkpt lat="44.05498295895491" lon="10.884508134630568"><ele>954.7142857142857</ele><time>2026-03-28T08:57:46.919Z</time></trkpt><trkpt lat="44.05505276718264" lon="10.884527098354416"><ele>958.4285714285716</ele><time>2026-03-28T08:57:49.919Z</time></trkpt><trkpt lat="44.05511607463846" lon="10.884561646214616"><ele>962.1428571428572</ele><time>2026-03-28T08:57:53.919Z</time></trkpt><trkpt lat="44.05516269796141" lon="10.884629885958224"><ele>965.8571428571429</ele><time>2026-03-28T08:57:59.919Z</time></trkpt><trkpt lat="44.055145671900334" lon="10.88472275854855"><ele>969.5714285714287</ele><time>2026-03-28T08:58:05.919Z</time></trkpt><trkpt lat="44.05516069697117" lon="10.8848217579368"><ele>973.2857142857144</ele><time>2026-03-28T08:58:09.919Z</time></trkpt><trkpt lat="44.055163367930255" lon="10.884916397563611"><ele>977.0000000000001</ele><time>2026-03-28T08:58:14.918Z</time></trkpt><trkpt lat="44.055168739374906" lon="10.885006689156997"><ele>979.7142857142858</ele><time>2026-03-28T08:58:18.918Z</time></trkpt><trkpt lat="44.05519044275381" lon="10.885097376824598"><ele>982.4285714285714</ele><time>2026-03-28T08:58:21.918Z</time></trkpt><trkpt lat="44.055197440644505" lon="10.885187566054631"><ele>985.1428571428571</ele><time>2026-03-28T08:58:24.919Z</time></trkpt><trkpt lat="44.05520416430445" lon="10.88529523458313"><ele>987.8571428571429</ele><time>2026-03-28T08:58:27.919Z</time></trkpt><trkpt lat="44.05519165712555" lon="10.8853864997493"><ele>990.5714285714284</ele><time>2026-03-28T08:58:35.919Z</time></trkpt><trkpt lat="44.05513282270015" lon="10.885455069206422"><ele>993.2857142857142</ele><time>2026-03-28T08:58:43.918Z</time></trkpt><trkpt lat="44.0550687605002" lon="10.885524967544306"><ele>996.0</ele><time>2026-03-28T08:58:48.918Z</time></trkpt><trkpt lat="44.05499608744846" lon="10.885578789096838"><ele>993.8333333333334</ele><time>2026-03-28T08:58:53.918Z</time></trkpt><trkpt lat="44.05492654593747" lon="10.885632833406602"><ele>991.6666666666667</ele><time>2026-03-28T08:58:57.918Z</time></trkpt><trkpt lat="44.054862236174664" lon="10.885704112694155"><ele>989.5</ele><time>2026-03-28T08:59:02.918Z</time></trkpt><trkpt lat="44.05478938929508" lon="10.88576914731056"><ele>987.3333333333334</ele><time>2026-03-28T08:59:06.918Z</time></trkpt><trkpt lat="44.05472380965318" lon="10.885794493764669"><ele>985.1666666666667</ele><time>2026-03-28T08:59:10.918Z</time></trkpt><trkpt lat="44.05467378175503" lon="10.885855645513335"><ele>983.0</ele><time>2026-03-28T08:59:14.918Z</time></trkpt><trkpt lat="44.054612287416454" lon="10.885903730659013"><ele>986.4285714285713</ele><time>2026-03-28T08:59:18.918Z</time></trkpt><trkpt lat="44.05456254536066" lon="10.885973595324794"><ele>989.8571428571429</ele><time>2026-03-28T08:59:21.918Z</time></trkpt><trkpt lat="44.0545076789464" lon="10.886021777390244"><ele>993.2857142857142</ele><time>2026-03-28T08:59:24.918Z</time></trkpt><trkpt lat="44.05445345670702" lon="10.886080154170278"><ele>996.7142857142857</ele><time>2026-03-28T08:59:27.918Z</time></trkpt><trkpt lat="44.054375586013464" lon="10.88613082301335"><ele>1000.1428571428571</ele><time>2026-03-28T08:59:31.918Z</time></trkpt><trkpt lat="44.054313331221195" lon="10.886182202619578"><ele>1003.5714285714286</ele><time>2026-03-28T08:59:34.918Z</time></trkpt><trkpt lat="44.05424189410763" lon="10.886220294248181"><ele>1007.0</ele><time>2026-03-28T08:59:37.918Z</time></trkpt><trkpt lat="44.05419012576088" lon="10.886306026249914"><ele>1007.0</ele><time>2026-03-28T08:59:40.918Z</time></trkpt><trkpt lat="44.054130474519795" lon="10.886362990401205"><ele>1007.0</ele><time>2026-03-28T08:59:43.918Z</time></trkpt><trkpt lat="44.05408179911659" lon="10.886452233851584"><ele>1007.0</ele><time>2026-03-28T08:59:47.918Z</time></trkpt><trkpt lat="44.05404315573225" lon="10.886521926035002"><ele>1007.0</ele><time>2026-03-28T08:59:50.918Z</time></trkpt><trkpt lat="44.053996255914704" lon="10.88661161349452"><ele>1007.0</ele><time>2026-03-28T08:59:54.918Z</time></trkpt><trkpt lat="44.05396196025596" lon="10.8867101317225"><ele>1007.0</ele><time>2026-03-28T08:59:58.918Z</time></trkpt><trkpt lat="44.053914224043204" lon="10.88677341189031"><ele>1007.0</ele><time>2026-03-28T09:00:01.918Z</time></trkpt><trkpt lat="44.053861331286" lon="10.886846894339474"><ele>1002.1428571428571</ele><time>2026-03-28T09:00:04.918Z</time></trkpt><trkpt lat="44.053810865925755" lon="10.886918764175485"><ele>997.2857142857143</ele><time>2026-03-28T09:00:08.918Z</time></trkpt><trkpt lat="44.053787433039275" lon="10.887001336449565"><ele>992.4285714285714</ele><time>2026-03-28T09:00:12.918Z</time></trkpt><trkpt lat="44.053768722163895" lon="10.887091972893817"><ele>987.5714285714286</ele><time>2026-03-28T09:00:17.917Z</time></trkpt><trkpt lat="44.053775882115666" lon="10.88719478851826"><ele>982.7142857142858</ele><time>2026-03-28T09:00:21.917Z</time></trkpt><trkpt lat="44.05378825138843" lon="10.887307500536005"><ele>977.8571428571429</ele><time>2026-03-28T09:00:25.917Z</time></trkpt><trkpt lat="44.05379492421805" lon="10.88741309395856"><ele>973.0</ele><time>2026-03-28T09:00:30.916Z</time></trkpt><trkpt lat="44.053830883146915" lon="10.887507291106491"><ele>972.9999999999999</ele><time>2026-03-28T09:00:33.916Z</time></trkpt><trkpt lat="44.0538687260912" lon="10.88757745905642"><ele>973.0</ele><time>2026-03-28T09:00:36.916Z</time></trkpt><trkpt lat="44.053899458586834" lon="10.887683628720444"><ele>973.0</ele><time>2026-03-28T09:00:40.916Z</time></trkpt><trkpt lat="44.05394214763674" lon="10.887779150786937"><ele>973.0</ele><time>2026-03-28T09:00:44.916Z</time></trkpt><trkpt lat="44.053985922166845" lon="10.887859089485081"><ele>972.9999999999999</ele><time>2026-03-28T09:00:48.916Z</time></trkpt><trkpt lat="44.05402539723801" lon="10.887948294090336"><ele>973.0</ele><time>2026-03-28T09:00:52.916Z</time></trkpt><trkpt lat="44.05405544333089" lon="10.888046276719018"><ele>972.3333333333333</ele><time>2026-03-28T09:00:56.916Z</time></trkpt><trkpt lat="44.05410251056857" lon="10.888118004798761"><ele>971.6666666666666</ele><time>2026-03-28T09:01:00.916Z</time></trkpt><trkpt lat="44.05414472612458" lon="10.888183210292308"><ele>971.0</ele><time>2026-03-28T09:01:04.916Z</time></trkpt><trkpt lat="44.05420769231743" lon="10.888248800720435"><ele>970.3333333333333</ele><time>2026-03-28T09:01:10.916Z</time></trkpt><trkpt lat="44.054243823455856" lon="10.8883518576649"><ele>969.6666666666666</ele><time>2026-03-28T09:01:14.916Z</time></trkpt><trkpt lat="44.05426314202665" lon="10.888458597945057"><ele>969.0</ele><time>2026-03-28T09:01:17.916Z</time></trkpt><trkpt lat="44.05425904695331" lon="10.888574392444594"><ele>975.8333333333334</ele><time>2026-03-28T09:01:21.916Z</time></trkpt><trkpt lat="44.054232060448314" lon="10.888696200288894"><ele>982.6666666666667</ele><time>2026-03-28T09:01:26.916Z</time></trkpt><trkpt lat="44.05422562201728" lon="10.88879093411572"><ele>989.5</ele><time>2026-03-28T09:01:30.916Z</time></trkpt><trkpt lat="44.05422863427731" lon="10.888887434736622"><ele>996.3333333333334</ele><time>2026-03-28T09:01:33.916Z</time></trkpt><trkpt lat="44.05422323015346" lon="10.888984522242582"><ele>1003.1666666666667</ele><time>2026-03-28T09:01:37.916Z</time></trkpt><trkpt lat="44.054212525744326" lon="10.889072584549115"><ele>1010.0</ele><time>2026-03-28T09:01:41.916Z</time></trkpt><trkpt lat="44.054202312311645" lon="10.889196155568543"><ele>1011.2857142857142</ele><time>2026-03-28T09:01:45.916Z</time></trkpt><trkpt lat="44.05418416602655" lon="10.889281749379668"><ele>1012.5714285714284</ele><time>2026-03-28T09:01:48.916Z</time></trkpt><trkpt lat="44.05416208999674" lon="10.889390323420534"><ele>1013.8571428571429</ele><time>2026-03-28T09:01:53.916Z</time></trkpt><trkpt lat="44.05414608674725" lon="10.889488141441891"><ele>1015.1428571428571</ele><time>2026-03-28T09:01:57.916Z</time></trkpt><trkpt lat="44.05412822759789" lon="10.889578413195935"><ele>1016.4285714285714</ele><time>2026-03-28T09:02:00.916Z</time></trkpt><trkpt lat="44.05412154506033" lon="10.889679106704122"><ele>1017.7142857142858</ele><time>2026-03-28T09:02:04.916Z</time></trkpt><trkpt lat="44.05411613147524" lon="10.889781592340237"><ele>1019.0000000000001</ele><time>2026-03-28T09:02:09.916Z</time></trkpt><trkpt lat="44.05411404117652" lon="10.889894933225486"><ele>1017.0000000000001</ele><time>2026-03-28T09:02:14.916Z</time></trkpt><trkpt lat="44.054111406314455" lon="10.889988956996739"><ele>1015.0</ele><time>2026-03-28T09:02:17.916Z</time></trkpt><trkpt lat="44.05411123790209" lon="10.890084565043555"><ele>1013.0000000000001</ele><time>2026-03-28T09:02:20.916Z</time></trkpt><trkpt lat="44.05409440140345" lon="10.890172120717226"><ele>1011.0000000000001</ele><time>2026-03-28T09:02:24.915Z</time></trkpt><trkpt lat="44.05407138477216" lon="10.890281356713926"><ele>1009.0</ele><time>2026-03-28T09:02:29.916Z</time></trkpt><trkpt lat="44.05407052663084" lon="10.890377187978489"><ele>1007.0000000000001</ele><time>2026-03-28T09:02:32.915Z</time></trkpt><trkpt lat="44.05403813170142" lon="10.890468648120764"><ele>1005.0000000000001</ele><time>2026-03-28T09:02:36.916Z</time></trkpt><trkpt lat="44.05401205678001" lon="10.89056624986113"><ele>1005.0000000000001</ele><time>2026-03-28T09:02:40.916Z</time></trkpt><trkpt lat="44.05397841931748" lon="10.890675107740135"><ele>1005.0</ele><time>2026-03-28T09:02:44.916Z</time></trkpt><trkpt lat="44.05395186123132" lon="10.890769826786057"><ele>1005.0000000000001</ele><time>2026-03-28T09:02:48.916Z</time></trkpt><trkpt lat="44.053914081616654" lon="10.890860621318627"><ele>1005.0000000000001</ele><time>2026-03-28T09:02:51.916Z</time></trkpt><trkpt lat="44.05388479377217" lon="10.890951586814106"><ele>1005.0</ele><time>2026-03-28T09:02:56.916Z</time></trkpt><trkpt lat="44.053894319869315" lon="10.89103993753588"><ele>1005.0000000000001</ele><time>2026-03-28T09:03:02.916Z</time></trkpt><trkpt lat="44.05391046062491" lon="10.89113079354153"><ele>1005.0000000000001</ele><time>2026-03-28T09:03:05.916Z</time></trkpt><trkpt lat="44.05395076028601" lon="10.891213184955523"><ele>1005.4285714285716</ele><time>2026-03-28T09:03:09.916Z</time></trkpt><trkpt lat="44.05405783819948" lon="10.891223268897521"><ele>1005.8571428571429</ele><time>2026-03-28T09:03:19.916Z</time></trkpt><trkpt lat="44.05411282482635" lon="10.89116973800863"><ele>1006.2857142857143</ele><time>2026-03-28T09:03:24.916Z</time></trkpt><trkpt lat="44.0541602472891" lon="10.89110792509893"><ele>1006.7142857142858</ele><time>2026-03-28T09:03:29.916Z</time></trkpt><trkpt lat="44.05420682682424" lon="10.891042693254114"><ele>1007.1428571428571</ele><time>2026-03-28T09:03:35.916Z</time></trkpt><trkpt lat="44.054245316968064" lon="10.890959774973755"><ele>1007.5714285714286</ele><time>2026-03-28T09:03:40.915Z</time></trkpt><trkpt lat="44.054273724047604" lon="10.890881110992385"><ele>1008.0</ele><time>2026-03-28T09:03:46.915Z</time></trkpt><trkpt lat="44.054301485500766" lon="10.890802140724052"><ele>1010.8571428571429</ele><time>2026-03-28T09:03:50.915Z</time></trkpt><trkpt lat="44.05433332353391" lon="10.89070201597933"><ele>1013.7142857142858</ele><time>2026-03-28T09:03:54.915Z</time></trkpt><trkpt lat="44.05435912000191" lon="10.890620756798562"><ele>1016.5714285714286</ele><time>2026-03-28T09:03:57.915Z</time></trkpt><trkpt lat="44.05440366427284" lon="10.89053685594093"><ele>1019.4285714285714</ele><time>2026-03-28T09:04:00.915Z</time></trkpt><trkpt lat="44.05443722789971" lon="10.890436768166493"><ele>1022.2857142857143</ele><time>2026-03-28T09:04:05.915Z</time></trkpt><trkpt lat="44.05448451728964" lon="10.890376852070037"><ele>1025.142857142857</ele><time>2026-03-28T09:04:09.915Z</time></trkpt><trkpt lat="44.05451493055999" lon="10.890299047575041"><ele>1028.0</ele><time>2026-03-28T09:04:12.915Z</time></trkpt><trkpt lat="44.0545395024759" lon="10.890214031156196"><ele>1028.0</ele><time>2026-03-28T09:04:17.915Z</time></trkpt><trkpt lat="44.05456032849771" lon="10.890120348773493"><ele>1028.0</ele><time>2026-03-28T09:04:20.915Z</time></trkpt><trkpt lat="44.054579270468686" lon="10.890023858690615"><ele>1028.0</ele><time>2026-03-28T09:04:23.915Z</time></trkpt><trkpt lat="44.05460775081888" lon="10.889935954992785"><ele>1028.0</ele><time>2026-03-28T09:04:26.915Z</time></trkpt><trkpt lat="44.0546224665402" lon="10.8898425172802"><ele>1028.0</ele><time>2026-03-28T09:04:29.914Z</time></trkpt><trkpt lat="44.05466103003914" lon="10.88972543293469"><ele>1028.0</ele><time>2026-03-28T09:04:32.914Z</time></trkpt><trkpt lat="44.05468676830646" lon="10.889624545020425"><ele>1026.7142857142858</ele><time>2026-03-28T09:04:36.914Z</time></trkpt><trkpt lat="44.05473219885507" lon="10.88954547056661"><ele>1025.4285714285716</ele><time>2026-03-28T09:04:39.914Z</time></trkpt><trkpt lat="44.05474952805844" lon="10.889452688521853"><ele>1024.1428571428573</ele><time>2026-03-28T09:04:43.914Z</time></trkpt><trkpt lat="44.05475864989327" lon="10.889360095153078"><ele>1022.8571428571429</ele><time>2026-03-28T09:04:47.914Z</time></trkpt><trkpt lat="44.0547870693423" lon="10.889270129341556"><ele>1021.5714285714287</ele><time>2026-03-28T09:04:50.914Z</time></trkpt><trkpt lat="44.05479013003577" lon="10.889182337093516"><ele>1020.2857142857144</ele><time>2026-03-28T09:04:55.914Z</time></trkpt><trkpt lat="44.05478694816265" lon="10.889068168154145"><ele>1019.0000000000001</ele><time>2026-03-28T09:04:59.914Z</time></trkpt><trkpt lat="44.05480056006681" lon="10.888973553874369"><ele>1017.857142857143</ele><time>2026-03-28T09:05:02.914Z</time></trkpt><trkpt lat="44.054796289900175" lon="10.888859165674997"><ele>1016.7142857142858</ele><time>2026-03-28T09:05:06.914Z</time></trkpt><trkpt lat="44.05478290118999" lon="10.888763375024839"><ele>1015.5714285714286</ele><time>2026-03-28T09:05:10.914Z</time></trkpt><trkpt lat="44.05476500600887" lon="10.888678572716827"><ele>1014.4285714285714</ele><time>2026-03-28T09:05:13.914Z</time></trkpt><trkpt lat="44.054787568637856" lon="10.88855613628194"><ele>1013.2857142857142</ele><time>2026-03-28T09:05:17.914Z</time></trkpt><trkpt lat="44.05477687036386" lon="10.888456775137797"><ele>1012.142857142857</ele><time>2026-03-28T09:05:20.914Z</time></trkpt><trkpt lat="44.0547761134693" lon="10.888362494758267"><ele>1010.9999999999999</ele><time>2026-03-28T09:05:23.914Z</time></trkpt><trkpt lat="44.054766847420105" lon="10.888258687493186"><ele>1011.0</ele><time>2026-03-28T09:05:26.914Z</time></trkpt><trkpt lat="44.0547870828448" lon="10.888141914352692"><ele>1011.0</ele><time>2026-03-28T09:05:29.914Z</time></trkpt><trkpt lat="44.054801529525506" lon="10.888031357264703"><ele>1011.0</ele><time>2026-03-28T09:05:32.914Z</time></trkpt><trkpt lat="44.05483455546571" lon="10.887934665434644"><ele>1011.0</ele><time>2026-03-28T09:05:38.906Z</time></trkpt><trkpt lat="44.05489476328963" lon="10.887846807109415"><ele>1011.0</ele><time>2026-03-28T09:05:43.901Z</time></trkpt><trkpt lat="44.054925787801515" lon="10.887746709635817"><ele>1011.0</ele><time>2026-03-28T09:05:47.898Z</time></trkpt><trkpt lat="44.05498251018938" lon="10.887696191273076"><ele>1015.5714285714284</ele><time>2026-03-28T09:05:50.896Z</time></trkpt><trkpt lat="44.055041461735335" lon="10.887605773684308"><ele>1020.1428571428571</ele><time>2026-03-28T09:05:54.894Z</time></trkpt><trkpt lat="44.05509862359337" lon="10.887557341886772"><ele>1024.7142857142858</ele><time>2026-03-28T09:05:58.892Z</time></trkpt><trkpt lat="44.05516052661355" lon="10.887512786690309"><ele>1029.2857142857142</ele><time>2026-03-28T09:06:02.891Z</time></trkpt><trkpt lat="44.05522348154353" lon="10.887471250017207"><ele>1033.857142857143</ele><time>2026-03-28T09:06:06.89Z</time></trkpt><trkpt lat="44.055283240656216" lon="10.887422512937556"><ele>1038.4285714285713</ele><time>2026-03-28T09:06:10.89Z</time></trkpt><trkpt lat="44.05535012626822" lon="10.887381538411411"><ele>1043.0</ele><time>2026-03-28T09:06:15.889Z</time></trkpt><trkpt lat="44.0554226247945" lon="10.887353139205468"><ele>1043.0</ele><time>2026-03-28T09:06:19.888Z</time></trkpt><trkpt lat="44.055494225990195" lon="10.887312180310499"><ele>1043.0</ele><time>2026-03-28T09:06:25.888Z</time></trkpt><trkpt lat="44.05555988179738" lon="10.887245958694967"><ele>1043.0</ele><time>2026-03-28T09:06:30.888Z</time></trkpt><trkpt lat="44.055612770079954" lon="10.88718187815705"><ele>1043.0</ele><time>2026-03-28T09:06:34.887Z</time></trkpt><trkpt lat="44.05566780264939" lon="10.887100328737874"><ele>1043.0</ele><time>2026-03-28T09:06:39.887Z</time></trkpt><trkpt lat="44.05569705983659" lon="10.887001841549885"><ele>1043.0</ele><time>2026-03-28T09:06:43.886Z</time></trkpt><trkpt lat="44.05575797729074" lon="10.88691194625169"><ele>1043.142857142857</ele><time>2026-03-28T09:06:47.887Z</time></trkpt><trkpt lat="44.05581074238654" lon="10.88683258029011"><ele>1043.2857142857142</ele><time>2026-03-28T09:06:51.886Z</time></trkpt><trkpt lat="44.055869110443304" lon="10.88678006272442"><ele>1043.4285714285716</ele><time>2026-03-28T09:06:54.886Z</time></trkpt><trkpt lat="44.05592557626925" lon="10.886729458859973"><ele>1043.5714285714284</ele><time>2026-03-28T09:06:57.886Z</time></trkpt><trkpt lat="44.05599027530959" lon="10.886679878039022"><ele>1043.7142857142858</ele><time>2026-03-28T09:07:02.886Z</time></trkpt><trkpt lat="44.05604794655681" lon="10.886642960068768"><ele>1043.857142857143</ele><time>2026-03-28T09:07:05.886Z</time></trkpt><trkpt lat="44.056108532173276" lon="10.88659370205613"><ele>1044.0</ele><time>2026-03-28T09:07:08.886Z</time></trkpt><trkpt lat="44.05618357087014" lon="10.886569696946186"><ele>1044.0</ele><time>2026-03-28T09:07:11.886Z</time></trkpt><trkpt lat="44.05624830155285" lon="10.886519660326629"><ele>1044.0</ele><time>2026-03-28T09:07:15.886Z</time></trkpt><trkpt lat="44.0563054392083" lon="10.886468885050082"><ele>1044.0</ele><time>2026-03-28T09:07:18.886Z</time></trkpt><trkpt lat="44.05637386912721" lon="10.886426985769429"><ele>1044.0</ele><time>2026-03-28T09:07:23.886Z</time></trkpt><trkpt lat="44.056427311895234" lon="10.886367170163789"><ele>1044.0</ele><time>2026-03-28T09:07:27.886Z</time></trkpt><trkpt lat="44.05648129216067" lon="10.886274326866518"><ele>1044.0</ele><time>2026-03-28T09:07:31.886Z</time></trkpt><trkpt lat="44.05651617166398" lon="10.886178101240853"><ele>1044.0</ele><time>2026-03-28T09:07:36.886Z</time></trkpt><trkpt lat="44.056567258207345" lon="10.886122357310056"><ele>1046.2857142857142</ele><time>2026-03-28T09:07:39.886Z</time></trkpt><trkpt lat="44.056624232151464" lon="10.886055599851353"><ele>1048.5714285714284</ele><time>2026-03-28T09:07:43.886Z</time></trkpt><trkpt lat="44.05667184227948" lon="10.885972681074458"><ele>1050.8571428571427</ele><time>2026-03-28T09:07:47.886Z</time></trkpt><trkpt lat="44.056714288444205" lon="10.885884560156063"><ele>1053.142857142857</ele><time>2026-03-28T09:07:51.886Z</time></trkpt><trkpt lat="44.05674966950921" lon="10.885804821320926"><ele>1055.4285714285713</ele><time>2026-03-28T09:07:56.886Z</time></trkpt><trkpt lat="44.05678911775755" lon="10.885723323112886"><ele>1057.7142857142856</ele><time>2026-03-28T09:08:00.886Z</time></trkpt><trkpt lat="44.05681837396552" lon="10.88561861513392"><ele>1060.0</ele><time>2026-03-28T09:08:05.886Z</time></trkpt><trkpt lat="44.056850583949014" lon="10.885531459287856"><ele>1060.0</ele><time>2026-03-28T09:08:11.886Z</time></trkpt><trkpt lat="44.05685995076112" lon="10.885414783741716"><ele>1060.0</ele><time>2026-03-28T09:08:14.886Z</time></trkpt><trkpt lat="44.056875872096576" lon="10.885313931246612"><ele>1060.0</ele><time>2026-03-28T09:08:17.886Z</time></trkpt><trkpt lat="44.05691310153384" lon="10.88523887812227"><ele>1060.0</ele><time>2026-03-28T09:08:19.885Z</time></trkpt><trkpt lat="44.056964878090895" lon="10.885144256714657"><ele>1060.0</ele><time>2026-03-28T09:08:22.885Z</time></trkpt><trkpt lat="44.05699928253822" lon="10.885038589609508"><ele>1060.0</ele><time>2026-03-28T09:08:25.885Z</time></trkpt><trkpt lat="44.05702965066062" lon="10.884955232437623"><ele>1059.2857142857142</ele><time>2026-03-28T09:08:27.885Z</time></trkpt><trkpt lat="44.05704914062387" lon="10.884867861851157"><ele>1058.5714285714284</ele><time>2026-03-28T09:08:31.885Z</time></trkpt><trkpt lat="44.05706889749707" lon="10.884768261847826"><ele>1057.857142857143</ele><time>2026-03-28T09:08:36.885Z</time></trkpt><trkpt lat="44.057069699281776" lon="10.884671952036804"><ele>1057.142857142857</ele><time>2026-03-28T09:08:41.885Z</time></trkpt><trkpt lat="44.05707131208057" lon="10.884583388278445"><ele>1056.4285714285716</ele><time>2026-03-28T09:08:46.885Z</time></trkpt><trkpt lat="44.057098022069326" lon="10.884502118078252"><ele>1055.7142857142858</ele><time>2026-03-28T09:08:51.884Z</time></trkpt><trkpt lat="44.05711713213829" lon="10.884405223447072"><ele>1055.0</ele><time>2026-03-28T09:08:57.884Z</time></trkpt><trkpt lat="44.0571348925129" lon="10.88428986567509"><ele>1054.4285714285716</ele><time>2026-03-28T09:09:04.884Z</time></trkpt><trkpt lat="44.057153234118445" lon="10.884202806266321"><ele>1053.857142857143</ele><time>2026-03-28T09:09:08.884Z</time></trkpt><trkpt lat="44.05715698066329" lon="10.884087277590345"><ele>1053.2857142857142</ele><time>2026-03-28T09:09:12.884Z</time></trkpt><trkpt lat="44.057137971177056" lon="10.883981567830935"><ele>1052.7142857142858</ele><time>2026-03-28T09:09:16.884Z</time></trkpt><trkpt lat="44.05713573403111" lon="10.883885857964387"><ele>1052.142857142857</ele><time>2026-03-28T09:09:19.884Z</time></trkpt><trkpt lat="44.057135025800406" lon="10.88378964467279"><ele>1051.5714285714287</ele><time>2026-03-28T09:09:22.884Z</time></trkpt><trkpt lat="44.05712369231963" lon="10.883683363015248"><ele>1051.0</ele><time>2026-03-28T09:09:26.884Z</time></trkpt><trkpt lat="44.05713174457897" lon="10.88359261534295"><ele>1051.0</ele><time>2026-03-28T09:09:30.884Z</time></trkpt><trkpt lat="44.057156897381795" lon="10.88350623765507"><ele>1051.0</ele><time>2026-03-28T09:09:33.884Z</time></trkpt><trkpt lat="44.05716650323636" lon="10.883417807377965"><ele>1051.0</ele><time>2026-03-28T09:09:36.884Z</time></trkpt><trkpt lat="44.05717586351268" lon="10.883314840746477"><ele>1051.0</ele><time>2026-03-28T09:09:41.884Z</time></trkpt><trkpt lat="44.05720123667969" lon="10.88322786399427"><ele>1051.0</ele><time>2026-03-28T09:09:44.884Z</time></trkpt><trkpt lat="44.05721605255408" lon="10.883125544311067"><ele>1051.0</ele><time>2026-03-28T09:09:49.884Z</time></trkpt><trkpt lat="44.057243296605336" lon="10.883031249681544"><ele>1051.0</ele><time>2026-03-28T09:09:52.884Z</time></trkpt><trkpt lat="44.057271530022476" lon="10.88294865218432"><ele>1051.2857142857142</ele><time>2026-03-28T09:09:55.884Z</time></trkpt><trkpt lat="44.057279983505325" lon="10.882853990598678"><ele>1051.5714285714284</ele><time>2026-03-28T09:09:58.884Z</time></trkpt><trkpt lat="44.05731786419922" lon="10.882780778746548"><ele>1051.8571428571427</ele><time>2026-03-28T09:10:02.884Z</time></trkpt><trkpt lat="44.05734418674174" lon="10.882695997258159"><ele>1052.142857142857</ele><time>2026-03-28T09:10:05.884Z</time></trkpt><trkpt lat="44.057355251065765" lon="10.882603975271387"><ele>1052.4285714285713</ele><time>2026-03-28T09:10:10.884Z</time></trkpt><trkpt lat="44.05739174985051" lon="10.882528996028086"><ele>1052.7142857142856</ele><time>2026-03-28T09:10:16.884Z</time></trkpt><trkpt lat="44.05740959454964" lon="10.882442856889533"><ele>1053.0</ele><time>2026-03-28T09:10:19.884Z</time></trkpt><trkpt lat="44.05742383747323" lon="10.882350173421289"><ele>1052.142857142857</ele><time>2026-03-28T09:10:23.884Z</time></trkpt><trkpt lat="44.057423970144285" lon="10.882258881399736"><ele>1051.2857142857142</ele><time>2026-03-28T09:10:27.884Z</time></trkpt><trkpt lat="44.05744908362594" lon="10.882150266469614"><ele>1050.4285714285716</ele><time>2026-03-28T09:10:31.884Z</time></trkpt><trkpt lat="44.05745044736101" lon="10.88205244592115"><ele>1049.5714285714284</ele><time>2026-03-28T09:10:36.884Z</time></trkpt><trkpt lat="44.05745222752436" lon="10.881956987453902"><ele>1048.7142857142858</ele><time>2026-03-28T09:10:39.884Z</time></trkpt><trkpt lat="44.05744930417135" lon="10.881858655657403"><ele>1047.857142857143</ele><time>2026-03-28T09:10:43.884Z</time></trkpt><trkpt lat="44.05745386590712" lon="10.881756522822918"><ele>1047.0</ele><time>2026-03-28T09:10:47.883Z</time></trkpt><trkpt lat="44.057435208243135" lon="10.881653117099434"><ele>1045.857142857143</ele><time>2026-03-28T09:10:50.883Z</time></trkpt><trkpt lat="44.057404890762754" lon="10.881553950324548"><ele>1044.7142857142858</ele><time>2026-03-28T09:10:54.882Z</time></trkpt><trkpt lat="44.05738521235962" lon="10.881467773569293"><ele>1043.5714285714284</ele><time>2026-03-28T09:10:57.882Z</time></trkpt><trkpt lat="44.05738932486769" lon="10.881355601415214"><ele>1042.4285714285716</ele><time>2026-03-28T09:11:01.883Z</time></trkpt><trkpt lat="44.05739821437309" lon="10.881250639148748"><ele>1041.2857142857142</ele><time>2026-03-28T09:11:04.883Z</time></trkpt><trkpt lat="44.05740092873257" lon="10.88114186798291"><ele>1040.142857142857</ele><time>2026-03-28T09:11:07.883Z</time></trkpt><trkpt lat="44.05741546279086" lon="10.881056402310817"><ele>1039.0</ele><time>2026-03-28T09:11:11.882Z</time></trkpt><trkpt lat="44.05745418692693" lon="10.88097865398497"><ele>1045.7142857142856</ele><time>2026-03-28T09:11:16.882Z</time></trkpt><trkpt lat="44.05751072479637" lon="10.880926488036456"><ele>1052.4285714285713</ele><time>2026-03-28T09:11:21.882Z</time></trkpt><trkpt lat="44.057566644408624" lon="10.880875066584135"><ele>1059.142857142857</ele><time>2026-03-28T09:11:25.882Z</time></trkpt><trkpt lat="44.05763444963547" lon="10.88084874723227"><ele>1065.8571428571427</ele><time>2026-03-28T09:11:30.882Z</time></trkpt><trkpt lat="44.05769791524069" lon="10.880785000345943"><ele>1072.5714285714284</ele><time>2026-03-28T09:11:34.882Z</time></trkpt><trkpt lat="44.05776524062672" lon="10.880742707207899"><ele>1079.2857142857142</ele><time>2026-03-28T09:11:38.882Z</time></trkpt><trkpt lat="44.05783766093752" lon="10.880715515756275"><ele>1086.0</ele><time>2026-03-28T09:11:42.882Z</time></trkpt><trkpt lat="44.05789970589773" lon="10.880688989218921"><ele>1086.0</ele><time>2026-03-28T09:11:45.882Z</time></trkpt><trkpt lat="44.0579657777382" lon="10.880692487771839"><ele>1086.0</ele><time>2026-03-28T09:11:48.882Z</time></trkpt><trkpt lat="44.05803502242014" lon="10.880672381756975"><ele>1086.0</ele><time>2026-03-28T09:11:52.882Z</time></trkpt><trkpt lat="44.058113262681815" lon="10.880670426206109"><ele>1086.0</ele><time>2026-03-28T09:11:57.882Z</time></trkpt><trkpt lat="44.05818517846789" lon="10.880661826628689"><ele>1086.0</ele><time>2026-03-28T09:12:01.882Z</time></trkpt><trkpt lat="44.05825772447043" lon="10.880665026270602"><ele>1086.0</ele><time>2026-03-28T09:12:05.882Z</time></trkpt><trkpt lat="44.05832614586747" lon="10.880670674858719"><ele>1086.0</ele><time>2026-03-28T09:12:09.882Z</time></trkpt><trkpt lat="44.058396845103296" lon="10.880679289122662"><ele>1089.3333333333333</ele><time>2026-03-28T09:12:13.882Z</time></trkpt><trkpt lat="44.05846022154937" lon="10.880692465778047"><ele>1092.6666666666667</ele><time>2026-03-28T09:12:17.882Z</time></trkpt><trkpt lat="44.05853176221444" lon="10.880702989364346"><ele>1096.0</ele><time>2026-03-28T09:12:21.882Z</time></trkpt><trkpt lat="44.05859740282736" lon="10.880725073828891"><ele>1099.3333333333335</ele><time>2026-03-28T09:12:26.882Z</time></trkpt><trkpt lat="44.05866509559677" lon="10.880748574755907"><ele>1102.6666666666667</ele><time>2026-03-28T09:12:31.882Z</time></trkpt><trkpt lat="44.058737850078494" lon="10.880730796404855"><ele>1106.0</ele><time>2026-03-28T09:12:37.882Z</time></trkpt><trkpt lat="44.05883667010922" lon="10.88064530753963"><ele>1106.0</ele><time>2026-03-28T09:12:55.88Z</time></trkpt><trkpt lat="44.058934422852246" lon="10.880672707312947"><ele>1106.0</ele><time>2026-03-28T09:13:38.879Z</time></trkpt><trkpt lat="44.058960977810834" lon="10.880589916114584"><ele>1106.0</ele><time>2026-03-28T09:13:45.879Z</time></trkpt><trkpt lat="44.05900551083781" lon="10.880655036932136"><ele>1106.0</ele><time>2026-03-28T09:15:05.877Z</time></trkpt><trkpt lat="44.058950267747186" lon="10.880712878292305"><ele>1106.0</ele><time>2026-03-28T09:15:14.877Z</time></trkpt><trkpt lat="44.05905488568899" lon="10.88060813917971"><ele>1106.0</ele><time>2026-03-28T09:16:18.877Z</time></trkpt><trkpt lat="44.05907066915887" lon="10.880523080226316"><ele>1106.0</ele><time>2026-03-28T09:16:22.877Z</time></trkpt><trkpt lat="44.059082858422336" lon="10.880417179395739"><ele>1106.0</ele><time>2026-03-28T09:16:27.877Z</time></trkpt><trkpt lat="44.05907231653869" lon="10.880300459426817"><ele>1106.0</ele><time>2026-03-28T09:16:31.877Z</time></trkpt><trkpt lat="44.05908446342396" lon="10.880205561717375"><ele>1106.0</ele><time>2026-03-28T09:16:34.877Z</time></trkpt><trkpt lat="44.059116437784056" lon="10.880111065305865"><ele>1106.0</ele><time>2026-03-28T09:16:38.877Z</time></trkpt><trkpt lat="44.05913953468411" lon="10.880003167036401"><ele>1106.0</ele><time>2026-03-28T09:16:43.877Z</time></trkpt><trkpt lat="44.05915256002245" lon="10.879908852656639"><ele>1106.4285714285713</ele><time>2026-03-28T09:16:47.877Z</time></trkpt><trkpt lat="44.0591823632088" lon="10.879826376327504"><ele>1106.857142857143</ele><time>2026-03-28T09:16:51.877Z</time></trkpt><trkpt lat="44.05921848934348" lon="10.879721690850923"><ele>1107.2857142857142</ele><time>2026-03-28T09:16:55.877Z</time></trkpt><trkpt lat="44.05924074574093" lon="10.879628142067196"><ele>1107.7142857142858</ele><time>2026-03-28T09:16:59.877Z</time></trkpt><trkpt lat="44.05925471734321" lon="10.879541110941622"><ele>1108.142857142857</ele><time>2026-03-28T09:17:02.877Z</time></trkpt><trkpt lat="44.05926409051589" lon="10.879452922298855"><ele>1108.5714285714284</ele><time>2026-03-28T09:17:05.875Z</time></trkpt><trkpt lat="44.05927910553615" lon="10.879359883893892"><ele>1109.0</ele><time>2026-03-28T09:17:08.876Z</time></trkpt><trkpt lat="44.05930595902063" lon="10.879262467713819"><ele>1109.0</ele><time>2026-03-28T09:17:11.876Z</time></trkpt><trkpt lat="44.059336550196555" lon="10.879172478826877"><ele>1109.0</ele><time>2026-03-28T09:17:14.876Z</time></trkpt><trkpt lat="44.05936327886513" lon="10.879070703055103"><ele>1109.0</ele><time>2026-03-28T09:17:18.876Z</time></trkpt><trkpt lat="44.05940312023549" lon="10.878978979974347"><ele>1109.0</ele><time>2026-03-28T09:17:22.876Z</time></trkpt><trkpt lat="44.05947044881727" lon="10.878910866943636"><ele>1109.0</ele><time>2026-03-28T09:17:26.876Z</time></trkpt><trkpt lat="44.059539313123885" lon="10.878852685389477"><ele>1109.0</ele><time>2026-03-28T09:17:30.876Z</time></trkpt><trkpt lat="44.05959287291946" lon="10.878793460998358"><ele>1108.9999999999998</ele><time>2026-03-28T09:17:33.876Z</time></trkpt><trkpt lat="44.05963986104913" lon="10.87870634783579"><ele>1109.0</ele><time>2026-03-28T09:17:36.876Z</time></trkpt><trkpt lat="44.05968138143178" lon="10.878634194886118"><ele>1109.0</ele><time>2026-03-28T09:17:39.876Z</time></trkpt><trkpt lat="44.05970664250531" lon="10.878536770851191"><ele>1109.0</ele><time>2026-03-28T09:17:44.875Z</time></trkpt><trkpt lat="44.05970393294743" lon="10.878446788428167"><ele>1109.0</ele><time>2026-03-28T09:17:49.875Z</time></trkpt><trkpt lat="44.059704309463484" lon="10.878347024495282"><ele>1108.9999999999998</ele><time>2026-03-28T09:17:54.875Z</time></trkpt><trkpt lat="44.059675653488426" lon="10.87824956678499"><ele>1109.0</ele><time>2026-03-28T09:17:59.875Z</time></trkpt><trkpt lat="44.059629745088934" lon="10.87817206427189"><ele>1108.9999999999998</ele><time>2026-03-28T09:18:03.875Z</time></trkpt><trkpt lat="44.05956966935287" lon="10.878100465687908"><ele>1109.0</ele><time>2026-03-28T09:18:07.875Z</time></trkpt><trkpt lat="44.059518614324226" lon="10.878048333490057"><ele>1109.0</ele><time>2026-03-28T09:18:10.875Z</time></trkpt><trkpt lat="44.05944840884478" lon="10.878027032464667"><ele>1109.0</ele><time>2026-03-28T09:18:15.875Z</time></trkpt><trkpt lat="44.05936749953779" lon="10.878026026660702"><ele>1109.0</ele><time>2026-03-28T09:18:20.875Z</time></trkpt><trkpt lat="44.05929909127026" lon="10.878019803620512"><ele>1108.9999999999998</ele><time>2026-03-28T09:18:24.875Z</time></trkpt><trkpt lat="44.05923409320139" lon="10.878006857544909"><ele>1109.0</ele><time>2026-03-28T09:18:27.875Z</time></trkpt><trkpt lat="44.059149461067484" lon="10.87798875193031"><ele>1105.8571428571427</ele><time>2026-03-28T09:18:31.875Z</time></trkpt><trkpt lat="44.05907865148999" lon="10.87797414504731"><ele>1102.7142857142858</ele><time>2026-03-28T09:18:34.875Z</time></trkpt><trkpt lat="44.05901120190869" lon="10.877959038214843"><ele>1099.5714285714284</ele><time>2026-03-28T09:18:37.875Z</time></trkpt><trkpt lat="44.058946995606334" lon="10.8779391237506"><ele>1096.4285714285713</ele><time>2026-03-28T09:18:53.875Z</time></trkpt><trkpt lat="44.058877315871335" lon="10.8779312168179"><ele>1093.2857142857142</ele><time>2026-03-28T09:18:58.875Z</time></trkpt><trkpt lat="44.058804119395916" lon="10.877903527013363"><ele>1090.142857142857</ele><time>2026-03-28T09:19:02.875Z</time></trkpt><trkpt lat="44.058740492523604" lon="10.877874148409306"><ele>1087.0</ele><time>2026-03-28T09:19:06.875Z</time></trkpt><trkpt lat="44.05867199683985" lon="10.87782249605456"><ele>1087.0</ele><time>2026-03-28T09:19:11.874Z</time></trkpt><trkpt lat="44.05863008547808" lon="10.87773966806733"><ele>1087.0</ele><time>2026-03-28T09:19:16.874Z</time></trkpt><trkpt lat="44.05860494738285" lon="10.877632870771635"><ele>1087.0</ele><time>2026-03-28T09:19:21.874Z</time></trkpt><trkpt lat="44.058589194812505" lon="10.877537378755754"><ele>1087.0</ele><time>2026-03-28T09:19:25.874Z</time></trkpt><trkpt lat="44.05856294529829" lon="10.877435078864615"><ele>1087.0</ele><time>2026-03-28T09:19:30.874Z</time></trkpt><trkpt lat="44.058541529092714" lon="10.877334229846522"><ele>1087.0</ele><time>2026-03-28T09:19:35.874Z</time></trkpt><trkpt lat="44.058511435675754" lon="10.877246195044455"><ele>1087.0</ele><time>2026-03-28T09:19:40.874Z</time></trkpt><trkpt lat="44.05844031965954" lon="10.877171555848042"><ele>1088.5714285714284</ele><time>2026-03-28T09:19:44.874Z</time></trkpt><trkpt lat="44.05837777658899" lon="10.877130633812525"><ele>1090.142857142857</ele><time>2026-03-28T09:19:48.874Z</time></trkpt><trkpt lat="44.058309000428885" lon="10.877124196660551"><ele>1091.7142857142858</ele><time>2026-03-28T09:19:53.874Z</time></trkpt><trkpt lat="44.05823933558719" lon="10.877133595915431"><ele>1093.2857142857142</ele><time>2026-03-28T09:19:57.874Z</time></trkpt><trkpt lat="44.05816956506795" lon="10.877151063277674"><ele>1094.857142857143</ele><time>2026-03-28T09:20:02.874Z</time></trkpt><trkpt lat="44.058106353013734" lon="10.877155964594174"><ele>1096.4285714285713</ele><time>2026-03-28T09:20:05.874Z</time></trkpt><trkpt lat="44.05803922013234" lon="10.877154768832954"><ele>1098.0</ele><time>2026-03-28T09:20:09.874Z</time></trkpt><trkpt lat="44.05795914252711" lon="10.877149654561405"><ele>1098.0</ele><time>2026-03-28T09:20:25.874Z</time></trkpt><trkpt lat="44.057884574170394" lon="10.87713445010777"><ele>1098.0</ele><time>2026-03-28T09:22:47.895Z</time></trkpt><trkpt lat="44.05782650588539" lon="10.87707749884206"><ele>1098.0</ele><time>2026-03-28T09:29:22.891Z</time></trkpt><trkpt lat="44.05777540644296" lon="10.877021532922793"><ele>1098.0</ele><time>2026-03-28T09:29:26.891Z</time></trkpt><trkpt lat="44.05771582130517" lon="10.876973240310358"><ele>1098.0</ele><time>2026-03-28T09:29:31.891Z</time></trkpt><trkpt lat="44.0576587954656" lon="10.876922555875753"><ele>1098.0</ele><time>2026-03-28T09:29:36.891Z</time></trkpt><trkpt lat="44.057600606449675" lon="10.876866791747496"><ele>1098.0</ele><time>2026-03-28T09:29:40.891Z</time></trkpt><trkpt lat="44.05752942078404" lon="10.876827646565262"><ele>1098.0</ele><time>2026-03-28T09:29:45.891Z</time></trkpt><trkpt lat="44.05747144148862" lon="10.876779810346823"><ele>1098.0</ele><time>2026-03-28T09:29:49.891Z</time></trkpt><trkpt lat="44.05740190275609" lon="10.876747734324788"><ele>1098.0</ele><time>2026-03-28T09:29:54.891Z</time></trkpt><trkpt lat="44.05733370445697" lon="10.876727998882252"><ele>1098.0</ele><time>2026-03-28T09:29:59.891Z</time></trkpt><trkpt lat="44.05727253830479" lon="10.876692672539855"><ele>1098.0</ele><time>2026-03-28T09:30:03.891Z</time></trkpt><trkpt lat="44.057204915683954" lon="10.876660083482442"><ele>1098.0</ele><time>2026-03-28T09:30:07.891Z</time></trkpt><trkpt lat="44.05713215847166" lon="10.876621576997655"><ele>1098.0</ele><time>2026-03-28T09:30:11.891Z</time></trkpt><trkpt lat="44.05706538950463" lon="10.87656322571794"><ele>1099.142857142857</ele><time>2026-03-28T09:30:15.891Z</time></trkpt><trkpt lat="44.057018022983485" lon="10.876482455061058"><ele>1100.2857142857142</ele><time>2026-03-28T09:30:19.891Z</time></trkpt><trkpt lat="44.05697750927777" lon="10.876384050236851"><ele>1101.4285714285716</ele><time>2026-03-28T09:30:23.891Z</time></trkpt><trkpt lat="44.05695353469148" lon="10.876298725189029"><ele>1102.5714285714284</ele><time>2026-03-28T09:30:27.891Z</time></trkpt><trkpt lat="44.0569145994052" lon="10.876211560134193"><ele>1103.7142857142858</ele><time>2026-03-28T09:30:31.891Z</time></trkpt><trkpt lat="44.056870673322166" lon="10.876146067767985"><ele>1104.857142857143</ele><time>2026-03-28T09:30:35.891Z</time></trkpt><trkpt lat="44.056820406209994" lon="10.876067793210707"><ele>1106.0</ele><time>2026-03-28T09:30:39.891Z</time></trkpt><trkpt lat="44.05677529616176" lon="10.87597466978181"><ele>1109.4285714285713</ele><time>2026-03-28T09:30:44.891Z</time></trkpt><trkpt lat="44.056723714397364" lon="10.875896972581575"><ele>1112.857142857143</ele><time>2026-03-28T09:30:49.891Z</time></trkpt><trkpt lat="44.056697569503136" lon="10.8758044771629"><ele>1116.2857142857142</ele><time>2026-03-28T09:30:52.891Z</time></trkpt><trkpt lat="44.056665848213726" lon="10.875717651964845"><ele>1119.7142857142858</ele><time>2026-03-28T09:30:55.891Z</time></trkpt><trkpt lat="44.056648712688016" lon="10.875623932540822"><ele>1123.142857142857</ele><time>2026-03-28T09:30:59.89Z</time></trkpt><trkpt lat="44.05664618031259" lon="10.875521448551037"><ele>1126.5714285714284</ele><time>2026-03-28T09:31:04.89Z</time></trkpt><trkpt lat="44.05663638764091" lon="10.875423272337537"><ele>1130.0</ele><time>2026-03-28T09:31:08.89Z</time></trkpt><trkpt lat="44.056635670888056" lon="10.875335578356177"><ele>1129.9999999999998</ele><time>2026-03-28T09:31:11.89Z</time></trkpt><trkpt lat="44.05661997036783" lon="10.875237859010085"><ele>1130.0</ele><time>2026-03-28T09:31:15.89Z</time></trkpt><trkpt lat="44.05661651229892" lon="10.875144583435777"><ele>1130.0</ele><time>2026-03-28T09:31:19.89Z</time></trkpt><trkpt lat="44.056641106396725" lon="10.875060155792237"><ele>1130.0</ele><time>2026-03-28T09:31:24.89Z</time></trkpt><trkpt lat="44.05668919476674" lon="10.874992089893981"><ele>1130.0</ele><time>2026-03-28T09:31:29.89Z</time></trkpt><trkpt lat="44.056741642690135" lon="10.874930293829317"><ele>1129.9999999999998</ele><time>2026-03-28T09:31:34.89Z</time></trkpt><trkpt lat="44.0567836752537" lon="10.874864575100434"><ele>1130.0</ele><time>2026-03-28T09:31:38.89Z</time></trkpt><trkpt lat="44.0568400638657" lon="10.87479622746394"><ele>1129.5</ele><time>2026-03-28T09:31:43.89Z</time></trkpt><trkpt lat="44.05689793657322" lon="10.874719205929953"><ele>1129.0</ele><time>2026-03-28T09:31:48.89Z</time></trkpt><trkpt lat="44.05696348294341" lon="10.874646787224197"><ele>1128.5</ele><time>2026-03-28T09:31:52.89Z</time></trkpt><trkpt lat="44.05701241908063" lon="10.874580074094565"><ele>1128.0</ele><time>2026-03-28T09:31:56.89Z</time></trkpt><trkpt lat="44.05706780814065" lon="10.874495798889992"><ele>1127.5</ele><time>2026-03-28T09:32:00.89Z</time></trkpt><trkpt lat="44.05712140805339" lon="10.874398108590217"><ele>1127.0</ele><time>2026-03-28T09:32:03.89Z</time></trkpt><trkpt lat="44.05717826575212" lon="10.87432772861203"><ele>1124.8333333333335</ele><time>2026-03-28T09:32:06.89Z</time></trkpt><trkpt lat="44.05723189701078" lon="10.87424482732243"><ele>1122.6666666666667</ele><time>2026-03-28T09:32:09.89Z</time></trkpt><trkpt lat="44.057281645713246" lon="10.874155346566994"><ele>1120.5</ele><time>2026-03-28T09:32:12.89Z</time></trkpt><trkpt lat="44.057299962890276" lon="10.874069640024956"><ele>1118.3333333333333</ele><time>2026-03-28T09:32:16.89Z</time></trkpt><trkpt lat="44.05729366702159" lon="10.873965804195683"><ele>1116.1666666666665</ele><time>2026-03-28T09:32:22.89Z</time></trkpt><trkpt lat="44.05725194972611" lon="10.873871063164223"><ele>1114.0</ele><time>2026-03-28T09:32:28.89Z</time></trkpt><trkpt lat="44.05720449595222" lon="10.873788815981268"><ele>1114.0</ele><time>2026-03-28T09:32:32.89Z</time></trkpt><trkpt lat="44.05714644574252" lon="10.873706535511856"><ele>1114.0</ele><time>2026-03-28T09:32:36.89Z</time></trkpt><trkpt lat="44.0571085719379" lon="10.873620144530536"><ele>1114.0</ele><time>2026-03-28T09:32:39.89Z</time></trkpt><trkpt lat="44.05706499821621" lon="10.873539129541118"><ele>1114.0</ele><time>2026-03-28T09:32:42.89Z</time></trkpt><trkpt lat="44.0570185103184" lon="10.873474308131996"><ele>1114.0</ele><time>2026-03-28T09:32:46.89Z</time></trkpt><trkpt lat="44.05695661014469" lon="10.873385788099979"><ele>1114.0</ele><time>2026-03-28T09:32:50.89Z</time></trkpt><trkpt lat="44.05689370217158" lon="10.87332590240736"><ele>1113.7142857142858</ele><time>2026-03-28T09:32:54.89Z</time></trkpt><trkpt lat="44.056834985160755" lon="10.87326905539915"><ele>1113.4285714285713</ele><time>2026-03-28T09:32:57.89Z</time></trkpt><trkpt lat="44.05678182567559" lon="10.87320130817052"><ele>1113.142857142857</ele><time>2026-03-28T09:33:00.89Z</time></trkpt><trkpt lat="44.056737678449686" lon="10.873135802870074"><ele>1112.857142857143</ele><time>2026-03-28T09:33:03.89Z</time></trkpt><trkpt lat="44.056687644913815" lon="10.87305781453697"><ele>1112.5714285714287</ele><time>2026-03-28T09:33:06.89Z</time></trkpt><trkpt lat="44.05665691691144" lon="10.872969223548122"><ele>1112.2857142857142</ele><time>2026-03-28T09:33:09.89Z</time></trkpt><trkpt lat="44.05662371564683" lon="10.872881871037698"><ele>1112.0</ele><time>2026-03-28T09:33:12.89Z</time></trkpt><trkpt lat="44.056599152892744" lon="10.872785941012724"><ele>1109.7142857142858</ele><time>2026-03-28T09:33:15.89Z</time></trkpt><trkpt lat="44.056559412492916" lon="10.872708562104329"><ele>1107.4285714285716</ele><time>2026-03-28T09:33:18.889Z</time></trkpt><trkpt lat="44.05651897315945" lon="10.872618341134189"><ele>1105.1428571428573</ele><time>2026-03-28T09:33:21.889Z</time></trkpt><trkpt lat="44.05647454148584" lon="10.872552577671563"><ele>1102.857142857143</ele><time>2026-03-28T09:33:24.889Z</time></trkpt><trkpt lat="44.05641129085047" lon="10.872473926026911"><ele>1100.5714285714287</ele><time>2026-03-28T09:33:27.889Z</time></trkpt><trkpt lat="44.056370377854186" lon="10.872407122721203"><ele>1098.2857142857144</ele><time>2026-03-28T09:33:30.889Z</time></trkpt><trkpt lat="44.05632934873161" lon="10.872339195507278"><ele>1096.0</ele><time>2026-03-28T09:33:33.889Z</time></trkpt><trkpt lat="44.05630128356075" lon="10.872234266693544"><ele>1096.0</ele><time>2026-03-28T09:33:36.889Z</time></trkpt><trkpt lat="44.05628097487945" lon="10.872121478504242"><ele>1096.0</ele><time>2026-03-28T09:33:39.889Z</time></trkpt><trkpt lat="44.056276108776125" lon="10.872014589936844"><ele>1096.0</ele><time>2026-03-28T09:33:42.889Z</time></trkpt><trkpt lat="44.0562494193373" lon="10.871903624628828"><ele>1096.0</ele><time>2026-03-28T09:33:45.889Z</time></trkpt><trkpt lat="44.056243961157854" lon="10.871799009610868"><ele>1096.0</ele><time>2026-03-28T09:33:48.889Z</time></trkpt><trkpt lat="44.05624052251838" lon="10.871688421202139"><ele>1096.0</ele><time>2026-03-28T09:33:51.889Z</time></trkpt><trkpt lat="44.05622985164136" lon="10.871558777322235"><ele>1097.1666666666665</ele><time>2026-03-28T09:33:55.889Z</time></trkpt><trkpt lat="44.056239538635765" lon="10.87143274837633"><ele>1098.3333333333333</ele><time>2026-03-28T09:33:58.889Z</time></trkpt><trkpt lat="44.056252009321454" lon="10.871332541471803"><ele>1099.5</ele><time>2026-03-28T09:34:01.889Z</time></trkpt><trkpt lat="44.05626381805398" lon="10.871243331973895"><ele>1100.6666666666667</ele><time>2026-03-28T09:34:04.889Z</time></trkpt><trkpt lat="44.05631931930713" lon="10.871168483176746"><ele>1101.8333333333335</ele><time>2026-03-28T09:34:09.889Z</time></trkpt><trkpt lat="44.05638021838764" lon="10.871111295575021"><ele>1103.0</ele><time>2026-03-28T09:34:13.889Z</time></trkpt><trkpt lat="44.0564472874364" lon="10.871076703742277"><ele>1103.0</ele><time>2026-03-28T09:34:16.889Z</time></trkpt><trkpt lat="44.05652733379263" lon="10.871038436194683"><ele>1103.0</ele><time>2026-03-28T09:34:21.888Z</time></trkpt><trkpt lat="44.056587944947935" lon="10.870975003246032"><ele>1103.0</ele><time>2026-03-28T09:34:27.888Z</time></trkpt><trkpt lat="44.05660972055317" lon="10.870890014596654"><ele>1103.0</ele><time>2026-03-28T09:34:30.888Z</time></trkpt><trkpt lat="44.05661606150884" lon="10.87077638786009"><ele>1103.0</ele><time>2026-03-28T09:34:33.888Z</time></trkpt><trkpt lat="44.05663203638068" lon="10.870675329251533"><ele>1103.0</ele><time>2026-03-28T09:34:36.888Z</time></trkpt><trkpt lat="44.05665671349017" lon="10.870571033977164"><ele>1106.8333333333335</ele><time>2026-03-28T09:34:40.888Z</time></trkpt><trkpt lat="44.05668986648359" lon="10.870490754980924"><ele>1110.6666666666667</ele><time>2026-03-28T09:34:42.888Z</time></trkpt><trkpt lat="44.05671606286124" lon="10.870394911313355"><ele>1114.5</ele><time>2026-03-28T09:34:45.888Z</time></trkpt><trkpt lat="44.05674672226209" lon="10.870300013223076"><ele>1118.3333333333333</ele><time>2026-03-28T09:34:47.888Z</time></trkpt><trkpt lat="44.0567771080271" lon="10.870213793939358"><ele>1122.1666666666665</ele><time>2026-03-28T09:34:51.888Z</time></trkpt><trkpt lat="44.05683505651554" lon="10.870165275083494"><ele>1126.0</ele><time>2026-03-28T09:34:54.888Z</time></trkpt><trkpt lat="44.056932328485566" lon="10.870147307901108"><ele>1126.0</ele><time>2026-03-28T09:34:58.888Z</time></trkpt><trkpt lat="44.05700370205724" lon="10.870135162885935"><ele>1126.0</ele><time>2026-03-28T09:35:01.888Z</time></trkpt><trkpt lat="44.05706655095501" lon="10.870076466136506"><ele>1126.0</ele><time>2026-03-28T09:35:05.888Z</time></trkpt><trkpt lat="44.05711019274365" lon="10.869992214180352"><ele>1126.0</ele><time>2026-03-28T09:35:09.888Z</time></trkpt><trkpt lat="44.05716284645424" lon="10.869923412583557"><ele>1126.0</ele><time>2026-03-28T09:35:12.888Z</time></trkpt><trkpt lat="44.05723979416856" lon="10.869910884617173"><ele>1126.0</ele><time>2026-03-28T09:35:15.888Z</time></trkpt><trkpt lat="44.05731080734402" lon="10.869884303450352"><ele>1126.0</ele><time>2026-03-28T09:35:18.888Z</time></trkpt><trkpt lat="44.05737480929301" lon="10.869871437311152"><ele>1126.4285714285713</ele><time>2026-03-28T09:35:21.888Z</time></trkpt><trkpt lat="44.05745805545147" lon="10.869862691066785"><ele>1126.857142857143</ele><time>2026-03-28T09:35:24.888Z</time></trkpt><trkpt lat="44.0575211217343" lon="10.869872905286522"><ele>1127.2857142857142</ele><time>2026-03-28T09:35:27.888Z</time></trkpt><trkpt lat="44.05758732034312" lon="10.869833216049678"><ele>1127.7142857142858</ele><time>2026-03-28T09:35:30.888Z</time></trkpt><trkpt lat="44.05764436317758" lon="10.869781338130295"><ele>1128.142857142857</ele><time>2026-03-28T09:35:34.888Z</time></trkpt><trkpt lat="44.057669789468115" lon="10.869700915640014"><ele>1128.5714285714284</ele><time>2026-03-28T09:35:38.888Z</time></trkpt><trkpt lat="44.057724476476835" lon="10.869654318397263"><ele>1129.0</ele><time>2026-03-28T09:35:40.888Z</time></trkpt><trkpt lat="44.057784255678754" lon="10.869616323619624"><ele>1129.0</ele><time>2026-03-28T09:35:43.888Z</time></trkpt><trkpt lat="44.05785507341173" lon="10.869551804209127"><ele>1129.0</ele><time>2026-03-28T09:35:46.888Z</time></trkpt><trkpt lat="44.05792685565088" lon="10.869491489686167"><ele>1129.0</ele><time>2026-03-28T09:35:50.888Z</time></trkpt><trkpt lat="44.05794451530648" lon="10.86938950086892"><ele>1129.0</ele><time>2026-03-28T09:35:53.888Z</time></trkpt><trkpt lat="44.057978631166534" lon="10.869307364204817"><ele>1129.0</ele><time>2026-03-28T09:35:56.888Z</time></trkpt><trkpt lat="44.05799335713789" lon="10.869217370097958"><ele>1129.0</ele><time>2026-03-28T09:36:00.889Z</time></trkpt><trkpt lat="44.05802416002833" lon="10.86913548346885"><ele>1129.0</ele><time>2026-03-28T09:36:02.889Z</time></trkpt><trkpt lat="44.05803665106621" lon="10.869038502915519"><ele>1125.2857142857142</ele><time>2026-03-28T09:36:04.888Z</time></trkpt><trkpt lat="44.05805091607502" lon="10.868931681871212"><ele>1121.5714285714284</ele><time>2026-03-28T09:36:07.888Z</time></trkpt><trkpt lat="44.05805201878506" lon="10.86882985441592"><ele>1117.857142857143</ele><time>2026-03-28T09:36:09.888Z</time></trkpt><trkpt lat="44.058045277195845" lon="10.868733588226972"><ele>1114.142857142857</ele><time>2026-03-28T09:36:12.888Z</time></trkpt><trkpt lat="44.05803577234895" lon="10.868631592572596"><ele>1110.4285714285716</ele><time>2026-03-28T09:36:15.888Z</time></trkpt><trkpt lat="44.05802811821276" lon="10.868531572717801"><ele>1106.7142857142858</ele><time>2026-03-28T09:36:18.888Z</time></trkpt><trkpt lat="44.05803023014353" lon="10.868441572326262"><ele>1103.0</ele><time>2026-03-28T09:36:21.888Z</time></trkpt><trkpt lat="44.05801211101448" lon="10.868346946865977"><ele>1101.6666666666667</ele><time>2026-03-28T09:36:25.888Z</time></trkpt><trkpt lat="44.05799084031502" lon="10.868245633811263"><ele>1100.3333333333335</ele><time>2026-03-28T09:36:28.888Z</time></trkpt><trkpt lat="44.05796702109416" lon="10.868154509242663"><ele>1099.0</ele><time>2026-03-28T09:36:31.888Z</time></trkpt><trkpt lat="44.05795006722246" lon="10.868037577480216"><ele>1097.6666666666667</ele><time>2026-03-28T09:36:34.888Z</time></trkpt><trkpt lat="44.05791269048939" lon="10.867949598275452"><ele>1096.3333333333333</ele><time>2026-03-28T09:36:36.888Z</time></trkpt><trkpt lat="44.05787508677757" lon="10.867855710967357"><ele>1095.0</ele><time>2026-03-28T09:36:38.888Z</time></trkpt><trkpt lat="44.057845157904794" lon="10.867746262542196"><ele>1094.9999999999998</ele><time>2026-03-28T09:36:41.888Z</time></trkpt><trkpt lat="44.057837016246395" lon="10.867635524185426"><ele>1095.0</ele><time>2026-03-28T09:36:45.888Z</time></trkpt><trkpt lat="44.05784318684523" lon="10.867547239820068"><ele>1095.0</ele><time>2026-03-28T09:36:48.888Z</time></trkpt><trkpt lat="44.05783789892668" lon="10.867458825640883"><ele>1095.0</ele><time>2026-03-28T09:36:52.888Z</time></trkpt><trkpt lat="44.0578071777836" lon="10.8673491425322"><ele>1095.0</ele><time>2026-03-28T09:38:54.875Z</time></trkpt><trkpt lat="44.05780046896" lon="10.867255115104166"><ele>1094.9999999999998</ele><time>2026-03-28T09:39:00.875Z</time></trkpt><trkpt lat="44.057784951895684" lon="10.8671470445001"><ele>1095.0</ele><time>2026-03-28T09:39:04.875Z</time></trkpt><trkpt lat="44.05778306500952" lon="10.867029201220443"><ele>1095.6666666666667</ele><time>2026-03-28T09:39:07.874Z</time></trkpt><trkpt lat="44.05777762174074" lon="10.86693373550739"><ele>1096.3333333333333</ele><time>2026-03-28T09:39:10.874Z</time></trkpt><trkpt lat="44.057781403704624" lon="10.866822229705095"><ele>1097.0</ele><time>2026-03-28T09:39:13.874Z</time></trkpt><trkpt lat="44.05779881968036" lon="10.866706251921478"><ele>1097.6666666666665</ele><time>2026-03-28T09:39:16.874Z</time></trkpt><trkpt lat="44.05781297703021" lon="10.866604583173537"><ele>1098.3333333333333</ele><time>2026-03-28T09:39:19.874Z</time></trkpt><trkpt lat="44.05783139984036" lon="10.866495629713501"><ele>1099.0</ele><time>2026-03-28T09:39:23.874Z</time></trkpt><trkpt lat="44.05784961429038" lon="10.866392869758643"><ele>1099.2857142857142</ele><time>2026-03-28T09:39:26.874Z</time></trkpt><trkpt lat="44.057878164666285" lon="10.86629204119198"><ele>1099.5714285714284</ele><time>2026-03-28T09:39:29.874Z</time></trkpt><trkpt lat="44.05791137989605" lon="10.866202916250874"><ele>1099.857142857143</ele><time>2026-03-28T09:39:32.874Z</time></trkpt><trkpt lat="44.05794315734839" lon="10.866123593197672"><ele>1100.142857142857</ele><time>2026-03-28T09:39:35.874Z</time></trkpt><trkpt lat="44.057990392266696" lon="10.866038508741484"><ele>1100.4285714285713</ele><time>2026-03-28T09:39:38.874Z</time></trkpt><trkpt lat="44.05802165838752" lon="10.86595800751409"><ele>1100.7142857142858</ele><time>2026-03-28T09:39:41.874Z</time></trkpt><trkpt lat="44.058056421492765" lon="10.865862728594458"><ele>1101.0</ele><time>2026-03-28T09:39:44.874Z</time></trkpt><trkpt lat="44.05808904905969" lon="10.865785079467225"><ele>1100.1666666666667</ele><time>2026-03-28T09:39:46.874Z</time></trkpt><trkpt lat="44.05812485360356" lon="10.865694586877666"><ele>1099.3333333333333</ele><time>2026-03-28T09:39:49.874Z</time></trkpt><trkpt lat="44.058164063996486" lon="10.865586834848278"><ele>1098.5</ele><time>2026-03-28T09:39:52.874Z</time></trkpt><trkpt lat="44.05820216854882" lon="10.865514277767273"><ele>1097.6666666666665</ele><time>2026-03-28T09:39:55.874Z</time></trkpt><trkpt lat="44.05824156885625" lon="10.86543692403276"><ele>1096.8333333333333</ele><time>2026-03-28T09:39:58.874Z</time></trkpt><trkpt lat="44.05830357359339" lon="10.865340494217735"><ele>1096.0</ele><time>2026-03-28T09:40:02.874Z</time></trkpt><trkpt lat="44.05837318920651" lon="10.86528301269073"><ele>1099.1428571428573</ele><time>2026-03-28T09:40:05.874Z</time></trkpt><trkpt lat="44.05843091736388" lon="10.865235288920783"><ele>1102.2857142857142</ele><time>2026-03-28T09:40:08.874Z</time></trkpt><trkpt lat="44.05851447672462" lon="10.865184563098483"><ele>1105.4285714285716</ele><time>2026-03-28T09:40:11.874Z</time></trkpt><trkpt lat="44.05857640505078" lon="10.865145648379787"><ele>1108.5714285714287</ele><time>2026-03-28T09:40:13.874Z</time></trkpt><trkpt lat="44.05864306189373" lon="10.865125586954615"><ele>1111.7142857142858</ele><time>2026-03-28T09:40:16.873Z</time></trkpt><trkpt lat="44.05871215843076" lon="10.865097245672674"><ele>1114.857142857143</ele><time>2026-03-28T09:40:19.874Z</time></trkpt><trkpt lat="44.058776214844826" lon="10.865058729433365"><ele>1118.0</ele><time>2026-03-28T09:40:22.873Z</time></trkpt><trkpt lat="44.05882858948392" lon="10.86499709099568"><ele>1118.0</ele><time>2026-03-28T09:40:26.874Z</time></trkpt><trkpt lat="44.05885018248543" lon="10.864906390173749"><ele>1118.0</ele><time>2026-03-28T09:40:29.874Z</time></trkpt><trkpt lat="44.05889737429143" lon="10.864796312375157"><ele>1118.0</ele><time>2026-03-28T09:40:32.874Z</time></trkpt><trkpt lat="44.058940038708066" lon="10.864686487317314"><ele>1118.0</ele><time>2026-03-28T09:40:35.874Z</time></trkpt><trkpt lat="44.05899104378585" lon="10.864591365220825"><ele>1118.0</ele><time>2026-03-28T09:40:38.874Z</time></trkpt><trkpt lat="44.05905895809406" lon="10.864507577606703"><ele>1118.0</ele><time>2026-03-28T09:40:41.873Z</time></trkpt><trkpt lat="44.05912937395277" lon="10.86443776120962"><ele>1118.0</ele><time>2026-03-28T09:40:44.873Z</time></trkpt><trkpt lat="44.05918980834235" lon="10.864362411820345"><ele>1118.0</ele><time>2026-03-28T09:40:47.873Z</time></trkpt><trkpt lat="44.05925005759518" lon="10.864269252916523"><ele>1118.0</ele><time>2026-03-28T09:40:50.873Z</time></trkpt><trkpt lat="44.05930730938393" lon="10.8641959163045"><ele>1118.0</ele><time>2026-03-28T09:40:53.873Z</time></trkpt><trkpt lat="44.059379124162874" lon="10.86414291967944"><ele>1118.0</ele><time>2026-03-28T09:40:56.873Z</time></trkpt><trkpt lat="44.059458727958926" lon="10.86409648225966"><ele>1118.0</ele><time>2026-03-28T09:40:59.873Z</time></trkpt><trkpt lat="44.05953613197007" lon="10.864025125387968"><ele>1118.0</ele><time>2026-03-28T09:41:02.873Z</time></trkpt><trkpt lat="44.05960703889849" lon="10.863977316036003"><ele>1118.0</ele><time>2026-03-28T09:41:05.873Z</time></trkpt><trkpt lat="44.059650965237815" lon="10.863896979530484"><ele>1118.0</ele><time>2026-03-28T09:41:08.873Z</time></trkpt><trkpt lat="44.05967657509774" lon="10.86377317534959"><ele>1118.0</ele><time>2026-03-28T09:41:11.873Z</time></trkpt><trkpt lat="44.059711080421465" lon="10.863691449107712"><ele>1118.0</ele><time>2026-03-28T09:41:13.873Z</time></trkpt><trkpt lat="44.05977836008938" lon="10.863608208595021"><ele>1118.0</ele><time>2026-03-28T09:41:17.873Z</time></trkpt><trkpt lat="44.05984734194901" lon="10.863553038139605"><ele>1118.0</ele><time>2026-03-28T09:41:20.873Z</time></trkpt><trkpt lat="44.05992017410659" lon="10.863506874823795"><ele>1118.0</ele><time>2026-03-28T09:41:23.873Z</time></trkpt><trkpt lat="44.05996353876214" lon="10.863429481665362"><ele>1118.0</ele><time>2026-03-28T09:41:26.873Z</time></trkpt><trkpt lat="44.06000057456978" lon="10.863337384698966"><ele>1118.0</ele><time>2026-03-28T09:41:30.873Z</time></trkpt><trkpt lat="44.06000400538474" lon="10.863219620890536"><ele>1118.0</ele><time>2026-03-28T09:41:34.873Z</time></trkpt><trkpt lat="44.06001438418166" lon="10.863106569232016"><ele>1118.0</ele><time>2026-03-28T09:41:37.873Z</time></trkpt><trkpt lat="44.060033548313086" lon="10.8630200640445"><ele>1119.5714285714287</ele><time>2026-03-28T09:41:39.873Z</time></trkpt><trkpt lat="44.060028441592294" lon="10.862928018983022"><ele>1121.1428571428573</ele><time>2026-03-28T09:41:41.873Z</time></trkpt><trkpt lat="44.060009563369746" lon="10.862844085879194"><ele>1122.7142857142858</ele><time>2026-03-28T09:41:44.873Z</time></trkpt><trkpt lat="44.0600068206188" lon="10.862755177314789"><ele>1124.2857142857142</ele><time>2026-03-28T09:41:47.873Z</time></trkpt><trkpt lat="44.05999205918545" lon="10.862655716434725"><ele>1125.8571428571427</ele><time>2026-03-28T09:41:50.873Z</time></trkpt><trkpt lat="44.05998474864497" lon="10.862560019394031"><ele>1127.4285714285713</ele><time>2026-03-28T09:41:52.873Z</time></trkpt><trkpt lat="44.05996869860199" lon="10.862454280088134"><ele>1129.0</ele><time>2026-03-28T09:41:55.873Z</time></trkpt><trkpt lat="44.05993899819401" lon="10.86236676048211"><ele>1122.1666666666665</ele><time>2026-03-28T09:41:59.873Z</time></trkpt><trkpt lat="44.059898184482755" lon="10.862294161708277"><ele>1115.3333333333333</ele><time>2026-03-28T09:42:02.873Z</time></trkpt><trkpt lat="44.059865295505226" lon="10.862200122766467"><ele>1108.5</ele><time>2026-03-28T09:42:05.873Z</time></trkpt><trkpt lat="44.05984742246186" lon="10.862078419465465"><ele>1101.6666666666667</ele><time>2026-03-28T09:42:09.873Z</time></trkpt><trkpt lat="44.05983419526687" lon="10.86195320936028"><ele>1094.8333333333335</ele><time>2026-03-28T09:42:11.873Z</time></trkpt><trkpt lat="44.05982693458603" lon="10.861850079265105"><ele>1088.0</ele><time>2026-03-28T09:42:13.873Z</time></trkpt><trkpt lat="44.059813155844175" lon="10.861732606170568"><ele>1088.0</ele><time>2026-03-28T09:42:16.873Z</time></trkpt><trkpt lat="44.05982139345862" lon="10.861635469185861"><ele>1088.0</ele><time>2026-03-28T09:42:19.873Z</time></trkpt><trkpt lat="44.05979284921525" lon="10.861510958009763"><ele>1088.0</ele><time>2026-03-28T09:42:22.873Z</time></trkpt><trkpt lat="44.059770098005764" lon="10.861416364476263"><ele>1088.0</ele><time>2026-03-28T09:42:25.873Z</time></trkpt><trkpt lat="44.05977371194035" lon="10.86131276147313"><ele>1088.0</ele><time>2026-03-28T09:42:29.873Z</time></trkpt><trkpt lat="44.05975561847168" lon="10.861215898911585"><ele>1088.0</ele><time>2026-03-28T09:42:32.872Z</time></trkpt><trkpt lat="44.05974037579336" lon="10.861120739327715"><ele>1087.9999999999998</ele><time>2026-03-28T09:42:35.872Z</time></trkpt><trkpt lat="44.05971025307597" lon="10.861027484704614"><ele>1088.0</ele><time>2026-03-28T09:42:38.872Z</time></trkpt><trkpt lat="44.05968941710146" lon="10.860944216450665"><ele>1088.0</ele><time>2026-03-28T09:42:41.872Z</time></trkpt><trkpt lat="44.05967375418313" lon="10.860842333621571"><ele>1088.0</ele><time>2026-03-28T09:42:44.872Z</time></trkpt><trkpt lat="44.0596382067283" lon="10.86076376707348"><ele>1088.0</ele><time>2026-03-28T09:42:47.872Z</time></trkpt><trkpt lat="44.05957426650046" lon="10.860714607651602"><ele>1087.9999999999998</ele><time>2026-03-28T09:42:51.872Z</time></trkpt><trkpt lat="44.05951269183443" lon="10.8606621834424"><ele>1088.0</ele><time>2026-03-28T09:42:54.872Z</time></trkpt><trkpt lat="44.05944498369583" lon="10.860607370538341"><ele>1091.8333333333335</ele><time>2026-03-28T09:42:56.872Z</time></trkpt><trkpt lat="44.05938825874183" lon="10.860543200632907"><ele>1095.6666666666667</ele><time>2026-03-28T09:42:58.872Z</time></trkpt><trkpt lat="44.0593318613872" lon="10.860455532471194"><ele>1099.5</ele><time>2026-03-28T09:43:00.872Z</time></trkpt><trkpt lat="44.05927174434349" lon="10.860402911195353"><ele>1103.3333333333333</ele><time>2026-03-28T09:43:02.872Z</time></trkpt><trkpt lat="44.05921486462968" lon="10.86030702841102"><ele>1107.1666666666665</ele><time>2026-03-28T09:43:05.872Z</time></trkpt><trkpt lat="44.05917248922391" lon="10.86024191427552"><ele>1111.0</ele><time>2026-03-28T09:43:07.872Z</time></trkpt><trkpt lat="44.05911343517911" lon="10.86016623247351"><ele>1107.8333333333333</ele><time>2026-03-28T09:43:10.872Z</time></trkpt><trkpt lat="44.059057730012356" lon="10.860080594485563"><ele>1104.6666666666665</ele><time>2026-03-28T09:43:13.872Z</time></trkpt><trkpt lat="44.05900006411644" lon="10.860011157312107"><ele>1101.5</ele><time>2026-03-28T09:43:15.872Z</time></trkpt><trkpt lat="44.05891535388713" lon="10.859954915011656"><ele>1098.3333333333333</ele><time>2026-03-28T09:43:18.872Z</time></trkpt><trkpt lat="44.058846543881195" lon="10.859886820767835"><ele>1095.1666666666667</ele><time>2026-03-28T09:43:21.872Z</time></trkpt><trkpt lat="44.0587687089975" lon="10.859795076998514"><ele>1092.0</ele><time>2026-03-28T09:43:24.872Z</time></trkpt><trkpt lat="44.058690233312056" lon="10.859712425584195"><ele>1092.0</ele><time>2026-03-28T09:43:27.872Z</time></trkpt><trkpt lat="44.05864045136915" lon="10.859641695624227"><ele>1092.0</ele><time>2026-03-28T09:43:29.872Z</time></trkpt><trkpt lat="44.0585867651687" lon="10.859548716169535"><ele>1092.0</ele><time>2026-03-28T09:43:32.872Z</time></trkpt><trkpt lat="44.05856084336745" lon="10.859442119287925"><ele>1092.0</ele><time>2026-03-28T09:43:35.872Z</time></trkpt><trkpt lat="44.05854876408155" lon="10.859342167532414"><ele>1092.0</ele><time>2026-03-28T09:43:38.872Z</time></trkpt><trkpt lat="44.05854584488344" lon="10.85924190350152"><ele>1092.0</ele><time>2026-03-28T09:43:41.872Z</time></trkpt><trkpt lat="44.05856173699297" lon="10.859151809574803"><ele>1092.0</ele><time>2026-03-28T09:43:44.872Z</time></trkpt><trkpt lat="44.05857344307448" lon="10.859038680806425"><ele>1095.3333333333333</ele><time>2026-03-28T09:43:49.872Z</time></trkpt><trkpt lat="44.05860831767439" lon="10.85896388888892"><ele>1098.6666666666667</ele><time>2026-03-28T09:43:53.872Z</time></trkpt><trkpt lat="44.05865712875999" lon="10.858874658235935"><ele>1102.0</ele><time>2026-03-28T09:43:56.872Z</time></trkpt><trkpt lat="44.058697770777016" lon="10.858776254872648"><ele>1105.3333333333335</ele><time>2026-03-28T09:43:59.872Z</time></trkpt><trkpt lat="44.058746529867314" lon="10.858680788958505"><ele>1108.6666666666667</ele><time>2026-03-28T09:44:02.871Z</time></trkpt><trkpt lat="44.05878882747762" lon="10.858573180652257"><ele>1112.0</ele><time>2026-03-28T09:44:05.871Z</time></trkpt><trkpt lat="44.05882505653057" lon="10.85847723038677"><ele>1109.3333333333335</ele><time>2026-03-28T09:44:08.871Z</time></trkpt><trkpt lat="44.0588431292773" lon="10.858373663563992"><ele>1106.6666666666667</ele><time>2026-03-28T09:44:11.871Z</time></trkpt><trkpt lat="44.05886989928183" lon="10.85829182484669"><ele>1104.0</ele><time>2026-03-28T09:44:13.871Z</time></trkpt><trkpt lat="44.05888846445677" lon="10.858179342373765"><ele>1101.3333333333333</ele><time>2026-03-28T09:44:16.871Z</time></trkpt><trkpt lat="44.05891730153142" lon="10.858079547575565"><ele>1098.6666666666665</ele><time>2026-03-28T09:44:18.871Z</time></trkpt><trkpt lat="44.058954981660605" lon="10.85799341511156"><ele>1096.0</ele><time>2026-03-28T09:44:21.871Z</time></trkpt><trkpt lat="44.058997728212944" lon="10.857861463765461"><ele>1096.0</ele><time>2026-03-28T09:44:24.872Z</time></trkpt><trkpt lat="44.05903502794773" lon="10.857765806666324"><ele>1096.0</ele><time>2026-03-28T09:44:26.872Z</time></trkpt><trkpt lat="44.059078568788216" lon="10.857684763684679"><ele>1096.0</ele><time>2026-03-28T09:44:28.872Z</time></trkpt><trkpt lat="44.05911945281797" lon="10.857603758011953"><ele>1096.0</ele><time>2026-03-28T09:44:30.872Z</time></trkpt><trkpt lat="44.059193004326566" lon="10.85750613434449"><ele>1096.0</ele><time>2026-03-28T09:44:33.872Z</time></trkpt><trkpt lat="44.059249287311076" lon="10.857458447465916"><ele>1096.0</ele><time>2026-03-28T09:44:35.872Z</time></trkpt><trkpt lat="44.059305882502805" lon="10.857416480942828"><ele>1099.6666666666665</ele><time>2026-03-28T09:44:37.872Z</time></trkpt><trkpt lat="44.05935949778735" lon="10.857365517545684"><ele>1103.3333333333333</ele><time>2026-03-28T09:44:39.872Z</time></trkpt><trkpt lat="44.05944107703462" lon="10.857320668609036"><ele>1107.0</ele><time>2026-03-28T09:44:41.872Z</time></trkpt><trkpt lat="44.0595341070037" lon="10.857280734778126"><ele>1110.6666666666667</ele><time>2026-03-28T09:44:44.872Z</time></trkpt><trkpt lat="44.05961849987919" lon="10.857239796747384"><ele>1114.3333333333335</ele><time>2026-03-28T09:44:47.872Z</time></trkpt><trkpt lat="44.05968223459282" lon="10.857232687471704"><ele>1118.0</ele><time>2026-03-28T09:44:49.872Z</time></trkpt><trkpt lat="44.0597449622473" lon="10.857242314554925"><ele>1118.0</ele><time>2026-03-28T09:44:51.872Z</time></trkpt><trkpt lat="44.05983111942829" lon="10.857236357555749"><ele>1118.0</ele><time>2026-03-28T09:44:54.872Z</time></trkpt><trkpt lat="44.05989911901362" lon="10.857251119733103"><ele>1118.0</ele><time>2026-03-28T09:44:56.872Z</time></trkpt><trkpt lat="44.05996235970956" lon="10.857293865409465"><ele>1118.0</ele><time>2026-03-28T09:44:59.872Z</time></trkpt><trkpt lat="44.06004664190522" lon="10.857343977769114"><ele>1118.0</ele><time>2026-03-28T09:45:02.872Z</time></trkpt><trkpt lat="44.06011850003808" lon="10.857399543693704"><ele>1118.0</ele><time>2026-03-28T09:45:05.872Z</time></trkpt><trkpt lat="44.06017584945023" lon="10.857481919722247"><ele>1119.857142857143</ele><time>2026-03-28T09:45:08.872Z</time></trkpt><trkpt lat="44.060236161127975" lon="10.857562343995637"><ele>1121.7142857142858</ele><time>2026-03-28T09:45:11.872Z</time></trkpt><trkpt lat="44.06028572393548" lon="10.857640037085526"><ele>1123.5714285714287</ele><time>2026-03-28T09:45:14.872Z</time></trkpt><trkpt lat="44.060328579395154" lon="10.857711142715592"><ele>1125.4285714285716</ele><time>2026-03-28T09:45:16.872Z</time></trkpt><trkpt lat="44.06036716818327" lon="10.857780813298398"><ele>1127.2857142857142</ele><time>2026-03-28T09:45:19.872Z</time></trkpt><trkpt lat="44.06040737884228" lon="10.857853370147138"><ele>1129.1428571428573</ele><time>2026-03-28T09:45:21.872Z</time></trkpt><trkpt lat="44.060451521316786" lon="10.857945651273328"><ele>1131.0</ele><time>2026-03-28T09:45:24.872Z</time></trkpt><trkpt lat="44.060501882270025" lon="10.858026833408395"><ele>1131.1666666666667</ele><time>2026-03-28T09:45:27.872Z</time></trkpt><trkpt lat="44.06055455313328" lon="10.85808213881863"><ele>1131.3333333333333</ele><time>2026-03-28T09:45:29.872Z</time></trkpt><trkpt lat="44.060630738353765" lon="10.858136595764266"><ele>1131.5</ele><time>2026-03-28T09:45:32.872Z</time></trkpt><trkpt lat="44.06070328355006" lon="10.858175763913566"><ele>1131.6666666666665</ele><time>2026-03-28T09:45:35.872Z</time></trkpt><trkpt lat="44.060783997355045" lon="10.858175514806614"><ele>1131.8333333333333</ele><time>2026-03-28T09:45:38.872Z</time></trkpt><trkpt lat="44.060853741610096" lon="10.858132348036047"><ele>1132.0</ele><time>2026-03-28T09:45:41.872Z</time></trkpt><trkpt lat="44.060920487303946" lon="10.858140159393217"><ele>1132.0</ele><time>2026-03-28T09:45:43.872Z</time></trkpt><trkpt lat="44.0609996721725" lon="10.858155299365304"><ele>1132.0</ele><time>2026-03-28T09:45:46.872Z</time></trkpt><trkpt lat="44.06107571311221" lon="10.858150143212683"><ele>1132.0</ele><time>2026-03-28T09:45:48.872Z</time></trkpt><trkpt lat="44.061166556549104" lon="10.85816438669429"><ele>1132.0</ele><time>2026-03-28T09:45:51.872Z</time></trkpt><trkpt lat="44.06124536415912" lon="10.858168823814578"><ele>1132.0</ele><time>2026-03-28T09:45:55.872Z</time></trkpt><trkpt lat="44.06130690311694" lon="10.858190417212395"><ele>1132.0</ele><time>2026-03-28T09:45:57.872Z</time></trkpt><trkpt lat="44.06138772131782" lon="10.858167082292034"><ele>1132.0</ele><time>2026-03-28T09:46:00.872Z</time></trkpt><trkpt lat="44.061451329104685" lon="10.858126907629371"><ele>1132.0</ele><time>2026-03-28T09:46:02.872Z</time></trkpt><trkpt lat="44.06149686699959" lon="10.858060142045362"><ele>1132.0</ele><time>2026-03-28T09:46:09.872Z</time></trkpt><trkpt lat="44.061521501273575" lon="10.857951794543952"><ele>1132.0</ele><time>2026-03-28T09:46:13.872Z</time></trkpt><trkpt lat="44.06153649697214" lon="10.857841847041382"><ele>1132.0</ele><time>2026-03-28T09:46:17.872Z</time></trkpt><trkpt lat="44.0615231190149" lon="10.857730557704329"><ele>1132.0</ele><time>2026-03-28T09:46:20.872Z</time></trkpt><trkpt lat="44.061530443377265" lon="10.857636318721994"><ele>1132.0</ele><time>2026-03-28T09:46:22.872Z</time></trkpt><trkpt lat="44.06154205527721" lon="10.857534408935425"><ele>1128.3333333333333</ele><time>2026-03-28T09:46:25.872Z</time></trkpt><trkpt lat="44.06154415459649" lon="10.857426503103717"><ele>1124.6666666666665</ele><time>2026-03-28T09:46:28.872Z</time></trkpt><trkpt lat="44.06153849320617" lon="10.857316322889885"><ele>1121.0</ele><time>2026-03-28T09:46:31.871Z</time></trkpt><trkpt lat="44.06154506695755" lon="10.857218633928344"><ele>1117.3333333333333</ele><time>2026-03-28T09:46:34.871Z</time></trkpt><trkpt lat="44.061548967261295" lon="10.857101475417842"><ele>1113.6666666666667</ele><time>2026-03-28T09:46:37.871Z</time></trkpt><trkpt lat="44.06153233009471" lon="10.856985591109574"><ele>1110.0</ele><time>2026-03-28T09:46:40.871Z</time></trkpt><trkpt lat="44.06152765641724" lon="10.856887413803086"><ele>1107.0</ele><time>2026-03-28T09:46:42.871Z</time></trkpt><trkpt lat="44.06152914084207" lon="10.856784106614045"><ele>1104.0</ele><time>2026-03-28T09:46:45.871Z</time></trkpt><trkpt lat="44.06152454885118" lon="10.856695635770835"><ele>1101.0</ele><time>2026-03-28T09:46:47.871Z</time></trkpt><trkpt lat="44.061541378425225" lon="10.85657730472469"><ele>1098.0</ele><time>2026-03-28T09:46:50.871Z</time></trkpt><trkpt lat="44.06154133952532" lon="10.85645794602264"><ele>1095.0</ele><time>2026-03-28T09:46:53.871Z</time></trkpt><trkpt lat="44.06155348213786" lon="10.856328139811627"><ele>1092.0</ele><time>2026-03-28T09:46:56.871Z</time></trkpt><trkpt lat="44.061557000086644" lon="10.856238778620245"><ele>1096.5714285714287</ele><time>2026-03-28T09:46:59.871Z</time></trkpt><trkpt lat="44.06162232143436" lon="10.856179797763419"><ele>1101.142857142857</ele><time>2026-03-28T09:47:03.871Z</time></trkpt><trkpt lat="44.061688346780336" lon="10.856162077782969"><ele>1105.7142857142858</ele><time>2026-03-28T09:47:05.871Z</time></trkpt><trkpt lat="44.06178176618761" lon="10.8561537751298"><ele>1110.2857142857142</ele><time>2026-03-28T09:47:08.871Z</time></trkpt><trkpt lat="44.0618447635807" lon="10.856156733178613"><ele>1114.857142857143</ele><time>2026-03-28T09:47:10.871Z</time></trkpt><trkpt lat="44.061900198890584" lon="10.85610864509053"><ele>1119.4285714285716</ele><time>2026-03-28T09:47:13.871Z</time></trkpt><trkpt lat="44.06195084347167" lon="10.85605653394699"><ele>1124.0</ele><time>2026-03-28T09:47:17.871Z</time></trkpt><trkpt lat="44.06199654215516" lon="10.855981131482563"><ele>1122.5714285714287</ele><time>2026-03-28T09:47:21.871Z</time></trkpt><trkpt lat="44.06203053510841" lon="10.855894023775559"><ele>1121.142857142857</ele><time>2026-03-28T09:47:24.871Z</time></trkpt><trkpt lat="44.06206989457027" lon="10.855803795315794"><ele>1119.7142857142858</ele><time>2026-03-28T09:47:27.871Z</time></trkpt><trkpt lat="44.06212379862762" lon="10.855752259604886"><ele>1118.2857142857142</ele><time>2026-03-28T09:47:29.871Z</time></trkpt><trkpt lat="44.06216960756295" lon="10.855690022726519"><ele>1116.857142857143</ele><time>2026-03-28T09:47:31.871Z</time></trkpt><trkpt lat="44.06222976515365" lon="10.855613321069216"><ele>1115.4285714285716</ele><time>2026-03-28T09:47:34.871Z</time></trkpt><trkpt lat="44.06229619903117" lon="10.85554205137932"><ele>1114.0</ele><time>2026-03-28T09:47:37.871Z</time></trkpt><trkpt lat="44.062354943174626" lon="10.855460948587176"><ele>1114.0</ele><time>2026-03-28T09:47:40.871Z</time></trkpt><trkpt lat="44.06240224860483" lon="10.855365247458538"><ele>1114.0</ele><time>2026-03-28T09:47:43.871Z</time></trkpt><trkpt lat="44.06244519665994" lon="10.855288635167412"><ele>1114.0</ele><time>2026-03-28T09:47:45.871Z</time></trkpt><trkpt lat="44.06250612829795" lon="10.855199818882019"><ele>1114.0</ele><time>2026-03-28T09:47:48.871Z</time></trkpt><trkpt lat="44.06255535850165" lon="10.855097448033241"><ele>1114.0</ele><time>2026-03-28T09:47:51.871Z</time></trkpt><trkpt lat="44.06262195695926" lon="10.855006162958079"><ele>1114.0</ele><time>2026-03-28T09:47:54.871Z</time></trkpt><trkpt lat="44.06269243173293" lon="10.854942653732163"><ele>1115.0</ele><time>2026-03-28T09:47:57.871Z</time></trkpt><trkpt lat="44.06277212014091" lon="10.854929256274"><ele>1116.0</ele><time>2026-03-28T09:47:59.871Z</time></trkpt><trkpt lat="44.06284235516578" lon="10.854926364872444"><ele>1117.0</ele><time>2026-03-28T09:48:02.871Z</time></trkpt><trkpt lat="44.06293692132876" lon="10.854910537821176"><ele>1118.0</ele><time>2026-03-28T09:48:05.87Z</time></trkpt><trkpt lat="44.06301712642921" lon="10.854917550955415"><ele>1119.0</ele><time>2026-03-28T09:48:08.87Z</time></trkpt><trkpt lat="44.063084312947076" lon="10.854939118542577"><ele>1120.0</ele><time>2026-03-28T09:48:11.87Z</time></trkpt><trkpt lat="44.06315223472511" lon="10.854946440737093"><ele>1120.0</ele><time>2026-03-28T09:48:14.87Z</time></trkpt><trkpt lat="44.0632164557902" lon="10.854955033985753"><ele>1120.0</ele><time>2026-03-28T09:48:17.87Z</time></trkpt><trkpt lat="44.06328876970346" lon="10.854967915562577"><ele>1120.0</ele><time>2026-03-28T09:48:22.87Z</time></trkpt><trkpt lat="44.06336673319179" lon="10.854996089505859"><ele>1120.0</ele><time>2026-03-28T09:48:26.87Z</time></trkpt><trkpt lat="44.06343540375222" lon="10.855021855735592"><ele>1120.0</ele><time>2026-03-28T09:48:29.87Z</time></trkpt><trkpt lat="44.063505771555114" lon="10.85505436547793"><ele>1120.0</ele><time>2026-03-28T09:48:33.87Z</time></trkpt><trkpt lat="44.06357942313767" lon="10.855088223540065"><ele>1120.0</ele><time>2026-03-28T09:48:36.87Z</time></trkpt><trkpt lat="44.06366496682041" lon="10.855132653744208"><ele>1126.5</ele><time>2026-03-28T09:48:40.871Z</time></trkpt><trkpt lat="44.06372685080391" lon="10.85516294040621"><ele>1133.0</ele><time>2026-03-28T09:48:42.87Z</time></trkpt><trkpt lat="44.06380443219882" lon="10.855208390740398"><ele>1139.5</ele><time>2026-03-28T09:48:45.87Z</time></trkpt><trkpt lat="44.06387507843295" lon="10.855256145280842"><ele>1146.0</ele><time>2026-03-28T09:48:48.871Z</time></trkpt><trkpt lat="44.06393306915438" lon="10.85531733589627"><ele>1152.5</ele><time>2026-03-28T09:48:51.87Z</time></trkpt><trkpt lat="44.063989325699694" lon="10.855387863697516"><ele>1159.0</ele><time>2026-03-28T09:48:55.87Z</time></trkpt><trkpt lat="44.064040573145775" lon="10.855464148659022"><ele>1159.0000000000002</ele><time>2026-03-28T09:48:59.87Z</time></trkpt><trkpt lat="44.06406733633159" lon="10.855548608647851"><ele>1159.0</ele><time>2026-03-28T09:49:03.87Z</time></trkpt><trkpt lat="44.06409710524857" lon="10.855655327381962"><ele>1159.0</ele><time>2026-03-28T09:49:06.87Z</time></trkpt><trkpt lat="44.06411793939186" lon="10.85573828543477"><ele>1159.0</ele><time>2026-03-28T09:49:09.87Z</time></trkpt><trkpt lat="44.06414627751663" lon="10.855824429127823"><ele>1159.0</ele><time>2026-03-28T09:49:12.87Z</time></trkpt><trkpt lat="44.06417226158132" lon="10.855906068331889"><ele>1159.0000000000002</ele><time>2026-03-28T09:49:15.87Z</time></trkpt><trkpt lat="44.06421650740418" lon="10.855992099383329"><ele>1159.0</ele><time>2026-03-28T09:49:19.87Z</time></trkpt><trkpt lat="44.06427637905551" lon="10.856067007443043"><ele>1160.857142857143</ele><time>2026-03-28T09:49:23.87Z</time></trkpt><trkpt lat="44.064338796114065" lon="10.856138269444788"><ele>1162.7142857142858</ele><time>2026-03-28T09:49:27.87Z</time></trkpt><trkpt lat="44.0643999193309" lon="10.85621689826593"><ele>1164.5714285714284</ele><time>2026-03-28T09:49:30.87Z</time></trkpt><trkpt lat="44.06445834486578" lon="10.856277276649001"><ele>1166.4285714285716</ele><time>2026-03-28T09:49:33.87Z</time></trkpt><trkpt lat="44.06451964345456" lon="10.856335426842747"><ele>1168.2857142857142</ele><time>2026-03-28T09:49:36.87Z</time></trkpt><trkpt lat="44.06457529139067" lon="10.856384525961154"><ele>1170.142857142857</ele><time>2026-03-28T09:49:39.87Z</time></trkpt><trkpt lat="44.0646353892549" lon="10.856426733803294"><ele>1172.0</ele><time>2026-03-28T09:49:42.87Z</time></trkpt><trkpt lat="44.06469999886483" lon="10.856398770034641"><ele>1171.9999999999998</ele><time>2026-03-28T09:49:52.87Z</time></trkpt><trkpt lat="44.06477045261241" lon="10.856399251211421"><ele>1172.0</ele><time>2026-03-28T09:50:04.87Z</time></trkpt><trkpt lat="44.06481689835474" lon="10.856464501237564"><ele>1172.0</ele><time>2026-03-28T09:50:14.87Z</time></trkpt><trkpt lat="44.064872142548445" lon="10.856411652417224"><ele>1172.0</ele><time>2026-03-28T09:50:33.87Z</time></trkpt><trkpt lat="44.064946632539076" lon="10.856357250763496"><ele>1172.0</ele><time>2026-03-28T09:50:38.87Z</time></trkpt><trkpt lat="44.0650124368221" lon="10.856311569881123"><ele>1171.9999999999998</ele><time>2026-03-28T09:50:44.87Z</time></trkpt><trkpt lat="44.06503076895795" lon="10.85620986196084"><ele>1172.0</ele><time>2026-03-28T09:50:49.869Z</time></trkpt><trkpt lat="44.06504534035606" lon="10.856096908892452"><ele>1169.2857142857142</ele><time>2026-03-28T09:50:54.869Z</time></trkpt><trkpt lat="44.065064670594865" lon="10.855993382901978"><ele>1166.5714285714284</ele><time>2026-03-28T09:50:57.869Z</time></trkpt><trkpt lat="44.06509215771262" lon="10.85591238680938"><ele>1163.857142857143</ele><time>2026-03-28T09:51:01.869Z</time></trkpt><trkpt lat="44.0651164682836" lon="10.855830849742947"><ele>1161.142857142857</ele><time>2026-03-28T09:51:04.869Z</time></trkpt><trkpt lat="44.06515883438082" lon="10.855754885768768"><ele>1158.4285714285716</ele><time>2026-03-28T09:51:07.869Z</time></trkpt><trkpt lat="44.065215498216105" lon="10.855691800810908"><ele>1155.7142857142858</ele><time>2026-03-28T09:51:10.869Z</time></trkpt><trkpt lat="44.065250088152915" lon="10.855609614157299"><ele>1153.0</ele><time>2026-03-28T09:51:13.869Z</time></trkpt><trkpt lat="44.065266009210056" lon="10.855513886936624"><ele>1149.5</ele><time>2026-03-28T09:51:17.869Z</time></trkpt><trkpt lat="44.06527687483957" lon="10.855397445578957"><ele>1146.0</ele><time>2026-03-28T09:51:21.869Z</time></trkpt><trkpt lat="44.065260231226176" lon="10.855264926797675"><ele>1142.5</ele><time>2026-03-28T09:51:25.869Z</time></trkpt><trkpt lat="44.0652572985625" lon="10.85516351162599"><ele>1139.0</ele><time>2026-03-28T09:51:28.869Z</time></trkpt><trkpt lat="44.06526766975644" lon="10.855063593977679"><ele>1135.5</ele><time>2026-03-28T09:51:30.869Z</time></trkpt><trkpt lat="44.06530705395629" lon="10.854963634295135"><ele>1132.0</ele><time>2026-03-28T09:51:33.869Z</time></trkpt><trkpt lat="44.065322786242426" lon="10.854856361344565"><ele>1129.0</ele><time>2026-03-28T09:51:36.869Z</time></trkpt><trkpt lat="44.06534762141952" lon="10.854765725133369"><ele>1126.0</ele><time>2026-03-28T09:51:39.869Z</time></trkpt><trkpt lat="44.065383634206725" lon="10.85466417276533"><ele>1123.0</ele><time>2026-03-28T09:51:42.869Z</time></trkpt><trkpt lat="44.06541406486413" lon="10.854560333537291"><ele>1120.0</ele><time>2026-03-28T09:51:45.869Z</time></trkpt><trkpt lat="44.06543718063518" lon="10.854453182686717"><ele>1117.0</ele><time>2026-03-28T09:51:48.869Z</time></trkpt><trkpt lat="44.06546886561753" lon="10.854344482513927"><ele>1114.0</ele><time>2026-03-28T09:51:51.869Z</time></trkpt><trkpt lat="44.06550010799992" lon="10.854264006404717"><ele>1111.142857142857</ele><time>2026-03-28T09:51:53.869Z</time></trkpt><trkpt lat="44.0655249469049" lon="10.854173961756462"><ele>1108.2857142857142</ele><time>2026-03-28T09:51:55.869Z</time></trkpt><trkpt lat="44.065550173255225" lon="10.854065176628032"><ele>1105.4285714285713</ele><time>2026-03-28T09:51:57.869Z</time></trkpt><trkpt lat="44.06558536824677" lon="10.85399070043805"><ele>1102.5714285714284</ele><time>2026-03-28T09:51:59.869Z</time></trkpt><trkpt lat="44.06563762032836" lon="10.853916848017644"><ele>1099.7142857142856</ele><time>2026-03-28T09:52:01.869Z</time></trkpt><trkpt lat="44.06568114697465" lon="10.853814753005684"><ele>1096.857142857143</ele><time>2026-03-28T09:52:03.869Z</time></trkpt><trkpt lat="44.06569419823114" lon="10.85372871922146"><ele>1094.0</ele><time>2026-03-28T09:52:05.869Z</time></trkpt><trkpt lat="44.06572616187442" lon="10.853599604797564"><ele>1094.0</ele><time>2026-03-28T09:52:07.869Z</time></trkpt><trkpt lat="44.06574848486518" lon="10.853483115789066"><ele>1094.0</ele><time>2026-03-28T09:52:09.869Z</time></trkpt><trkpt lat="44.0657770461691" lon="10.85332756591827"><ele>1094.0</ele><time>2026-03-28T09:52:11.869Z</time></trkpt><trkpt lat="44.06578884591479" lon="10.853181926325718"><ele>1094.0</ele><time>2026-03-28T09:52:13.869Z</time></trkpt><trkpt lat="44.06580615947681" lon="10.853096042149"><ele>1094.0</ele><time>2026-03-28T09:52:14.869Z</time></trkpt><trkpt lat="44.065833248090506" lon="10.852938194270196"><ele>1097.2</ele><time>2026-03-28T09:52:16.869Z</time></trkpt><trkpt lat="44.06586638221765" lon="10.852770532732368"><ele>1100.4</ele><time>2026-03-28T09:52:18.869Z</time></trkpt><trkpt lat="44.06589788452559" lon="10.852678194955203"><ele>1103.6</ele><time>2026-03-28T09:52:19.869Z</time></trkpt><trkpt lat="44.065923414416964" lon="10.852546772085775"><ele>1106.8</ele><time>2026-03-28T09:52:20.869Z</time></trkpt><trkpt lat="44.06595818731413" lon="10.852454074450051"><ele>1110.0</ele><time>2026-03-28T09:52:21.869Z</time></trkpt><trkpt lat="44.0659306775764" lon="10.852293553978093"><ele>1110.0</ele><time>2026-03-28T09:52:22.869Z</time></trkpt><trkpt lat="44.06596192939216" lon="10.85221299203305"><ele>1110.0</ele><time>2026-03-28T09:52:23.869Z</time></trkpt><trkpt lat="44.06601591027762" lon="10.85207189158047"><ele>1110.0</ele><time>2026-03-28T09:52:25.869Z</time></trkpt><trkpt lat="44.066047993053765" lon="10.851980421421652"><ele>1110.0</ele><time>2026-03-28T09:52:27.869Z</time></trkpt><trkpt lat="44.065937668158384" lon="10.851993124739716"><ele>1110.0</ele><time>2026-03-28T09:52:31.869Z</time></trkpt><trkpt lat="44.065917174465646" lon="10.852117018078982"><ele>1110.0</ele><time>2026-03-28T09:52:33.869Z</time></trkpt><trkpt lat="44.0658937212607" lon="10.852245348429744"><ele>1110.0</ele><time>2026-03-28T09:52:35.869Z</time></trkpt><trkpt lat="44.065800404836274" lon="10.852303877130002"><ele>1110.0</ele><time>2026-03-28T09:52:37.869Z</time></trkpt><trkpt lat="44.06571837200715" lon="10.85238592492474"><ele>1110.0</ele><time>2026-03-28T09:52:39.869Z</time></trkpt><trkpt lat="44.06565040263284" lon="10.852473209120006"><ele>1110.0</ele><time>2026-03-28T09:52:41.869Z</time></trkpt><trkpt lat="44.06558514847716" lon="10.852555379682288"><ele>1105.3333333333333</ele><time>2026-03-28T09:52:43.869Z</time></trkpt><trkpt lat="44.065545533607526" lon="10.852644049711438"><ele>1100.6666666666667</ele><time>2026-03-28T09:52:46.868Z</time></trkpt><trkpt lat="44.06552244027788" lon="10.852796948527951"><ele>1096.0</ele><time>2026-03-28T09:52:48.868Z</time></trkpt><trkpt lat="44.06550544885142" lon="10.852937495327119"><ele>1091.3333333333335</ele><time>2026-03-28T09:52:50.868Z</time></trkpt><trkpt lat="44.06546424373697" lon="10.853008364559738"><ele>1086.6666666666667</ele><time>2026-03-28T09:52:52.868Z</time></trkpt><trkpt lat="44.065385994507416" lon="10.852946652396893"><ele>1082.0</ele><time>2026-03-28T09:52:55.869Z</time></trkpt><trkpt lat="44.0653826300439" lon="10.852789493180461"><ele>1082.0</ele><time>2026-03-28T09:52:57.869Z</time></trkpt><trkpt lat="44.065411826610514" lon="10.85266615218338"><ele>1082.0</ele><time>2026-03-28T09:52:59.868Z</time></trkpt><trkpt lat="44.06539899866195" lon="10.85253495386712"><ele>1082.0</ele><time>2026-03-28T09:53:01.868Z</time></trkpt><trkpt lat="44.06541439358131" lon="10.852364127115804"><ele>1082.0</ele><time>2026-03-28T09:53:03.868Z</time></trkpt><trkpt lat="44.06543157029177" lon="10.852270856879962"><ele>1082.0</ele><time>2026-03-28T09:53:04.868Z</time></trkpt><trkpt lat="44.06544956970519" lon="10.852173846678069"><ele>1081.3333333333335</ele><time>2026-03-28T09:53:05.868Z</time></trkpt><trkpt lat="44.065462272995106" lon="10.852084146415487"><ele>1080.6666666666667</ele><time>2026-03-28T09:53:06.868Z</time></trkpt><trkpt lat="44.065457166310175" lon="10.851985011307352"><ele>1080.0</ele><time>2026-03-28T09:53:07.868Z</time></trkpt><trkpt lat="44.06546496998823" lon="10.851886128864523"><ele>1079.3333333333333</ele><time>2026-03-28T09:53:08.868Z</time></trkpt><trkpt lat="44.06548266563601" lon="10.851787146504433"><ele>1078.6666666666665</ele><time>2026-03-28T09:53:09.868Z</time></trkpt><trkpt lat="44.0655257372632" lon="10.851692186122499"><ele>1078.0</ele><time>2026-03-28T09:53:10.868Z</time></trkpt><trkpt lat="44.06569216714004" lon="10.85167873164061"><ele>1076.2</ele><time>2026-03-28T09:53:11.868Z</time></trkpt><trkpt lat="44.065744058478415" lon="10.851533520073732"><ele>1074.4</ele><time>2026-03-28T09:53:13.868Z</time></trkpt><trkpt lat="44.06581306737152" lon="10.851378614387839"><ele>1072.6000000000001</ele><time>2026-03-28T09:53:15.868Z</time></trkpt><trkpt lat="44.065855024847906" lon="10.851289653353446"><ele>1070.8</ele><time>2026-03-28T09:53:16.868Z</time></trkpt><trkpt lat="44.065907805463716" lon="10.851179059192557"><ele>1069.0</ele><time>2026-03-28T09:53:17.868Z</time></trkpt><trkpt lat="44.06595222263665" lon="10.851053722643837"><ele>1071.8333333333333</ele><time>2026-03-28T09:53:18.868Z</time></trkpt><trkpt lat="44.06596887776503" lon="10.850929447195258"><ele>1074.6666666666665</ele><time>2026-03-28T09:53:19.868Z</time></trkpt><trkpt lat="44.06597087723911" lon="10.850837334111914"><ele>1077.5</ele><time>2026-03-28T09:53:20.868Z</time></trkpt><trkpt lat="44.06598765349585" lon="10.850716716142447"><ele>1080.3333333333333</ele><time>2026-03-28T09:53:21.868Z</time></trkpt><trkpt lat="44.0660274023229" lon="10.850594268746558"><ele>1083.1666666666667</ele><time>2026-03-28T09:53:22.868Z</time></trkpt><trkpt lat="44.06606237778581" lon="10.850506737090459"><ele>1086.0</ele><time>2026-03-28T09:53:23.868Z</time></trkpt><trkpt lat="44.066097610398266" lon="10.850426025922967"><ele>1086.0</ele><time>2026-03-28T09:53:24.868Z</time></trkpt><trkpt lat="44.06614737797838" lon="10.850306034197114"><ele>1086.0</ele><time>2026-03-28T09:53:25.868Z</time></trkpt><trkpt lat="44.066222805983216" lon="10.850190493601081"><ele>1086.0</ele><time>2026-03-28T09:53:26.868Z</time></trkpt><trkpt lat="44.06626686180178" lon="10.850075622845258"><ele>1086.0</ele><time>2026-03-28T09:53:27.868Z</time></trkpt><trkpt lat="44.06631421451986" lon="10.849982395949581"><ele>1086.0</ele><time>2026-03-28T09:53:28.868Z</time></trkpt><trkpt lat="44.066367462260395" lon="10.849913940873263"><ele>1089.25</ele><time>2026-03-28T09:53:29.868Z</time></trkpt><trkpt lat="44.06641979376511" lon="10.849835251408376"><ele>1092.5</ele><time>2026-03-28T09:53:30.868Z</time></trkpt><trkpt lat="44.06646325515117" lon="10.84976918778235"><ele>1095.75</ele><time>2026-03-28T09:53:31.868Z</time></trkpt><trkpt lat="44.06653306972805" lon="10.849664653870004"><ele>1099.0</ele><time>2026-03-28T09:53:33.868Z</time></trkpt><trkpt lat="44.066696782659726" lon="10.849458932943254"><ele>1094.75</ele><time>2026-03-28T09:53:36.87Z</time></trkpt><trkpt lat="44.066619313616265" lon="10.849256012133136"><ele>1090.5</ele><time>2026-03-28T09:53:37.871Z</time></trkpt><trkpt lat="44.066529264056925" lon="10.849246517156692"><ele>1086.25</ele><time>2026-03-28T09:53:38.871Z</time></trkpt><trkpt lat="44.06649857723788" lon="10.849398611642389"><ele>1082.0</ele><time>2026-03-28T09:53:39.871Z</time></trkpt><trkpt lat="44.0664397809556" lon="10.849493741564617"><ele>1079.8</ele><time>2026-03-28T09:53:41.872Z</time></trkpt><trkpt lat="44.066391373551454" lon="10.84958583160399"><ele>1077.6</ele><time>2026-03-28T09:53:43.873Z</time></trkpt><trkpt lat="44.06632295095502" lon="10.849660033435134"><ele>1075.3999999999999</ele><time>2026-03-28T09:53:45.874Z</time></trkpt><trkpt lat="44.06623674198816" lon="10.84971158270755"><ele>1073.2</ele><time>2026-03-28T09:53:47.874Z</time></trkpt><trkpt lat="44.06616336070342" lon="10.849770282512516"><ele>1071.0</ele><time>2026-03-28T09:53:49.875Z</time></trkpt><trkpt lat="44.06607996117807" lon="10.849853252779784"><ele>1071.0</ele><time>2026-03-28T09:53:51.875Z</time></trkpt><trkpt lat="44.065998239985745" lon="10.849932563656452"><ele>1071.0</ele><time>2026-03-28T09:53:53.875Z</time></trkpt><trkpt lat="44.065927285923166" lon="10.849996030599176"><ele>1071.0</ele><time>2026-03-28T09:53:55.876Z</time></trkpt><trkpt lat="44.065864078360335" lon="10.850103250022118"><ele>1071.0</ele><time>2026-03-28T09:53:57.876Z</time></trkpt><trkpt lat="44.0658239803007" lon="10.850185234910343"><ele>1071.0</ele><time>2026-03-28T09:53:58.876Z</time></trkpt><trkpt lat="44.065802378496414" lon="10.850323858048403"><ele>1069.3333333333333</ele><time>2026-03-28T09:54:00.876Z</time></trkpt><trkpt lat="44.06575729675464" lon="10.850416229237961"><ele>1067.6666666666667</ele><time>2026-03-28T09:54:02.877Z</time></trkpt><trkpt lat="44.06569482142323" lon="10.850543599873504"><ele>1066.0</ele><time>2026-03-28T09:54:04.877Z</time></trkpt><trkpt lat="44.065654736597004" lon="10.850616849821245"><ele>1064.3333333333335</ele><time>2026-03-28T09:54:05.877Z</time></trkpt><trkpt lat="44.06560895814497" lon="10.850692551433252"><ele>1062.6666666666667</ele><time>2026-03-28T09:54:06.877Z</time></trkpt><trkpt lat="44.06555882411536" lon="10.850763376789637"><ele>1061.0</ele><time>2026-03-28T09:54:07.877Z</time></trkpt><trkpt lat="44.06550209361431" lon="10.85083131004812"><ele>1061.0</ele><time>2026-03-28T09:54:08.877Z</time></trkpt><trkpt lat="44.065455169472905" lon="10.850894426265654"><ele>1061.0</ele><time>2026-03-28T09:54:09.877Z</time></trkpt><trkpt lat="44.06540808799056" lon="10.850961910587811"><ele>1061.0</ele><time>2026-03-28T09:54:10.877Z</time></trkpt><trkpt lat="44.06533065503733" lon="10.85106428444015"><ele>1061.0</ele><time>2026-03-28T09:54:12.877Z</time></trkpt><trkpt lat="44.06525546811539" lon="10.85116903621593"><ele>1061.0</ele><time>2026-03-28T09:54:14.877Z</time></trkpt><trkpt lat="44.0651866916459" lon="10.851252236691076"><ele>1061.0</ele><time>2026-03-28T09:54:15.877Z</time></trkpt><trkpt lat="44.06515398040485" lon="10.851348025449758"><ele>1062.1428571428573</ele><time>2026-03-28T09:54:16.878Z</time></trkpt><trkpt lat="44.065121387440925" lon="10.851450248734093"><ele>1063.2857142857142</ele><time>2026-03-28T09:54:17.878Z</time></trkpt><trkpt lat="44.06509205716052" lon="10.851537676457486"><ele>1064.4285714285716</ele><time>2026-03-28T09:54:18.878Z</time></trkpt><trkpt lat="44.06505596643496" lon="10.851614451048041"><ele>1065.5714285714287</ele><time>2026-03-28T09:54:19.878Z</time></trkpt><trkpt lat="44.06502347242336" lon="10.851693836374292"><ele>1066.7142857142858</ele><time>2026-03-28T09:54:20.878Z</time></trkpt><trkpt lat="44.06498214424991" lon="10.851760079222965"><ele>1067.857142857143</ele><time>2026-03-28T09:54:21.878Z</time></trkpt><trkpt lat="44.06491475403662" lon="10.851870829086371"><ele>1069.0</ele><time>2026-03-28T09:54:23.878Z</time></trkpt><trkpt lat="44.06486385485329" lon="10.851993068045097"><ele>1066.4285714285716</ele><time>2026-03-28T09:54:25.878Z</time></trkpt><trkpt lat="44.064820438793106" lon="10.852079465423353"><ele>1063.857142857143</ele><time>2026-03-28T09:54:27.878Z</time></trkpt><trkpt lat="44.06475177634144" lon="10.852104392043723"><ele>1061.2857142857142</ele><time>2026-03-28T09:54:29.878Z</time></trkpt><trkpt lat="44.064717342550466" lon="10.852014142652877"><ele>1058.7142857142858</ele><time>2026-03-28T09:54:33.878Z</time></trkpt><trkpt lat="44.064772982293206" lon="10.851957231365063"><ele>1056.142857142857</ele><time>2026-03-28T09:54:36.878Z</time></trkpt><trkpt lat="44.06478457526821" lon="10.851853014838555"><ele>1053.5714285714287</ele><time>2026-03-28T09:54:40.878Z</time></trkpt><trkpt lat="44.06480856299936" lon="10.851764548917465"><ele>1051.0</ele><time>2026-03-28T09:54:42.878Z</time></trkpt><trkpt lat="44.064846296293105" lon="10.851681911959506"><ele>1049.7142857142858</ele><time>2026-03-28T09:54:44.878Z</time></trkpt><trkpt lat="44.06486553241918" lon="10.851594671768897"><ele>1048.4285714285713</ele><time>2026-03-28T09:54:46.878Z</time></trkpt><trkpt lat="44.06490514036354" lon="10.851512385526966"><ele>1047.142857142857</ele><time>2026-03-28T09:54:49.878Z</time></trkpt><trkpt lat="44.0649479277299" lon="10.851399945082735"><ele>1045.857142857143</ele><time>2026-03-28T09:54:52.879Z</time></trkpt><trkpt lat="44.06499088717007" lon="10.851330943518235"><ele>1044.5714285714287</ele><time>2026-03-28T09:54:54.879Z</time></trkpt><trkpt lat="44.06503359964902" lon="10.851255036189384"><ele>1043.2857142857142</ele><time>2026-03-28T09:54:56.878Z</time></trkpt><trkpt lat="44.065083555454144" lon="10.851175341296646"><ele>1042.0</ele><time>2026-03-28T09:54:58.878Z</time></trkpt><trkpt lat="44.06513781694803" lon="10.85109393147861"><ele>1045.1666666666665</ele><time>2026-03-28T09:55:00.878Z</time></trkpt><trkpt lat="44.065169898272046" lon="10.851014988548345"><ele>1048.3333333333333</ele><time>2026-03-28T09:55:02.878Z</time></trkpt><trkpt lat="44.06521419084456" lon="10.850926714720668"><ele>1051.5</ele><time>2026-03-28T09:55:04.878Z</time></trkpt><trkpt lat="44.06527095720324" lon="10.850804418396605"><ele>1054.6666666666667</ele><time>2026-03-28T09:55:07.878Z</time></trkpt><trkpt lat="44.06531605254441" lon="10.850693041786593"><ele>1057.8333333333335</ele><time>2026-03-28T09:55:09.878Z</time></trkpt><trkpt lat="44.065350584616" lon="10.850595860669145"><ele>1061.0</ele><time>2026-03-28T09:55:11.878Z</time></trkpt><trkpt lat="44.06540425972587" lon="10.850500822553505"><ele>1061.0</ele><time>2026-03-28T09:55:14.878Z</time></trkpt><trkpt lat="44.06544293026609" lon="10.850410054135999"><ele>1061.0</ele><time>2026-03-28T09:55:16.878Z</time></trkpt><trkpt lat="44.06548671066867" lon="10.850342146587641"><ele>1061.0</ele><time>2026-03-28T09:55:18.878Z</time></trkpt><trkpt lat="44.06552413270175" lon="10.850258546715667"><ele>1061.0</ele><time>2026-03-28T09:55:20.878Z</time></trkpt><trkpt lat="44.06557427937957" lon="10.850160409589657"><ele>1061.0</ele><time>2026-03-28T09:55:22.878Z</time></trkpt><trkpt lat="44.06563127832744" lon="10.85007389111901"><ele>1061.0</ele><time>2026-03-28T09:55:25.878Z</time></trkpt><trkpt lat="44.06569358208804" lon="10.850018645240123"><ele>1059.3333333333335</ele><time>2026-03-28T09:55:27.878Z</time></trkpt><trkpt lat="44.065751033077746" lon="10.849934787225601"><ele>1057.6666666666667</ele><time>2026-03-28T09:55:30.878Z</time></trkpt><trkpt lat="44.06581395341781" lon="10.849861123300162"><ele>1056.0</ele><time>2026-03-28T09:55:33.878Z</time></trkpt><trkpt lat="44.065865240146934" lon="10.849754859976695"><ele>1054.3333333333333</ele><time>2026-03-28T09:55:36.878Z</time></trkpt><trkpt lat="44.06588947960276" lon="10.849627514067421"><ele>1052.6666666666665</ele><time>2026-03-28T09:55:39.878Z</time></trkpt><trkpt lat="44.06591254873773" lon="10.84951930835043"><ele>1051.0</ele><time>2026-03-28T09:55:42.878Z</time></trkpt><trkpt lat="44.06595001830436" lon="10.849418206889693"><ele>1052.3333333333333</ele><time>2026-03-28T09:55:45.878Z</time></trkpt><trkpt lat="44.0659547112811" lon="10.849324652162288"><ele>1053.6666666666665</ele><time>2026-03-28T09:55:47.878Z</time></trkpt><trkpt lat="44.06598025623651" lon="10.849235095343113"><ele>1055.0</ele><time>2026-03-28T09:55:49.878Z</time></trkpt><trkpt lat="44.06604141652061" lon="10.849138966224286"><ele>1056.3333333333333</ele><time>2026-03-28T09:55:52.878Z</time></trkpt><trkpt lat="44.066114838478796" lon="10.849056645247837"><ele>1057.6666666666667</ele><time>2026-03-28T09:55:55.878Z</time></trkpt><trkpt lat="44.066168214845256" lon="10.848980131031515"><ele>1059.0</ele><time>2026-03-28T09:55:58.878Z</time></trkpt><trkpt lat="44.06622978899453" lon="10.848930670667134"><ele>1059.0</ele><time>2026-03-28T09:56:01.878Z</time></trkpt><trkpt lat="44.06628184480149" lon="10.84886279355079"><ele>1059.0</ele><time>2026-03-28T09:56:04.878Z</time></trkpt><trkpt lat="44.06634348461961" lon="10.84880381677782"><ele>1059.0</ele><time>2026-03-28T09:56:08.878Z</time></trkpt><trkpt lat="44.066404330395656" lon="10.848759232233796"><ele>1059.0</ele><time>2026-03-28T09:56:10.878Z</time></trkpt><trkpt lat="44.066579949685675" lon="10.848599977633153"><ele>1059.0</ele><time>2026-03-28T09:56:12.878Z</time></trkpt><trkpt lat="44.06665408274153" lon="10.848615077341245"><ele>1060.0</ele><time>2026-03-28T09:56:13.878Z</time></trkpt><trkpt lat="44.0667649043262" lon="10.848649201555794"><ele>1061.0</ele><time>2026-03-28T09:56:15.878Z</time></trkpt><trkpt lat="44.066855506069466" lon="10.848622803976058"><ele>1062.0</ele><time>2026-03-28T09:56:17.878Z</time></trkpt><trkpt lat="44.066961005115694" lon="10.848574973578776"><ele>1063.0</ele><time>2026-03-28T09:56:19.878Z</time></trkpt><trkpt lat="44.06705608094546" lon="10.84850433822978"><ele>1064.0</ele><time>2026-03-28T09:56:21.878Z</time></trkpt><trkpt lat="44.067175577948454" lon="10.848442098447146"><ele>1064.0</ele><time>2026-03-28T09:56:23.878Z</time></trkpt><trkpt lat="44.067233185320376" lon="10.848384308379666"><ele>1064.0</ele><time>2026-03-28T09:56:24.878Z</time></trkpt><trkpt lat="44.06728140696618" lon="10.848324957488556"><ele>1064.0</ele><time>2026-03-28T09:56:25.878Z</time></trkpt><trkpt lat="44.06737771502438" lon="10.848233687971312"><ele>1064.0</ele><time>2026-03-28T09:56:27.878Z</time></trkpt><trkpt lat="44.06746519348204" lon="10.84814156088481"><ele>1064.0</ele><time>2026-03-28T09:56:29.878Z</time></trkpt><trkpt lat="44.0675622202621" lon="10.848131494409726"><ele>1068.2</ele><time>2026-03-28T09:56:31.878Z</time></trkpt><trkpt lat="44.06767358469077" lon="10.848194476446386"><ele>1072.4</ele><time>2026-03-28T09:56:33.878Z</time></trkpt><trkpt lat="44.06775098147708" lon="10.848199840546123"><ele>1076.6</ele><time>2026-03-28T09:56:34.878Z</time></trkpt><trkpt lat="44.067859371924165" lon="10.848233376367675"><ele>1080.8</ele><time>2026-03-28T09:56:36.878Z</time></trkpt><trkpt lat="44.06793190039183" lon="10.848213617298445"><ele>1085.0</ele><time>2026-03-28T09:56:37.878Z</time></trkpt><trkpt lat="44.068003863613846" lon="10.848161397461274"><ele>1085.0</ele><time>2026-03-28T09:56:38.878Z</time></trkpt><trkpt lat="44.06806718157641" lon="10.848109767977595"><ele>1085.0</ele><time>2026-03-28T09:56:39.878Z</time></trkpt><trkpt lat="44.068137723369695" lon="10.848054344146165"><ele>1085.0</ele><time>2026-03-28T09:56:40.878Z</time></trkpt><trkpt lat="44.068198340973545" lon="10.84800122526491"><ele>1085.0</ele><time>2026-03-28T09:56:41.878Z</time></trkpt><trkpt lat="44.068246611761694" lon="10.84792408508328"><ele>1085.0</ele><time>2026-03-28T09:56:42.878Z</time></trkpt><trkpt lat="44.06828229158092" lon="10.847831760568148"><ele>1085.0</ele><time>2026-03-28T09:56:43.877Z</time></trkpt><trkpt lat="44.06835353194099" lon="10.847651847103753"><ele>1078.0</ele><time>2026-03-28T09:56:45.877Z</time></trkpt><trkpt lat="44.068398200956196" lon="10.84753002150816"><ele>1071.0</ele><time>2026-03-28T09:56:46.877Z</time></trkpt><trkpt lat="44.06845977327601" lon="10.84747374674315"><ele>1064.0</ele><time>2026-03-28T09:56:47.877Z</time></trkpt><trkpt lat="44.0685223450998" lon="10.847426400773898"><ele>1057.0</ele><time>2026-03-28T09:56:48.877Z</time></trkpt><trkpt lat="44.06864166956233" lon="10.847293168346503"><ele>1050.0</ele><time>2026-03-28T09:56:50.877Z</time></trkpt><trkpt lat="44.06878515321508" lon="10.847219924839779"><ele>1050.0</ele><time>2026-03-28T09:56:52.877Z</time></trkpt><trkpt lat="44.06889917359144" lon="10.847195005780883"><ele>1050.0</ele><time>2026-03-28T09:56:54.877Z</time></trkpt><trkpt lat="44.06898267404469" lon="10.8471285246056"><ele>1050.0</ele><time>2026-03-28T09:56:56.877Z</time></trkpt><trkpt lat="44.069037642563934" lon="10.846999335243916"><ele>1050.0</ele><time>2026-03-28T09:56:58.877Z</time></trkpt><trkpt lat="44.06897100261805" lon="10.846888226952391"><ele>1050.0</ele><time>2026-03-28T09:57:00.878Z</time></trkpt><trkpt lat="44.06885915607597" lon="10.846911856314529"><ele>1050.0</ele><time>2026-03-28T09:57:02.877Z</time></trkpt><trkpt lat="44.068757379839425" lon="10.846924965637912"><ele>1050.0</ele><time>2026-03-28T09:57:04.878Z</time></trkpt><trkpt lat="44.06869523663183" lon="10.846853244574088"><ele>1050.0</ele><time>2026-03-28T09:57:06.878Z</time></trkpt><trkpt lat="44.06860943068506" lon="10.846825451499312"><ele>1050.0</ele><time>2026-03-28T09:57:08.878Z</time></trkpt><trkpt lat="44.06853792675718" lon="10.846805398852748"><ele>1050.0</ele><time>2026-03-28T09:57:10.877Z</time></trkpt><trkpt lat="44.0684518947609" lon="10.846895622817323"><ele>1050.0</ele><time>2026-03-28T09:57:12.877Z</time></trkpt><trkpt lat="44.06836218057761" lon="10.846975431057421"><ele>1050.0</ele><time>2026-03-28T09:57:14.877Z</time></trkpt><trkpt lat="44.068265323780906" lon="10.84700090518839"><ele>1050.0</ele><time>2026-03-28T09:57:16.877Z</time></trkpt><trkpt lat="44.06820730101399" lon="10.8469049040805"><ele>1050.0</ele><time>2026-03-28T09:57:17.877Z</time></trkpt><trkpt lat="44.068146042376064" lon="10.846838997866573"><ele>1050.0</ele><time>2026-03-28T09:57:18.877Z</time></trkpt><trkpt lat="44.068088320449036" lon="10.84678695499783"><ele>1050.0</ele><time>2026-03-28T09:57:19.877Z</time></trkpt><trkpt lat="44.06800346391282" lon="10.846753973573394"><ele>1049.8</ele><time>2026-03-28T09:57:21.877Z</time></trkpt><trkpt lat="44.06790362849679" lon="10.846770458069356"><ele>1049.6</ele><time>2026-03-28T09:57:23.877Z</time></trkpt><trkpt lat="44.06777943790871" lon="10.84682450069309"><ele>1049.4</ele><time>2026-03-28T09:57:25.877Z</time></trkpt><trkpt lat="44.067704237920545" lon="10.846828096188599"><ele>1049.2</ele><time>2026-03-28T09:57:26.877Z</time></trkpt><trkpt lat="44.067581098491985" lon="10.84678276629713"><ele>1049.0</ele><time>2026-03-28T09:57:28.877Z</time></trkpt><trkpt lat="44.0674679095992" lon="10.846816520521708"><ele>1045.8</ele><time>2026-03-28T09:57:30.877Z</time></trkpt><trkpt lat="44.06734354044569" lon="10.846812806288398"><ele>1042.6000000000001</ele><time>2026-03-28T09:57:32.877Z</time></trkpt><trkpt lat="44.067264793374754" lon="10.846798329501455"><ele>1039.4</ele><time>2026-03-28T09:57:33.877Z</time></trkpt><trkpt lat="44.06714180752786" lon="10.846830967147467"><ele>1036.2</ele><time>2026-03-28T09:57:35.877Z</time></trkpt><trkpt lat="44.06705010802695" lon="10.846854722472706"><ele>1033.0</ele><time>2026-03-28T09:57:36.877Z</time></trkpt><trkpt lat="44.066979738891135" lon="10.846861885728803"><ele>1033.0</ele><time>2026-03-28T09:57:37.877Z</time></trkpt><trkpt lat="44.06691953185933" lon="10.84688823365643"><ele>1033.0</ele><time>2026-03-28T09:57:38.877Z</time></trkpt><trkpt lat="44.066845592770164" lon="10.846918286134457"><ele>1033.0</ele><time>2026-03-28T09:57:39.877Z</time></trkpt><trkpt lat="44.066770565737954" lon="10.846994250940686"><ele>1033.0</ele><time>2026-03-28T09:57:40.877Z</time></trkpt><trkpt lat="44.06670476989667" lon="10.847022924216686"><ele>1033.0</ele><time>2026-03-28T09:57:41.877Z</time></trkpt><trkpt lat="44.0666293681303" lon="10.847054751791777"><ele>1033.0</ele><time>2026-03-28T09:57:42.877Z</time></trkpt><trkpt lat="44.06653443203208" lon="10.847094824959091"><ele>1028.6</ele><time>2026-03-28T09:57:43.877Z</time></trkpt><trkpt lat="44.06642620452259" lon="10.847140554058862"><ele>1024.1999999999998</ele><time>2026-03-28T09:57:44.877Z</time></trkpt><trkpt lat="44.06633522604598" lon="10.847179024232641"><ele>1019.8</ele><time>2026-03-28T09:57:45.877Z</time></trkpt><trkpt lat="44.066264452673586" lon="10.847210356581279"><ele>1015.4</ele><time>2026-03-28T09:57:46.877Z</time></trkpt><trkpt lat="44.066182361273476" lon="10.847244482656972"><ele>1011.0</ele><time>2026-03-28T09:57:47.877Z</time></trkpt><trkpt lat="44.06603939894475" lon="10.847275764309845"><ele>1011.0</ele><time>2026-03-28T09:57:49.877Z</time></trkpt><trkpt lat="44.0659419115967" lon="10.847339190251914"><ele>1010.9999999999999</ele><time>2026-03-28T09:57:50.877Z</time></trkpt><trkpt lat="44.06585126523942" lon="10.847386607068048"><ele>1010.9999999999999</ele><time>2026-03-28T09:57:51.877Z</time></trkpt><trkpt lat="44.06575694007193" lon="10.847437378059182"><ele>1011.0</ele><time>2026-03-28T09:57:52.877Z</time></trkpt><trkpt lat="44.06567957590287" lon="10.847480160535648"><ele>1011.0</ele><time>2026-03-28T09:57:53.877Z</time></trkpt><trkpt lat="44.06558011071598" lon="10.847538057342117"><ele>1012.1999999999999</ele><time>2026-03-28T09:57:54.877Z</time></trkpt><trkpt lat="44.06548881030412" lon="10.847568259448906"><ele>1013.3999999999999</ele><time>2026-03-28T09:57:55.877Z</time></trkpt><trkpt lat="44.065395424402325" lon="10.847639770173828"><ele>1014.6</ele><time>2026-03-28T09:57:56.877Z</time></trkpt><trkpt lat="44.06533187361539" lon="10.84768436693747"><ele>1015.8</ele><time>2026-03-28T09:57:57.877Z</time></trkpt><trkpt lat="44.065257636840634" lon="10.847747570137397"><ele>1017.0</ele><time>2026-03-28T09:57:58.877Z</time></trkpt><trkpt lat="44.06515581118227" lon="10.847815528040108"><ele>1017.0</ele><time>2026-03-28T09:57:59.877Z</time></trkpt><trkpt lat="44.0650714099379" lon="10.8478755576804"><ele>1017.0</ele><time>2026-03-28T09:58:00.877Z</time></trkpt><trkpt lat="44.06499425944079" lon="10.847932670788"><ele>1017.0</ele><time>2026-03-28T09:58:01.877Z</time></trkpt><trkpt lat="44.064909936649684" lon="10.847976581124199"><ele>1017.0</ele><time>2026-03-28T09:58:02.877Z</time></trkpt><trkpt lat="44.064830236750325" lon="10.848031791626706"><ele>1017.0</ele><time>2026-03-28T09:58:03.877Z</time></trkpt><trkpt lat="44.06474896495821" lon="10.848077747771454"><ele>1017.0</ele><time>2026-03-28T09:58:04.877Z</time></trkpt><trkpt lat="44.06467136365697" lon="10.848132984310668"><ele>1011.0</ele><time>2026-03-28T09:58:05.877Z</time></trkpt><trkpt lat="44.06459195114625" lon="10.848168928716875"><ele>1005.0</ele><time>2026-03-28T09:58:06.877Z</time></trkpt><trkpt lat="44.06450192924752" lon="10.848221576815368"><ele>999.0</ele><time>2026-03-28T09:58:07.877Z</time></trkpt><trkpt lat="44.064417175563115" lon="10.848286704307613"><ele>993.0</ele><time>2026-03-28T09:58:08.877Z</time></trkpt><trkpt lat="44.064338821785434" lon="10.84834246547957"><ele>987.0</ele><time>2026-03-28T09:58:09.877Z</time></trkpt><trkpt lat="44.064257268140395" lon="10.848391584521337"><ele>987.0</ele><time>2026-03-28T09:58:10.877Z</time></trkpt><trkpt lat="44.064175011162625" lon="10.848445362821591"><ele>987.0</ele><time>2026-03-28T09:58:11.877Z</time></trkpt><trkpt lat="44.06410835852739" lon="10.848475852165961"><ele>987.0</ele><time>2026-03-28T09:58:12.877Z</time></trkpt><trkpt lat="44.064039547383736" lon="10.848535260117746"><ele>987.0</ele><time>2026-03-28T09:58:13.877Z</time></trkpt><trkpt lat="44.06396443458211" lon="10.848590215190555"><ele>987.0</ele><time>2026-03-28T09:58:14.877Z</time></trkpt><trkpt lat="44.063909777178026" lon="10.848648671589572"><ele>987.0</ele><time>2026-03-28T09:58:15.877Z</time></trkpt><trkpt lat="44.06384953637663" lon="10.848719098674735"><ele>988.1666666666666</ele><time>2026-03-28T09:58:16.877Z</time></trkpt><trkpt lat="44.06379826725536" lon="10.84879186481464"><ele>989.3333333333333</ele><time>2026-03-28T09:58:17.877Z</time></trkpt><trkpt lat="44.06377795483528" lon="10.848879100524492"><ele>990.5</ele><time>2026-03-28T09:58:18.877Z</time></trkpt><trkpt lat="44.06374842730864" lon="10.848965917908306"><ele>991.6666666666666</ele><time>2026-03-28T09:58:19.877Z</time></trkpt><trkpt lat="44.06373382146489" lon="10.849082130061385"><ele>992.8333333333333</ele><time>2026-03-28T09:58:20.877Z</time></trkpt><trkpt lat="44.063679631316354" lon="10.849240708087837"><ele>994.0</ele><time>2026-03-28T09:58:22.877Z</time></trkpt><trkpt lat="44.06365825593372" lon="10.849329658467212"><ele>994.0</ele><time>2026-03-28T09:58:23.877Z</time></trkpt><trkpt lat="44.06357343868873" lon="10.84943858507006"><ele>994.0000000000001</ele><time>2026-03-28T09:58:25.877Z</time></trkpt><trkpt lat="44.06350532690687" lon="10.849506677194181"><ele>994.0000000000001</ele><time>2026-03-28T09:58:27.877Z</time></trkpt><trkpt lat="44.063404603978725" lon="10.849448651714917"><ele>994.0</ele><time>2026-03-28T09:58:29.877Z</time></trkpt><trkpt lat="44.06330655485295" lon="10.849419314704326"><ele>994.0</ele><time>2026-03-28T09:58:30.877Z</time></trkpt><trkpt lat="44.063203297106895" lon="10.84941466133264"><ele>986.9999999999999</ele><time>2026-03-28T09:58:32.877Z</time></trkpt><trkpt lat="44.063132020667524" lon="10.849462737628613"><ele>980.0</ele><time>2026-03-28T09:58:34.877Z</time></trkpt><trkpt lat="44.063091274687345" lon="10.849544514753564"><ele>973.0</ele><time>2026-03-28T09:58:36.877Z</time></trkpt><trkpt lat="44.06304693375847" lon="10.849669278698324"><ele>966.0</ele><time>2026-03-28T09:58:38.877Z</time></trkpt><trkpt lat="44.06301287103522" lon="10.849770033526669"><ele>958.9999999999999</ele><time>2026-03-28T09:58:39.877Z</time></trkpt><trkpt lat="44.06299062520991" lon="10.849904792801768"><ele>952.0</ele><time>2026-03-28T09:58:41.877Z</time></trkpt><trkpt lat="44.06297546459392" lon="10.850077004745465"><ele>954.4000000000001</ele><time>2026-03-28T09:58:43.877Z</time></trkpt><trkpt lat="44.06297655385485" lon="10.850196149779109"><ele>956.8000000000001</ele><time>2026-03-28T09:58:44.877Z</time></trkpt><trkpt lat="44.06297195336571" lon="10.850289209136688"><ele>959.2</ele><time>2026-03-28T09:58:45.877Z</time></trkpt><trkpt lat="44.0629611941629" lon="10.850424364630193"><ele>961.6</ele><time>2026-03-28T09:58:47.877Z</time></trkpt><trkpt lat="44.06293994847919" lon="10.8505779495334"><ele>964.0</ele><time>2026-03-28T09:58:49.877Z</time></trkpt><trkpt lat="44.06291097463209" lon="10.85072683393305"><ele>963.9999999999999</ele><time>2026-03-28T09:58:51.877Z</time></trkpt><trkpt lat="44.062857827473636" lon="10.8508118087694"><ele>964.0</ele><time>2026-03-28T09:58:53.877Z</time></trkpt><trkpt lat="44.06278344654468" lon="10.850776080113247"><ele>964.0</ele><time>2026-03-28T09:58:55.877Z</time></trkpt><trkpt lat="44.062746906486645" lon="10.850656122117014"><ele>964.0</ele><time>2026-03-28T09:58:57.877Z</time></trkpt><trkpt lat="44.062700292531545" lon="10.850570275926243"><ele>963.9999999999999</ele><time>2026-03-28T09:58:59.877Z</time></trkpt><trkpt lat="44.06262573974761" lon="10.850539057331876"><ele>964.0</ele><time>2026-03-28T09:59:01.877Z</time></trkpt><trkpt lat="44.0625617326017" lon="10.850527618045334"><ele>964.0</ele><time>2026-03-28T09:59:02.877Z</time></trkpt><trkpt lat="44.06249425618585" lon="10.850517930888751"><ele>964.0000000000001</ele><time>2026-03-28T09:59:03.877Z</time></trkpt><trkpt lat="44.06238584525598" lon="10.85052044057215"><ele>964.0000000000001</ele><time>2026-03-28T09:59:05.877Z</time></trkpt><trkpt lat="44.06230842347849" lon="10.85055976538369"><ele>964.0</ele><time>2026-03-28T09:59:06.878Z</time></trkpt><trkpt lat="44.06224893846955" lon="10.850630377403474"><ele>964.0</ele><time>2026-03-28T09:59:07.877Z</time></trkpt><trkpt lat="44.062126965827225" lon="10.850665750394462"><ele>960.9999999999999</ele><time>2026-03-28T09:59:09.877Z</time></trkpt><trkpt lat="44.06204799202614" lon="10.85061091775861"><ele>958.0</ele><time>2026-03-28T09:59:10.877Z</time></trkpt><trkpt lat="44.06196569562359" lon="10.850539224316742"><ele>955.0</ele><time>2026-03-28T09:59:12.876Z</time></trkpt><trkpt lat="44.06190847318254" lon="10.850462343261034"><ele>952.0</ele><time>2026-03-28T09:59:14.877Z</time></trkpt><trkpt lat="44.0618278435036" lon="10.85044653086519"><ele>948.9999999999999</ele><time>2026-03-28T09:59:16.877Z</time></trkpt><trkpt lat="44.06176085844298" lon="10.850544097257023"><ele>946.0</ele><time>2026-03-28T09:59:18.877Z</time></trkpt><trkpt lat="44.06171803305445" lon="10.850615893838862"><ele>946.0</ele><time>2026-03-28T09:59:19.877Z</time></trkpt><trkpt lat="44.06167201970999" lon="10.85068884556518"><ele>945.9999999999999</ele><time>2026-03-28T09:59:20.877Z</time></trkpt><trkpt lat="44.061578865184806" lon="10.850809634792071"><ele>945.9999999999999</ele><time>2026-03-28T09:59:22.877Z</time></trkpt><trkpt lat="44.06150116835871" lon="10.8509163099452"><ele>946.0</ele><time>2026-03-28T09:59:24.877Z</time></trkpt><trkpt lat="44.06140505868739" lon="10.850914912760228"><ele>946.0</ele><time>2026-03-28T09:59:27.877Z</time></trkpt><trkpt lat="44.06133842297031" lon="10.850797775202034"><ele>943.9999999999999</ele><time>2026-03-28T09:59:29.877Z</time></trkpt><trkpt lat="44.06129723637081" lon="10.850687287511203"><ele>942.0</ele><time>2026-03-28T09:59:31.877Z</time></trkpt><trkpt lat="44.061246001918256" lon="10.850595457635738"><ele>940.0</ele><time>2026-03-28T09:59:33.877Z</time></trkpt><trkpt lat="44.06114262004334" lon="10.850554643140327"><ele>938.0</ele><time>2026-03-28T09:59:35.877Z</time></trkpt><trkpt lat="44.06105693772754" lon="10.850565961134647"><ele>935.9999999999999</ele><time>2026-03-28T09:59:36.877Z</time></trkpt><trkpt lat="44.0609782279107" lon="10.850555382816605"><ele>934.0</ele><time>2026-03-28T09:59:37.877Z</time></trkpt><trkpt lat="44.060902376056895" lon="10.850547979111978"><ele>934.0</ele><time>2026-03-28T09:59:38.877Z</time></trkpt><trkpt lat="44.0607924674021" lon="10.850543230045808"><ele>934.0000000000001</ele><time>2026-03-28T09:59:40.877Z</time></trkpt><trkpt lat="44.060674646624875" lon="10.850513404160262"><ele>934.0000000000001</ele><time>2026-03-28T09:59:42.877Z</time></trkpt><trkpt lat="44.06060222129339" lon="10.850519947859352"><ele>934.0</ele><time>2026-03-28T09:59:43.877Z</time></trkpt><trkpt lat="44.060477735114006" lon="10.850559696219708"><ele>934.0</ele><time>2026-03-28T09:59:45.877Z</time></trkpt><trkpt lat="44.06041452924514" lon="10.85058171846755"><ele>934.0</ele><time>2026-03-28T09:59:46.877Z</time></trkpt><trkpt lat="44.06031436386453" lon="10.850650672718345"><ele>934.0000000000001</ele><time>2026-03-28T09:59:48.877Z</time></trkpt><trkpt lat="44.06017105396453" lon="10.850688186945527"><ele>934.0000000000001</ele><time>2026-03-28T09:59:50.877Z</time></trkpt><trkpt lat="44.06008372809837" lon="10.850664216753584"><ele>934.0</ele><time>2026-03-28T09:59:51.877Z</time></trkpt><trkpt lat="44.059998160102815" lon="10.850626095177105"><ele>934.0</ele><time>2026-03-28T09:59:52.877Z</time></trkpt><trkpt lat="44.05993561660325" lon="10.850590112897999"><ele>933.9999999999999</ele><time>2026-03-28T09:59:53.877Z</time></trkpt><trkpt lat="44.05985373420719" lon="10.850549151354954"><ele>934.0</ele><time>2026-03-28T09:59:54.877Z</time></trkpt><trkpt lat="44.05978276148292" lon="10.850515033847698"><ele>934.0</ele><time>2026-03-28T09:59:55.877Z</time></trkpt><trkpt lat="44.05971421794231" lon="10.85049270489625"><ele>934.0</ele><time>2026-03-28T09:59:56.877Z</time></trkpt><trkpt lat="44.05964551821442" lon="10.850475184318853"><ele>933.9999999999999</ele><time>2026-03-28T09:59:57.877Z</time></trkpt><trkpt lat="44.059572612000096" lon="10.850427385026336"><ele>934.0</ele><time>2026-03-28T09:59:58.877Z</time></trkpt><trkpt lat="44.059500014685376" lon="10.850378153416909"><ele>933.9999999999999</ele><time>2026-03-28T09:59:59.877Z</time></trkpt><trkpt lat="44.059426869734686" lon="10.850337599095965"><ele>934.0</ele><time>2026-03-28T10:00:00.877Z</time></trkpt><trkpt lat="44.05936194221805" lon="10.85029582672746"><ele>934.0</ele><time>2026-03-28T10:00:01.877Z</time></trkpt><trkpt lat="44.05930423010701" lon="10.850248634516237"><ele>934.0</ele><time>2026-03-28T10:00:02.877Z</time></trkpt><trkpt lat="44.05925323014723" lon="10.850182699301111"><ele>933.9999999999999</ele><time>2026-03-28T10:00:03.877Z</time></trkpt><trkpt lat="44.05920964421019" lon="10.850116541713705"><ele>934.0</ele><time>2026-03-28T10:00:04.877Z</time></trkpt><trkpt lat="44.05912718302617" lon="10.850004899204855"><ele>928.4000000000001</ele><time>2026-03-28T10:00:06.877Z</time></trkpt><trkpt lat="44.059047497562275" lon="10.84988621241402"><ele>922.8000000000001</ele><time>2026-03-28T10:00:08.877Z</time></trkpt><trkpt lat="44.05900803324652" lon="10.849817580674694"><ele>917.1999999999999</ele><time>2026-03-28T10:00:09.877Z</time></trkpt><trkpt lat="44.05894235565686" lon="10.849695313067246"><ele>911.5999999999999</ele><time>2026-03-28T10:00:11.877Z</time></trkpt><trkpt lat="44.058871029101155" lon="10.849584447917117"><ele>906.0</ele><time>2026-03-28T10:00:13.877Z</time></trkpt><trkpt lat="44.058785192318496" lon="10.849508291035983"><ele>906.0</ele><time>2026-03-28T10:00:15.877Z</time></trkpt><trkpt lat="44.058712637742914" lon="10.8494652462047"><ele>906.0</ele><time>2026-03-28T10:00:16.877Z</time></trkpt><trkpt lat="44.05864799095585" lon="10.84944784552656"><ele>906.0</ele><time>2026-03-28T10:00:17.877Z</time></trkpt><trkpt lat="44.05858496396662" lon="10.849435567161775"><ele>906.0</ele><time>2026-03-28T10:00:18.877Z</time></trkpt><trkpt lat="44.05846948988658" lon="10.84944856802252"><ele>906.0</ele><time>2026-03-28T10:00:20.877Z</time></trkpt><trkpt lat="44.058358409968214" lon="10.849521614388372"><ele>906.0</ele><time>2026-03-28T10:00:22.877Z</time></trkpt><trkpt lat="44.05828060278053" lon="10.849570803374332"><ele>898.4</ele><time>2026-03-28T10:00:23.877Z</time></trkpt><trkpt lat="44.058210237184205" lon="10.849614275197714"><ele>890.8</ele><time>2026-03-28T10:00:24.877Z</time></trkpt><trkpt lat="44.05811028800747" lon="10.8496702827283"><ele>883.1999999999999</ele><time>2026-03-28T10:00:26.876Z</time></trkpt><trkpt lat="44.05803581425203" lon="10.849693905792897"><ele>875.5999999999999</ele><time>2026-03-28T10:00:28.876Z</time></trkpt><trkpt lat="44.057941745916075" lon="10.849789513374779"><ele>868.0</ele><time>2026-03-28T10:00:30.876Z</time></trkpt><trkpt lat="44.057879521698645" lon="10.849913647287272"><ele>867.9999999999999</ele><time>2026-03-28T10:00:32.876Z</time></trkpt><trkpt lat="44.057864554603015" lon="10.850006117273043"><ele>868.0</ele><time>2026-03-28T10:00:33.876Z</time></trkpt><trkpt lat="44.057856776881174" lon="10.850101400851427"><ele>868.0</ele><time>2026-03-28T10:00:34.876Z</time></trkpt><trkpt lat="44.057847659035176" lon="10.85019118308407"><ele>868.0</ele><time>2026-03-28T10:00:35.876Z</time></trkpt><trkpt lat="44.05784118695927" lon="10.850280471807123"><ele>867.9999999999999</ele><time>2026-03-28T10:00:36.876Z</time></trkpt><trkpt lat="44.05781221840249" lon="10.850398436340427"><ele>868.0</ele><time>2026-03-28T10:00:38.876Z</time></trkpt><trkpt lat="44.05781643072005" lon="10.85053021179589"><ele>870.4</ele><time>2026-03-28T10:00:40.876Z</time></trkpt><trkpt lat="44.05779388963611" lon="10.850659924795103"><ele>872.8</ele><time>2026-03-28T10:00:42.876Z</time></trkpt><trkpt lat="44.05773491433646" lon="10.850759051410579"><ele>875.2</ele><time>2026-03-28T10:00:44.876Z</time></trkpt><trkpt lat="44.05764717130583" lon="10.850719979454762"><ele>877.6</ele><time>2026-03-28T10:00:46.876Z</time></trkpt><trkpt lat="44.05758389229166" lon="10.850621802443202"><ele>880.0</ele><time>2026-03-28T10:00:48.876Z</time></trkpt><trkpt lat="44.05749949091846" lon="10.850552708522455"><ele>879.3333333333333</ele><time>2026-03-28T10:00:50.876Z</time></trkpt><trkpt lat="44.057391019458706" lon="10.850521232299744"><ele>878.6666666666666</ele><time>2026-03-28T10:00:52.876Z</time></trkpt><trkpt lat="44.05732296122838" lon="10.85052702737518"><ele>878.0</ele><time>2026-03-28T10:00:53.876Z</time></trkpt><trkpt lat="44.05725477735162" lon="10.850526326757615"><ele>877.3333333333333</ele><time>2026-03-28T10:00:54.876Z</time></trkpt><trkpt lat="44.057190164372244" lon="10.85053222291601"><ele>876.6666666666666</ele><time>2026-03-28T10:00:55.876Z</time></trkpt><trkpt lat="44.05712627834538" lon="10.850516631825714"><ele>876.0</ele><time>2026-03-28T10:00:56.876Z</time></trkpt><trkpt lat="44.057018296798255" lon="10.850477048264407"><ele>876.0</ele><time>2026-03-28T10:00:58.876Z</time></trkpt><trkpt lat="44.0569198532205" lon="10.850414738027565"><ele>875.9999999999999</ele><time>2026-03-28T10:01:00.876Z</time></trkpt><trkpt lat="44.05682462636176" lon="10.850354097248895"><ele>875.9999999999999</ele><time>2026-03-28T10:01:02.876Z</time></trkpt><trkpt lat="44.05672822105008" lon="10.850349219997256"><ele>876.0</ele><time>2026-03-28T10:01:04.876Z</time></trkpt><trkpt lat="44.05666743884108" lon="10.85038496373409"><ele>876.0</ele><time>2026-03-28T10:01:05.876Z</time></trkpt><trkpt lat="44.056575711298926" lon="10.850417511044053"><ele>873.5</ele><time>2026-03-28T10:01:07.876Z</time></trkpt><trkpt lat="44.056488018419586" lon="10.850398106061746"><ele>871.0</ele><time>2026-03-28T10:01:09.877Z</time></trkpt><trkpt lat="44.05643548872161" lon="10.850349016538361"><ele>868.5</ele><time>2026-03-28T10:01:11.877Z</time></trkpt><trkpt lat="44.056357659423824" lon="10.850300250668601"><ele>866.0</ele><time>2026-03-28T10:01:13.877Z</time></trkpt><trkpt lat="44.056263500906844" lon="10.850300245336436"><ele>863.5</ele><time>2026-03-28T10:01:15.876Z</time></trkpt><trkpt lat="44.056205330622376" lon="10.850337680048744"><ele>861.0</ele><time>2026-03-28T10:01:17.876Z</time></trkpt><trkpt lat="44.05610852011385" lon="10.850352303131293"><ele>861.0</ele><time>2026-03-28T10:01:19.877Z</time></trkpt><trkpt lat="44.05602493513941" lon="10.850431914108407"><ele>860.9999999999999</ele><time>2026-03-28T10:01:21.877Z</time></trkpt><trkpt lat="44.05594625806207" lon="10.850516330151619"><ele>860.9999999999999</ele><time>2026-03-28T10:01:23.876Z</time></trkpt><trkpt lat="44.05587697872203" lon="10.850602846982103"><ele>861.0</ele><time>2026-03-28T10:01:25.876Z</time></trkpt><trkpt lat="44.055812732021636" lon="10.850637212458153"><ele>861.0</ele><time>2026-03-28T10:01:27.876Z</time></trkpt><trkpt lat="44.05572272320085" lon="10.85056409127204"><ele>861.0</ele><time>2026-03-28T10:01:30.876Z</time></trkpt><trkpt lat="44.05570961105104" lon="10.850463052294414"><ele>860.9999999999999</ele><time>2026-03-28T10:01:32.876Z</time></trkpt><trkpt lat="44.05576787248805" lon="10.850385822694882"><ele>860.9999999999999</ele><time>2026-03-28T10:01:34.876Z</time></trkpt><trkpt lat="44.0558636338496" lon="10.850298692012057"><ele>861.0</ele><time>2026-03-28T10:01:36.876Z</time></trkpt><trkpt lat="44.055965227345105" lon="10.8502123313305"><ele>861.0</ele><time>2026-03-28T10:01:38.876Z</time></trkpt><trkpt lat="44.056072439976965" lon="10.85015525818953"><ele>858.5</ele><time>2026-03-28T10:01:40.876Z</time></trkpt><trkpt lat="44.05617744536832" lon="10.850090384352185"><ele>856.0</ele><time>2026-03-28T10:01:42.876Z</time></trkpt><trkpt lat="44.05629607390582" lon="10.850076790034597"><ele>853.5</ele><time>2026-03-28T10:01:44.876Z</time></trkpt><trkpt lat="44.05636316155393" lon="10.850086572834003"><ele>851.0</ele><time>2026-03-28T10:01:45.876Z</time></trkpt><trkpt lat="44.05643565419326" lon="10.850085496272877"><ele>848.5</ele><time>2026-03-28T10:01:46.876Z</time></trkpt><trkpt lat="44.05650963607546" lon="10.850073104270354"><ele>846.0</ele><time>2026-03-28T10:01:47.876Z</time></trkpt><trkpt lat="44.05658103122958" lon="10.85004010100995"><ele>846.8333333333334</ele><time>2026-03-28T10:01:48.876Z</time></trkpt><trkpt lat="44.0566500950676" lon="10.849994235744694"><ele>847.6666666666667</ele><time>2026-03-28T10:01:49.876Z</time></trkpt><trkpt lat="44.056713251365956" lon="10.849947344713444"><ele>848.5</ele><time>2026-03-28T10:01:50.876Z</time></trkpt><trkpt lat="44.05676542586914" lon="10.849893145070526"><ele>849.3333333333334</ele><time>2026-03-28T10:01:51.876Z</time></trkpt><trkpt lat="44.0568280457109" lon="10.849805510394825"><ele>850.1666666666667</ele><time>2026-03-28T10:01:53.876Z</time></trkpt><trkpt lat="44.05691928152193" lon="10.849725069108596"><ele>851.0</ele><time>2026-03-28T10:01:55.876Z</time></trkpt><trkpt lat="44.057041814122655" lon="10.849734712058334"><ele>851.0000000000001</ele><time>2026-03-28T10:01:57.876Z</time></trkpt><trkpt lat="44.057134815080516" lon="10.849789061513155"><ele>851.0</ele><time>2026-03-28T10:01:59.876Z</time></trkpt><trkpt lat="44.057204354072425" lon="10.849739985153864"><ele>851.0</ele><time>2026-03-28T10:02:01.876Z</time></trkpt><trkpt lat="44.057205371801565" lon="10.849650105681729"><ele>851.0</ele><time>2026-03-28T10:02:02.876Z</time></trkpt><trkpt lat="44.05717154950741" lon="10.849564457898136"><ele>851.0000000000001</ele><time>2026-03-28T10:02:03.876Z</time></trkpt><trkpt lat="44.05706323411058" lon="10.84947246320469"><ele>851.0</ele><time>2026-03-28T10:02:05.876Z</time></trkpt><trkpt lat="44.05698360137118" lon="10.849345994006823"><ele>848.0000000000001</ele><time>2026-03-28T10:02:07.876Z</time></trkpt><trkpt lat="44.05697837823013" lon="10.849256141822837"><ele>845.0</ele><time>2026-03-28T10:02:08.876Z</time></trkpt><trkpt lat="44.05696905151942" lon="10.849128081653479"><ele>842.0</ele><time>2026-03-28T10:02:10.876Z</time></trkpt><trkpt lat="44.05687468588822" lon="10.849054867868233"><ele>839.0</ele><time>2026-03-28T10:02:12.876Z</time></trkpt><trkpt lat="44.0568096416179" lon="10.849039516731976"><ele>836.0000000000001</ele><time>2026-03-28T10:02:13.876Z</time></trkpt><trkpt lat="44.05671934359284" lon="10.848971256205136"><ele>833.0</ele><time>2026-03-28T10:02:15.876Z</time></trkpt><trkpt lat="44.05665057021003" lon="10.848858892258969"><ele>832.3333333333334</ele><time>2026-03-28T10:02:17.876Z</time></trkpt><trkpt lat="44.05654978060487" lon="10.84875641429255"><ele>831.6666666666667</ele><time>2026-03-28T10:02:19.876Z</time></trkpt><trkpt lat="44.05648644542681" lon="10.848717591263176"><ele>831.0</ele><time>2026-03-28T10:02:20.876Z</time></trkpt><trkpt lat="44.05642344233773" lon="10.848696872093173"><ele>830.3333333333333</ele><time>2026-03-28T10:02:21.876Z</time></trkpt><trkpt lat="44.05635295721376" lon="10.848703613837676"><ele>829.6666666666666</ele><time>2026-03-28T10:02:22.876Z</time></trkpt><trkpt lat="44.05628726862647" lon="10.848699852310828"><ele>829.0</ele><time>2026-03-28T10:02:23.876Z</time></trkpt><trkpt lat="44.05620938956851" lon="10.848699471889667"><ele>829.0</ele><time>2026-03-28T10:02:24.876Z</time></trkpt><trkpt lat="44.05613936150556" lon="10.848689781713624"><ele>829.0</ele><time>2026-03-28T10:02:25.876Z</time></trkpt><trkpt lat="44.05606926050862" lon="10.84866989371336"><ele>829.0</ele><time>2026-03-28T10:02:26.876Z</time></trkpt><trkpt lat="44.055946583087966" lon="10.848671273396256"><ele>829.0</ele><time>2026-03-28T10:02:28.876Z</time></trkpt><trkpt lat="44.05583179707802" lon="10.84864872333404"><ele>829.0</ele><time>2026-03-28T10:02:30.876Z</time></trkpt><trkpt lat="44.055728616711065" lon="10.848577447292715"><ele>828.0</ele><time>2026-03-28T10:02:32.876Z</time></trkpt><trkpt lat="44.055675655904494" lon="10.84848157877153"><ele>827.0</ele><time>2026-03-28T10:02:34.876Z</time></trkpt><trkpt lat="44.05565423848834" lon="10.848395574866077"><ele>826.0</ele><time>2026-03-28T10:02:37.876Z</time></trkpt><trkpt lat="44.05560496778223" lon="10.84829362568463"><ele>825.0</ele><time>2026-03-28T10:02:39.876Z</time></trkpt><trkpt lat="44.05554162043873" lon="10.848159005370471"><ele>824.0</ele><time>2026-03-28T10:02:41.876Z</time></trkpt><trkpt lat="44.055477135817306" lon="10.848037686293274"><ele>823.0</ele><time>2026-03-28T10:02:43.876Z</time></trkpt><trkpt lat="44.055388769677485" lon="10.847944575210805"><ele>822.0</ele><time>2026-03-28T10:02:45.876Z</time></trkpt><trkpt lat="44.055263711340054" lon="10.847910673426359"><ele>821.0</ele><time>2026-03-28T10:02:47.876Z</time></trkpt><trkpt lat="44.05519847208213" lon="10.847913935215363"><ele>820.0</ele><time>2026-03-28T10:02:48.876Z</time></trkpt><trkpt lat="44.055118344149754" lon="10.847932310802896"><ele>819.0</ele><time>2026-03-28T10:02:49.876Z</time></trkpt><trkpt lat="44.05503303748106" lon="10.847959427703993"><ele>816.8333333333334</ele><time>2026-03-28T10:02:50.876Z</time></trkpt><trkpt lat="44.054948306933085" lon="10.847978142475666"><ele>814.6666666666667</ele><time>2026-03-28T10:02:51.876Z</time></trkpt><trkpt lat="44.05486298254527" lon="10.84800003665268"><ele>812.5</ele><time>2026-03-28T10:02:52.876Z</time></trkpt><trkpt lat="44.05477644128654" lon="10.848022216213488"><ele>810.3333333333334</ele><time>2026-03-28T10:02:53.876Z</time></trkpt><trkpt lat="44.0546924535334" lon="10.848042177591482"><ele>808.1666666666667</ele><time>2026-03-28T10:02:54.876Z</time></trkpt><trkpt lat="44.05461097231351" lon="10.848052462640116"><ele>806.0</ele><time>2026-03-28T10:02:55.876Z</time></trkpt><trkpt lat="44.054539705937295" lon="10.84806106711653"><ele>806.0</ele><time>2026-03-28T10:02:56.876Z</time></trkpt><trkpt lat="44.05439168974506" lon="10.848084569566797"><ele>806.0</ele><time>2026-03-28T10:02:58.876Z</time></trkpt><trkpt lat="44.054284432814306" lon="10.84810813663487"><ele>806.0</ele><time>2026-03-28T10:03:00.876Z</time></trkpt><trkpt lat="44.05416295884927" lon="10.848126927059315"><ele>806.0</ele><time>2026-03-28T10:03:02.876Z</time></trkpt><trkpt lat="44.05409010554546" lon="10.848156084342234"><ele>803.8</ele><time>2026-03-28T10:03:03.876Z</time></trkpt><trkpt lat="44.05402649114878" lon="10.848174206884208"><ele>801.5999999999999</ele><time>2026-03-28T10:03:04.876Z</time></trkpt><trkpt lat="44.053937568416636" lon="10.848213051018432"><ele>799.4</ele><time>2026-03-28T10:03:06.876Z</time></trkpt><trkpt lat="44.053854378444726" lon="10.848222507153848"><ele>797.2</ele><time>2026-03-28T10:03:08.876Z</time></trkpt><trkpt lat="44.05373591286139" lon="10.84825656666368"><ele>795.0</ele><time>2026-03-28T10:03:10.876Z</time></trkpt><trkpt lat="44.05364617805449" lon="10.84827233398508"><ele>795.0</ele><time>2026-03-28T10:03:12.876Z</time></trkpt><trkpt lat="44.05354881701795" lon="10.848317908540697"><ele>795.0</ele><time>2026-03-28T10:03:14.876Z</time></trkpt><trkpt lat="44.05349277456799" lon="10.848416687024582"><ele>795.0</ele><time>2026-03-28T10:03:16.876Z</time></trkpt><trkpt lat="44.05343299361671" lon="10.848526489516008"><ele>795.0</ele><time>2026-03-28T10:03:18.876Z</time></trkpt><trkpt lat="44.053394292967205" lon="10.848618477763422"><ele>795.0</ele><time>2026-03-28T10:03:20.876Z</time></trkpt><trkpt lat="44.05337599813859" lon="10.84870327683541"><ele>795.0</ele><time>2026-03-28T10:03:22.876Z</time></trkpt><trkpt lat="44.053298646069834" lon="10.84870612447283"><ele>794.0</ele><time>2026-03-28T10:03:24.876Z</time></trkpt><trkpt lat="44.05321279890617" lon="10.848666622643176"><ele>793.0</ele><time>2026-03-28T10:03:26.875Z</time></trkpt><trkpt lat="44.053133707538244" lon="10.848633502015005"><ele>792.0</ele><time>2026-03-28T10:03:28.876Z</time></trkpt><trkpt lat="44.053046993984076" lon="10.848617775947355"><ele>791.0</ele><time>2026-03-28T10:03:30.876Z</time></trkpt><trkpt lat="44.05296493406058" lon="10.848577053282698"><ele>790.0</ele><time>2026-03-28T10:03:32.876Z</time></trkpt><trkpt lat="44.05287859948281" lon="10.84856214285189"><ele>789.0</ele><time>2026-03-28T10:03:34.876Z</time></trkpt><trkpt lat="44.0527878349805" lon="10.84855684020388"><ele>789.0</ele><time>2026-03-28T10:03:37.876Z</time></trkpt><trkpt lat="44.0527093881315" lon="10.848629794565912"><ele>789.0</ele><time>2026-03-28T10:03:40.876Z</time></trkpt><trkpt lat="44.05261509859666" lon="10.848672247494646"><ele>789.0</ele><time>2026-03-28T10:03:43.876Z</time></trkpt><trkpt lat="44.052553564818766" lon="10.848705109135755"><ele>789.0</ele><time>2026-03-28T10:03:45.876Z</time></trkpt><trkpt lat="44.052481720868066" lon="10.848731644641736"><ele>789.0</ele><time>2026-03-28T10:03:47.876Z</time></trkpt><trkpt lat="44.052413801605056" lon="10.84879804104964"><ele>789.0</ele><time>2026-03-28T10:03:49.876Z</time></trkpt><trkpt lat="44.052341448956966" lon="10.848837047464386"><ele>787.8333333333334</ele><time>2026-03-28T10:03:54.876Z</time></trkpt><trkpt lat="44.052278069697344" lon="10.84887241306313"><ele>786.6666666666667</ele><time>2026-03-28T10:04:03.876Z</time></trkpt><trkpt lat="44.052223564588175" lon="10.848966928924465"><ele>785.5</ele><time>2026-03-28T10:04:07.876Z</time></trkpt><trkpt lat="44.05216159325227" lon="10.849018479886574"><ele>784.3333333333334</ele><time>2026-03-28T10:04:09.876Z</time></trkpt><trkpt lat="44.05209731333178" lon="10.849052649236203"><ele>783.1666666666667</ele><time>2026-03-28T10:04:11.875Z</time></trkpt><trkpt lat="44.05201908597249" lon="10.849087118368725"><ele>782.0</ele><time>2026-03-28T10:04:13.875Z</time></trkpt><trkpt lat="44.051920941769666" lon="10.849144356591113"><ele>782.0</ele><time>2026-03-28T10:04:15.875Z</time></trkpt><trkpt lat="44.05183248772657" lon="10.849216457410511"><ele>782.0</ele><time>2026-03-28T10:04:17.875Z</time></trkpt><trkpt lat="44.051748521972286" lon="10.849288242730994"><ele>782.0</ele><time>2026-03-28T10:04:19.875Z</time></trkpt><trkpt lat="44.051663784025195" lon="10.8493824908751"><ele>782.0</ele><time>2026-03-28T10:04:21.875Z</time></trkpt><trkpt lat="44.051633831871385" lon="10.849465803838104"><ele>782.0</ele><time>2026-03-28T10:04:22.875Z</time></trkpt><trkpt lat="44.05158792832747" lon="10.84960332302363"><ele>780.6666666666667</ele><time>2026-03-28T10:04:24.875Z</time></trkpt><trkpt lat="44.051565662653786" lon="10.849734279620673"><ele>779.3333333333334</ele><time>2026-03-28T10:04:26.875Z</time></trkpt><trkpt lat="44.05155485505058" lon="10.849840283405774"><ele>778.0</ele><time>2026-03-28T10:04:28.875Z</time></trkpt><trkpt lat="44.051560606898406" lon="10.84994556339596"><ele>776.6666666666667</ele><time>2026-03-28T10:04:30.875Z</time></trkpt><trkpt lat="44.051564761210926" lon="10.850045999317276"><ele>775.3333333333334</ele><time>2026-03-28T10:04:32.875Z</time></trkpt><trkpt lat="44.05156301508927" lon="10.850157123897425"><ele>774.0</ele><time>2026-03-28T10:04:35.875Z</time></trkpt><trkpt lat="44.05156340913845" lon="10.850285518705498"><ele>773.8333333333334</ele><time>2026-03-28T10:04:38.875Z</time></trkpt><trkpt lat="44.051576017651534" lon="10.850388440445034"><ele>773.6666666666667</ele><time>2026-03-28T10:04:41.875Z</time></trkpt><trkpt lat="44.05157928579366" lon="10.850525701314613"><ele>773.5</ele><time>2026-03-28T10:07:58.875Z</time></trkpt><trkpt lat="44.05157501047603" lon="10.850627240360403"><ele>773.3333333333334</ele><time>2026-03-28T10:08:04.875Z</time></trkpt><trkpt lat="44.051584853960705" lon="10.850723970572183"><ele>773.1666666666667</ele><time>2026-03-28T10:08:07.875Z</time></trkpt><trkpt lat="44.05159545062997" lon="10.850841687822331"><ele>773.0</ele><time>2026-03-28T10:08:10.875Z</time></trkpt><trkpt lat="44.051552616134636" lon="10.850946903758446"><ele>773.5999999999999</ele><time>2026-03-28T10:08:13.875Z</time></trkpt><trkpt lat="44.05149552838793" lon="10.85105659934004"><ele>774.1999999999999</ele><time>2026-03-28T10:08:16.875Z</time></trkpt><trkpt lat="44.05141811765837" lon="10.851119378015683"><ele>774.8</ele><time>2026-03-28T10:08:18.875Z</time></trkpt><trkpt lat="44.05134296206663" lon="10.851184790383439"><ele>775.4</ele><time>2026-03-28T10:08:20.875Z</time></trkpt><trkpt lat="44.05127899029872" lon="10.851249431373525"><ele>776.0</ele><time>2026-03-28T10:08:22.875Z</time></trkpt><trkpt lat="44.05118745850575" lon="10.851327432751845"><ele>776.0000000000001</ele><time>2026-03-28T10:08:24.875Z</time></trkpt><trkpt lat="44.051117279995175" lon="10.851397500357495"><ele>776.0</ele><time>2026-03-28T10:08:26.875Z</time></trkpt><trkpt lat="44.05102308987967" lon="10.851481736673916"><ele>776.0</ele><time>2026-03-28T10:08:28.875Z</time></trkpt><trkpt lat="44.050964178098305" lon="10.851517210521802"><ele>776.0</ele><time>2026-03-28T10:08:29.875Z</time></trkpt><trkpt lat="44.05091666011588" lon="10.85157554759911"><ele>776.0000000000001</ele><time>2026-03-28T10:08:30.875Z</time></trkpt><trkpt lat="44.05082887102122" lon="10.851638627557257"><ele>776.0</ele><time>2026-03-28T10:08:32.875Z</time></trkpt><trkpt lat="44.05076984244043" lon="10.851669898659319"><ele>775.7142857142857</ele><time>2026-03-28T10:08:34.875Z</time></trkpt><trkpt lat="44.05071009377534" lon="10.851707862237769"><ele>775.4285714285714</ele><time>2026-03-28T10:08:36.875Z</time></trkpt><trkpt lat="44.05064643839542" lon="10.851766349533648"><ele>775.1428571428571</ele><time>2026-03-28T10:08:38.875Z</time></trkpt><trkpt lat="44.05059413921403" lon="10.851816173829047"><ele>774.8571428571429</ele><time>2026-03-28T10:08:40.875Z</time></trkpt><trkpt lat="44.05053390376057" lon="10.851863582601013"><ele>774.5714285714287</ele><time>2026-03-28T10:08:42.875Z</time></trkpt><trkpt lat="44.05046440749231" lon="10.8519316885219"><ele>774.2857142857143</ele><time>2026-03-28T10:08:45.875Z</time></trkpt><trkpt lat="44.05039728228671" lon="10.85200006645239"><ele>774.0</ele><time>2026-03-28T10:08:48.875Z</time></trkpt><trkpt lat="44.050310170934566" lon="10.852072388579238"><ele>774.0</ele><time>2026-03-28T10:08:50.875Z</time></trkpt><trkpt lat="44.05024283190899" lon="10.852106504885755"><ele>774.0</ele><time>2026-03-28T10:08:52.875Z</time></trkpt><trkpt lat="44.050156428786984" lon="10.85215306069474"><ele>774.0</ele><time>2026-03-28T10:08:55.875Z</time></trkpt><trkpt lat="44.05009032870558" lon="10.852212853250327"><ele>774.0</ele><time>2026-03-28T10:08:57.875Z</time></trkpt><trkpt lat="44.05002236135574" lon="10.85224805241174"><ele>774.0</ele><time>2026-03-28T10:08:59.875Z</time></trkpt><trkpt lat="44.049959778438875" lon="10.8522962744913"><ele>774.0</ele><time>2026-03-28T10:09:01.875Z</time></trkpt><trkpt lat="44.049880500892435" lon="10.852357518172191"><ele>772.0</ele><time>2026-03-28T10:09:03.875Z</time></trkpt><trkpt lat="44.0498031134906" lon="10.852431349385725"><ele>770.0</ele><time>2026-03-28T10:09:05.875Z</time></trkpt><trkpt lat="44.049725795348344" lon="10.852500396435477"><ele>768.0</ele><time>2026-03-28T10:09:07.875Z</time></trkpt><trkpt lat="44.04964980513808" lon="10.85257575812938"><ele>766.0</ele><time>2026-03-28T10:09:09.875Z</time></trkpt><trkpt lat="44.04957287715953" lon="10.852664502724089"><ele>764.0</ele><time>2026-03-28T10:09:11.875Z</time></trkpt><trkpt lat="44.04950414245154" lon="10.852754595997316"><ele>764.0</ele><time>2026-03-28T10:09:13.875Z</time></trkpt><trkpt lat="44.04943194779267" lon="10.852865989702412"><ele>764.0</ele><time>2026-03-28T10:09:15.875Z</time></trkpt><trkpt lat="44.04936217021887" lon="10.85294913170643"><ele>764.0</ele><time>2026-03-28T10:09:17.875Z</time></trkpt><trkpt lat="44.04931236656362" lon="10.853059372372792"><ele>764.0</ele><time>2026-03-28T10:09:19.875Z</time></trkpt><trkpt lat="44.04930144468176" lon="10.853198820680683"><ele>764.0</ele><time>2026-03-28T10:09:21.875Z</time></trkpt><trkpt lat="44.04929490694184" lon="10.85333476402107"><ele>762.8000000000001</ele><time>2026-03-28T10:09:23.875Z</time></trkpt><trkpt lat="44.04928880929568" lon="10.853486499478471"><ele>761.6</ele><time>2026-03-28T10:09:25.875Z</time></trkpt><trkpt lat="44.04928447512847" lon="10.853644866725672"><ele>760.4</ele><time>2026-03-28T10:09:27.875Z</time></trkpt><trkpt lat="44.0492539084442" lon="10.853793065730862"><ele>759.2</ele><time>2026-03-28T10:09:29.875Z</time></trkpt><trkpt lat="44.04918425374983" lon="10.85391131126231"><ele>758.0</ele><time>2026-03-28T10:09:31.875Z</time></trkpt><trkpt lat="44.049119568379176" lon="10.854037791989377"><ele>758.0</ele><time>2026-03-28T10:09:33.873Z</time></trkpt><trkpt lat="44.04903350100777" lon="10.854090590547719"><ele>758.0</ele><time>2026-03-28T10:09:35.87Z</time></trkpt><trkpt lat="44.048960516927515" lon="10.854115485551079"><ele>758.0</ele><time>2026-03-28T10:09:37.866Z</time></trkpt><trkpt lat="44.04885114598634" lon="10.854156566814407"><ele>758.0</ele><time>2026-03-28T10:09:40.86Z</time></trkpt><trkpt lat="44.048732907251306" lon="10.854146239095455"><ele>758.0</ele><time>2026-03-28T10:09:42.858Z</time></trkpt><trkpt lat="44.048657978713585" lon="10.854147468461408"><ele>758.0</ele><time>2026-03-28T10:09:44.856Z</time></trkpt><trkpt lat="44.04858306964586" lon="10.854170285027012"><ele>758.0</ele><time>2026-03-28T10:09:46.854Z</time></trkpt><trkpt lat="44.04850344194096" lon="10.854228101468006"><ele>758.0</ele><time>2026-03-28T10:09:48.852Z</time></trkpt><trkpt lat="44.04841458839358" lon="10.85427059601936"><ele>758.0</ele><time>2026-03-28T10:09:50.85Z</time></trkpt><trkpt lat="44.04834233178188" lon="10.854388855430473"><ele>758.0</ele><time>2026-03-28T10:09:52.849Z</time></trkpt><trkpt lat="44.04826650999203" lon="10.854467864564205"><ele>756.0</ele><time>2026-03-28T10:09:54.848Z</time></trkpt><trkpt lat="44.048186460696705" lon="10.85454984955195"><ele>754.0</ele><time>2026-03-28T10:09:56.847Z</time></trkpt><trkpt lat="44.04810941895033" lon="10.854643335200029"><ele>752.0</ele><time>2026-03-28T10:09:58.846Z</time></trkpt><trkpt lat="44.04803510514501" lon="10.854713310592356"><ele>750.0</ele><time>2026-03-28T10:10:00.845Z</time></trkpt><trkpt lat="44.04797487866397" lon="10.85482322754861"><ele>748.0</ele><time>2026-03-28T10:10:02.844Z</time></trkpt><trkpt lat="44.04792167506175" lon="10.854930392084857"><ele>748.0</ele><time>2026-03-28T10:10:04.843Z</time></trkpt><trkpt lat="44.04787868773574" lon="10.855071290470299"><ele>748.0</ele><time>2026-03-28T10:10:06.843Z</time></trkpt><trkpt lat="44.04784245523516" lon="10.85520427069045"><ele>748.0</ele><time>2026-03-28T10:10:08.842Z</time></trkpt><trkpt lat="44.0478006746061" lon="10.855340941298385"><ele>748.0</ele><time>2026-03-28T10:10:10.842Z</time></trkpt><trkpt lat="44.04772637254579" lon="10.855454679838747"><ele>748.0</ele><time>2026-03-28T10:10:12.842Z</time></trkpt><trkpt lat="44.04767741220519" lon="10.855510033708514"><ele>747.2</ele><time>2026-03-28T10:10:13.841Z</time></trkpt><trkpt lat="44.04757968832645" lon="10.855603074143358"><ele>746.4</ele><time>2026-03-28T10:10:15.841Z</time></trkpt><trkpt lat="44.04747822614405" lon="10.855633477467897"><ele>745.6</ele><time>2026-03-28T10:10:17.841Z</time></trkpt><trkpt lat="44.04738679864551" lon="10.855661053342367"><ele>744.8000000000001</ele><time>2026-03-28T10:10:19.84Z</time></trkpt><trkpt lat="44.04729808919504" lon="10.855721601100038"><ele>744.0</ele><time>2026-03-28T10:10:21.84Z</time></trkpt><trkpt lat="44.04719228351025" lon="10.85576341845803"><ele>744.0</ele><time>2026-03-28T10:10:23.84Z</time></trkpt><trkpt lat="44.047108485621706" lon="10.855822119107819"><ele>744.0</ele><time>2026-03-28T10:10:25.84Z</time></trkpt><trkpt lat="44.04703054953927" lon="10.855875965913329"><ele>744.0</ele><time>2026-03-28T10:10:27.84Z</time></trkpt><trkpt lat="44.046964684231014" lon="10.855947113463554"><ele>744.0</ele><time>2026-03-28T10:10:29.84Z</time></trkpt><trkpt lat="44.04688062619612" lon="10.855978197854768"><ele>744.0</ele><time>2026-03-28T10:10:31.839Z</time></trkpt><trkpt lat="44.04680502262318" lon="10.856032044107563"><ele>744.0</ele><time>2026-03-28T10:10:33.839Z</time></trkpt><trkpt lat="44.04672128087742" lon="10.85607269176169"><ele>742.8000000000001</ele><time>2026-03-28T10:10:35.839Z</time></trkpt><trkpt lat="44.046645890887326" lon="10.85613134591042"><ele>741.6</ele><time>2026-03-28T10:10:37.839Z</time></trkpt><trkpt lat="44.04656033661984" lon="10.856198438129471"><ele>740.4</ele><time>2026-03-28T10:10:39.839Z</time></trkpt><trkpt lat="44.046498526052424" lon="10.856259311237366"><ele>739.2</ele><time>2026-03-28T10:10:41.839Z</time></trkpt><trkpt lat="44.04641318882996" lon="10.856319184493005"><ele>738.0</ele><time>2026-03-28T10:10:43.839Z</time></trkpt><trkpt lat="44.04632053179634" lon="10.856391586296786"><ele>738.0</ele><time>2026-03-28T10:10:45.839Z</time></trkpt><trkpt lat="44.04624611398729" lon="10.856475267206195"><ele>738.0</ele><time>2026-03-28T10:10:47.839Z</time></trkpt><trkpt lat="44.0461573747076" lon="10.8565697245726"><ele>738.0</ele><time>2026-03-28T10:10:49.839Z</time></trkpt><trkpt lat="44.046080834297484" lon="10.85667148001386"><ele>738.0</ele><time>2026-03-28T10:10:51.839Z</time></trkpt><trkpt lat="44.04601277138526" lon="10.856771678583966"><ele>738.0</ele><time>2026-03-28T10:10:53.839Z</time></trkpt><trkpt lat="44.0459518122545" lon="10.856866391189655"><ele>737.6666666666666</ele><time>2026-03-28T10:10:55.839Z</time></trkpt><trkpt lat="44.045893250229796" lon="10.856947830072853"><ele>737.3333333333334</ele><time>2026-03-28T10:10:58.838Z</time></trkpt><trkpt lat="44.04584709348523" lon="10.8570347867276"><ele>737.0</ele><time>2026-03-28T10:11:01.838Z</time></trkpt><trkpt lat="44.0458230349833" lon="10.857140075020933"><ele>736.6666666666667</ele><time>2026-03-28T10:11:03.838Z</time></trkpt><trkpt lat="44.045771219738945" lon="10.8572268197672"><ele>736.3333333333334</ele><time>2026-03-28T10:11:05.838Z</time></trkpt><trkpt lat="44.04569372102562" lon="10.857300374226032"><ele>736.0</ele><time>2026-03-28T10:11:07.838Z</time></trkpt><trkpt lat="44.045627413788004" lon="10.857364594701629"><ele>736.0</ele><time>2026-03-28T10:11:09.838Z</time></trkpt><trkpt lat="44.04554646906728" lon="10.857444035180958"><ele>736.0</ele><time>2026-03-28T10:11:11.838Z</time></trkpt><trkpt lat="44.04547918415842" lon="10.857487057891841"><ele>736.0</ele><time>2026-03-28T10:11:13.838Z</time></trkpt><trkpt lat="44.04538348978949" lon="10.857561631129421"><ele>736.0</ele><time>2026-03-28T10:11:16.838Z</time></trkpt><trkpt lat="44.04533038044534" lon="10.857648219092997"><ele>736.0</ele><time>2026-03-28T10:11:18.838Z</time></trkpt><trkpt lat="44.0452717744342" lon="10.857750460479746"><ele>737.0</ele><time>2026-03-28T10:11:20.838Z</time></trkpt><trkpt lat="44.04523646729802" lon="10.857905292774358"><ele>738.0</ele><time>2026-03-28T10:11:22.838Z</time></trkpt><trkpt lat="44.04519518790108" lon="10.858052698936115"><ele>739.0</ele><time>2026-03-28T10:11:24.838Z</time></trkpt><trkpt lat="44.04514906816505" lon="10.858182122884836"><ele>740.0</ele><time>2026-03-28T10:11:26.838Z</time></trkpt><trkpt lat="44.045129820807624" lon="10.85827511982091"><ele>741.0</ele><time>2026-03-28T10:11:27.838Z</time></trkpt><trkpt lat="44.04508234802281" lon="10.858426598920472"><ele>740.5999999999999</ele><time>2026-03-28T10:11:29.838Z</time></trkpt><trkpt lat="44.045006112029355" lon="10.858545055722795"><ele>740.2</ele><time>2026-03-28T10:11:31.838Z</time></trkpt><trkpt lat="44.04492000952857" lon="10.85859385539339"><ele>739.8</ele><time>2026-03-28T10:11:33.838Z</time></trkpt><trkpt lat="44.0448290083913" lon="10.858634609469776"><ele>739.4000000000001</ele><time>2026-03-28T10:11:35.838Z</time></trkpt><trkpt lat="44.04473363814948" lon="10.858648810115616"><ele>739.0</ele><time>2026-03-28T10:11:37.838Z</time></trkpt><trkpt lat="44.04465795503853" lon="10.858643013819572"><ele>739.0</ele><time>2026-03-28T10:11:39.838Z</time></trkpt><trkpt lat="44.044582785798156" lon="10.858613330742763"><ele>739.0</ele><time>2026-03-28T10:11:41.838Z</time></trkpt><trkpt lat="44.04447393218081" lon="10.85857271985771"><ele>739.0</ele><time>2026-03-28T10:11:43.838Z</time></trkpt><trkpt lat="44.044374310268466" lon="10.85854794472032"><ele>739.0</ele><time>2026-03-28T10:11:45.838Z</time></trkpt><trkpt lat="44.04429130379054" lon="10.858518484373548"><ele>739.0</ele><time>2026-03-28T10:11:47.839Z</time></trkpt><trkpt lat="44.04421139538903" lon="10.85847985957017"><ele>736.6</ele><time>2026-03-28T10:11:49.838Z</time></trkpt><trkpt lat="44.04412115910873" lon="10.858457506858732"><ele>734.2</ele><time>2026-03-28T10:11:51.838Z</time></trkpt><trkpt lat="44.04402620556148" lon="10.858450597994365"><ele>731.8000000000001</ele><time>2026-03-28T10:11:53.838Z</time></trkpt><trkpt lat="44.0439258835248" lon="10.858479049497936"><ele>729.4000000000001</ele><time>2026-03-28T10:11:55.838Z</time></trkpt><trkpt lat="44.043840867020606" lon="10.858504717798633"><ele>727.0</ele><time>2026-03-28T10:11:57.838Z</time></trkpt><trkpt lat="44.04377227776763" lon="10.85854428413225"><ele>727.0</ele><time>2026-03-28T10:11:59.838Z</time></trkpt><trkpt lat="44.04371847683645" lon="10.85860350264669"><ele>727.0</ele><time>2026-03-28T10:12:01.838Z</time></trkpt><trkpt lat="44.04366558750341" lon="10.858697565018803"><ele>727.0</ele><time>2026-03-28T10:12:04.838Z</time></trkpt><trkpt lat="44.04360917833059" lon="10.858766148075034"><ele>727.0</ele><time>2026-03-28T10:12:07.838Z</time></trkpt><trkpt lat="44.04351933582861" lon="10.858700888850633"><ele>727.0</ele><time>2026-03-28T10:12:10.838Z</time></trkpt><trkpt lat="44.04344414533856" lon="10.858591298435364"><ele>727.0</ele><time>2026-03-28T10:12:12.838Z</time></trkpt><trkpt lat="44.04340559500995" lon="10.858521266691982"><ele>726.5714285714286</ele><time>2026-03-28T10:12:13.838Z</time></trkpt><trkpt lat="44.04337028253102" lon="10.858444482945032"><ele>726.1428571428572</ele><time>2026-03-28T10:12:14.838Z</time></trkpt><trkpt lat="44.04333255874822" lon="10.858369817067683"><ele>725.7142857142858</ele><time>2026-03-28T10:12:15.838Z</time></trkpt><trkpt lat="44.043288364961235" lon="10.858283422635626"><ele>725.2857142857142</ele><time>2026-03-28T10:12:16.838Z</time></trkpt><trkpt lat="44.04324249476467" lon="10.858197096548954"><ele>724.8571428571429</ele><time>2026-03-28T10:12:17.838Z</time></trkpt><trkpt lat="44.04320067525155" lon="10.858115334188154"><ele>724.4285714285714</ele><time>2026-03-28T10:12:18.838Z</time></trkpt><trkpt lat="44.043158375450226" lon="10.85804093205252"><ele>724.0</ele><time>2026-03-28T10:12:19.838Z</time></trkpt><trkpt lat="44.043086338314495" lon="10.857916699543315"><ele>723.0</ele><time>2026-03-28T10:12:21.838Z</time></trkpt><trkpt lat="44.04302380580436" lon="10.857813842034341"><ele>722.0</ele><time>2026-03-28T10:12:23.838Z</time></trkpt><trkpt lat="44.042983043426645" lon="10.8577265088507"><ele>721.0</ele><time>2026-03-28T10:12:25.838Z</time></trkpt><trkpt lat="44.04288833965106" lon="10.857680874626341"><ele>720.0</ele><time>2026-03-28T10:12:28.838Z</time></trkpt><trkpt lat="44.04281964379563" lon="10.857753950003186"><ele>719.0</ele><time>2026-03-28T10:12:30.838Z</time></trkpt><trkpt lat="44.04275520966733" lon="10.857859382499793"><ele>719.0</ele><time>2026-03-28T10:12:32.838Z</time></trkpt><trkpt lat="44.042679798739115" lon="10.857963263484237"><ele>719.0</ele><time>2026-03-28T10:12:34.838Z</time></trkpt><trkpt lat="44.042611739285306" lon="10.85805790278409"><ele>719.0</ele><time>2026-03-28T10:12:36.837Z</time></trkpt><trkpt lat="44.042543156602605" lon="10.858123561634743"><ele>719.0</ele><time>2026-03-28T10:12:38.837Z</time></trkpt><trkpt lat="44.04245758240252" lon="10.85815778590822"><ele>719.0</ele><time>2026-03-28T10:12:40.837Z</time></trkpt><trkpt lat="44.042367143314685" lon="10.858162178852588"><ele>719.3333333333333</ele><time>2026-03-28T10:12:42.837Z</time></trkpt><trkpt lat="44.04228516185996" lon="10.85815965617888"><ele>719.6666666666666</ele><time>2026-03-28T10:12:44.837Z</time></trkpt><trkpt lat="44.04219594089376" lon="10.858156937174044"><ele>720.0</ele><time>2026-03-28T10:12:46.837Z</time></trkpt><trkpt lat="44.04210553970274" lon="10.85816911026312"><ele>720.3333333333334</ele><time>2026-03-28T10:12:48.837Z</time></trkpt><trkpt lat="44.042032510947315" lon="10.858208051740672"><ele>720.6666666666667</ele><time>2026-03-28T10:12:50.837Z</time></trkpt><trkpt lat="44.04193240299825" lon="10.858250770470596"><ele>721.0</ele><time>2026-03-28T10:12:52.837Z</time></trkpt><trkpt lat="44.04181226694918" lon="10.858293200662189"><ele>721.0</ele><time>2026-03-28T10:12:54.837Z</time></trkpt><trkpt lat="44.041708724895756" lon="10.858347384728926"><ele>721.0</ele><time>2026-03-28T10:12:56.837Z</time></trkpt><trkpt lat="44.041651071015046" lon="10.85838727374972"><ele>721.0</ele><time>2026-03-28T10:12:57.837Z</time></trkpt><trkpt lat="44.04159180265977" lon="10.858426791963403"><ele>721.0</ele><time>2026-03-28T10:12:58.837Z</time></trkpt><trkpt lat="44.041524987268254" lon="10.85845909756612"><ele>721.0</ele><time>2026-03-28T10:12:59.837Z</time></trkpt><trkpt lat="44.04145620442885" lon="10.85848294773313"><ele>721.0</ele><time>2026-03-28T10:13:00.837Z</time></trkpt><trkpt lat="44.041393155384235" lon="10.858519483424121"><ele>721.1999999999999</ele><time>2026-03-28T10:13:01.837Z</time></trkpt><trkpt lat="44.04133145548785" lon="10.858553727132026"><ele>721.4</ele><time>2026-03-28T10:13:02.837Z</time></trkpt><trkpt lat="44.04121252527627" lon="10.858599549609773"><ele>721.6</ele><time>2026-03-28T10:13:04.837Z</time></trkpt><trkpt lat="44.04110813373241" lon="10.85863838620537"><ele>721.8</ele><time>2026-03-28T10:13:06.837Z</time></trkpt><trkpt lat="44.041029350947056" lon="10.85870190058778"><ele>722.0</ele><time>2026-03-28T10:13:08.837Z</time></trkpt><trkpt lat="44.040928204354664" lon="10.858728691452933"><ele>722.0</ele><time>2026-03-28T10:13:10.837Z</time></trkpt><trkpt lat="44.04081594312184" lon="10.858752698914735"><ele>722.0</ele><time>2026-03-28T10:13:12.837Z</time></trkpt><trkpt lat="44.04069288524931" lon="10.858783917344294"><ele>722.0</ele><time>2026-03-28T10:13:14.837Z</time></trkpt><trkpt lat="44.04063057953115" lon="10.858800387395702"><ele>722.0</ele><time>2026-03-28T10:13:15.837Z</time></trkpt><trkpt lat="44.04049748556133" lon="10.85881272637973"><ele>722.0</ele><time>2026-03-28T10:13:17.837Z</time></trkpt><trkpt lat="44.040419497244244" lon="10.858830415920263"><ele>718.4000000000001</ele><time>2026-03-28T10:13:18.837Z</time></trkpt><trkpt lat="44.04029548474012" lon="10.858851930698092"><ele>714.8000000000001</ele><time>2026-03-28T10:13:20.837Z</time></trkpt><trkpt lat="44.040166021728595" lon="10.858879357848664"><ele>711.2</ele><time>2026-03-28T10:13:22.837Z</time></trkpt><trkpt lat="44.0400945229896" lon="10.858917608273114"><ele>707.6</ele><time>2026-03-28T10:13:23.837Z</time></trkpt><trkpt lat="44.040032913408155" lon="10.858969664369672"><ele>704.0</ele><time>2026-03-28T10:13:24.837Z</time></trkpt><trkpt lat="44.039978142403555" lon="10.859028496353519"><ele>702.5714285714286</ele><time>2026-03-28T10:13:25.837Z</time></trkpt><trkpt lat="44.03993140575377" lon="10.859096602187334"><ele>701.1428571428571</ele><time>2026-03-28T10:13:26.837Z</time></trkpt><trkpt lat="44.03989892483614" lon="10.859195325594051"><ele>699.7142857142858</ele><time>2026-03-28T10:13:27.837Z</time></trkpt><trkpt lat="44.039872868396415" lon="10.859284312262584"><ele>698.2857142857142</ele><time>2026-03-28T10:13:28.837Z</time></trkpt><trkpt lat="44.03985491239" lon="10.859378269190747"><ele>696.8571428571428</ele><time>2026-03-28T10:13:29.837Z</time></trkpt><trkpt lat="44.03984845291502" lon="10.85948716883814"><ele>695.4285714285714</ele><time>2026-03-28T10:13:30.837Z</time></trkpt><trkpt lat="44.03983867291365" lon="10.859589710316213"><ele>694.0</ele><time>2026-03-28T10:13:31.837Z</time></trkpt><trkpt lat="44.03982339131662" lon="10.85968273385134"><ele>693.6666666666667</ele><time>2026-03-28T10:13:32.837Z</time></trkpt><trkpt lat="44.039813103829694" lon="10.85978581501311"><ele>693.3333333333334</ele><time>2026-03-28T10:13:33.837Z</time></trkpt><trkpt lat="44.03979653840259" lon="10.859880021128385"><ele>693.0</ele><time>2026-03-28T10:13:34.837Z</time></trkpt><trkpt lat="44.03979186448278" lon="10.859976577449322"><ele>692.6666666666666</ele><time>2026-03-28T10:13:35.837Z</time></trkpt><trkpt lat="44.0397825633997" lon="10.860066691554705"><ele>692.3333333333333</ele><time>2026-03-28T10:13:36.837Z</time></trkpt><trkpt lat="44.03977569892437" lon="10.860156345927628"><ele>692.0</ele><time>2026-03-28T10:13:37.837Z</time></trkpt><trkpt lat="44.03971888460776" lon="10.860315686977135"><ele>692.7142857142857</ele><time>2026-03-28T10:13:39.837Z</time></trkpt><trkpt lat="44.03967464063443" lon="10.860383991642568"><ele>693.4285714285714</ele><time>2026-03-28T10:13:40.837Z</time></trkpt><trkpt lat="44.039623372587556" lon="10.860451258575376"><ele>694.1428571428571</ele><time>2026-03-28T10:13:41.837Z</time></trkpt><trkpt lat="44.03956686275817" lon="10.860529464220546"><ele>694.8571428571429</ele><time>2026-03-28T10:13:42.837Z</time></trkpt><trkpt lat="44.03950218737564" lon="10.860584356009783"><ele>695.5714285714286</ele><time>2026-03-28T10:13:43.837Z</time></trkpt><trkpt lat="44.03943191175513" lon="10.86062218416137"><ele>696.2857142857143</ele><time>2026-03-28T10:13:44.837Z</time></trkpt><trkpt lat="44.03936213097915" lon="10.860657380374903"><ele>697.0</ele><time>2026-03-28T10:13:45.837Z</time></trkpt><trkpt lat="44.03929704159501" lon="10.860692297830331"><ele>697.0</ele><time>2026-03-28T10:13:46.837Z</time></trkpt><trkpt lat="44.039186782442236" lon="10.860762121299842"><ele>697.0</ele><time>2026-03-28T10:13:48.837Z</time></trkpt><trkpt lat="44.0390858364394" lon="10.860822885233228"><ele>697.0</ele><time>2026-03-28T10:13:50.837Z</time></trkpt><trkpt lat="44.03902173019686" lon="10.860863405700313"><ele>697.0</ele><time>2026-03-28T10:13:52.837Z</time></trkpt><trkpt lat="44.03896163878491" lon="10.860804523168172"><ele>697.0</ele><time>2026-03-28T10:13:55.837Z</time></trkpt><trkpt lat="44.03894209252079" lon="10.860704792837312"><ele>697.0</ele><time>2026-03-28T10:13:57.837Z</time></trkpt><trkpt lat="44.03890599358543" lon="10.860616109327879"><ele>697.6</ele><time>2026-03-28T10:13:59.837Z</time></trkpt><trkpt lat="44.03886696546778" lon="10.860486983136411"><ele>698.2</ele><time>2026-03-28T10:14:02.837Z</time></trkpt><trkpt lat="44.03884232225166" lon="10.860371129078468"><ele>698.8</ele><time>2026-03-28T10:14:04.837Z</time></trkpt><trkpt lat="44.03882462346701" lon="10.860252381393224"><ele>699.4</ele><time>2026-03-28T10:14:06.837Z</time></trkpt><trkpt lat="44.03881824000942" lon="10.86012535531538"><ele>700.0</ele><time>2026-03-28T10:14:08.837Z</time></trkpt><trkpt lat="44.03881289673518" lon="10.860004528169878"><ele>700.0</ele><time>2026-03-28T10:14:10.837Z</time></trkpt><trkpt lat="44.03880744121504" lon="10.859884408505392"><ele>700.0</ele><time>2026-03-28T10:14:12.837Z</time></trkpt><trkpt lat="44.03880493719483" lon="10.859778670667474"><ele>700.0</ele><time>2026-03-28T10:14:14.837Z</time></trkpt><trkpt lat="44.03881158771872" lon="10.859660223612947"><ele>700.0</ele><time>2026-03-28T10:14:16.837Z</time></trkpt><trkpt lat="44.03881717549923" lon="10.859553935667504"><ele>700.0</ele><time>2026-03-28T10:14:18.837Z</time></trkpt><trkpt lat="44.03880548183555" lon="10.859439007809568"><ele>700.0</ele><time>2026-03-28T10:14:20.837Z</time></trkpt><trkpt lat="44.0387926788963" lon="10.859318583949804"><ele>701.5</ele><time>2026-03-28T10:14:22.837Z</time></trkpt><trkpt lat="44.038786698551476" lon="10.859207800052827"><ele>703.0</ele><time>2026-03-28T10:14:24.837Z</time></trkpt><trkpt lat="44.03876724278073" lon="10.8591180611109"><ele>704.5</ele><time>2026-03-28T10:14:26.837Z</time></trkpt><trkpt lat="44.038753750709276" lon="10.859020507553957"><ele>706.0</ele><time>2026-03-28T10:14:28.837Z</time></trkpt><trkpt lat="44.03872948345415" lon="10.858903943152317"><ele>707.5</ele><time>2026-03-28T10:14:30.837Z</time></trkpt><trkpt lat="44.03869397496178" lon="10.858795783652132"><ele>709.0</ele><time>2026-03-28T10:14:32.837Z</time></trkpt><trkpt lat="44.03868213778562" lon="10.858689256129143"><ele>709.0</ele><time>2026-03-28T10:14:34.836Z</time></trkpt><trkpt lat="44.03865916363819" lon="10.858581224423453"><ele>709.0</ele><time>2026-03-28T10:14:36.836Z</time></trkpt><trkpt lat="44.0386411825758" lon="10.858457670413763"><ele>709.0</ele><time>2026-03-28T10:14:38.836Z</time></trkpt><trkpt lat="44.03861705301026" lon="10.858339714482309"><ele>709.0</ele><time>2026-03-28T10:14:40.836Z</time></trkpt><trkpt lat="44.03859098745922" lon="10.858218631409375"><ele>709.0</ele><time>2026-03-28T10:14:42.836Z</time></trkpt><trkpt lat="44.03856525643084" lon="10.858099828169484"><ele>709.0</ele><time>2026-03-28T10:14:44.836Z</time></trkpt><trkpt lat="44.038542402960594" lon="10.85798202307881"><ele>708.8333333333334</ele><time>2026-03-28T10:14:46.836Z</time></trkpt><trkpt lat="44.038516740047484" lon="10.857863554820616"><ele>708.6666666666667</ele><time>2026-03-28T10:14:48.836Z</time></trkpt><trkpt lat="44.0384939580807" lon="10.85775878480149"><ele>708.5</ele><time>2026-03-28T10:14:50.836Z</time></trkpt><trkpt lat="44.03846605206359" lon="10.857672084557043"><ele>708.3333333333334</ele><time>2026-03-28T10:14:52.836Z</time></trkpt><trkpt lat="44.03844462555084" lon="10.857574174558556"><ele>708.1666666666666</ele><time>2026-03-28T10:14:54.836Z</time></trkpt><trkpt lat="44.038405402363246" lon="10.857458910640974"><ele>708.0</ele><time>2026-03-28T10:14:56.836Z</time></trkpt><trkpt lat="44.03836221885941" lon="10.857361030269365"><ele>707.1666666666666</ele><time>2026-03-28T10:14:58.836Z</time></trkpt><trkpt lat="44.03830391741091" lon="10.85727031463645"><ele>706.3333333333334</ele><time>2026-03-28T10:15:00.836Z</time></trkpt><trkpt lat="44.03824207295874" lon="10.857201520438647"><ele>705.5</ele><time>2026-03-28T10:15:02.836Z</time></trkpt><trkpt lat="44.038166400646325" lon="10.857143191284687"><ele>704.6666666666667</ele><time>2026-03-28T10:15:04.836Z</time></trkpt><trkpt lat="44.03809042736746" lon="10.857085384689281"><ele>703.8333333333334</ele><time>2026-03-28T10:15:06.836Z</time></trkpt><trkpt lat="44.038031173523265" lon="10.857024169867138"><ele>703.0</ele><time>2026-03-28T10:15:08.836Z</time></trkpt><trkpt lat="44.03796017883978" lon="10.856928680270999"><ele>705.4</ele><time>2026-03-28T10:15:10.836Z</time></trkpt><trkpt lat="44.03792017740763" lon="10.856799394279008"><ele>707.8</ele><time>2026-03-28T10:15:12.836Z</time></trkpt><trkpt lat="44.037906857265355" lon="10.856672899641156"><ele>710.2</ele><time>2026-03-28T10:15:14.836Z</time></trkpt><trkpt lat="44.03789063106826" lon="10.856546301916888"><ele>712.6</ele><time>2026-03-28T10:15:16.836Z</time></trkpt><trkpt lat="44.03788580276056" lon="10.856410068768465"><ele>715.0</ele><time>2026-03-28T10:15:18.836Z</time></trkpt><trkpt lat="44.03787515898697" lon="10.856298182286178"><ele>715.0</ele><time>2026-03-28T10:15:20.836Z</time></trkpt><trkpt lat="44.037874437567126" lon="10.856180292038985"><ele>715.0</ele><time>2026-03-28T10:15:22.836Z</time></trkpt><trkpt lat="44.03786065169807" lon="10.85607553523237"><ele>715.0</ele><time>2026-03-28T10:15:24.836Z</time></trkpt><trkpt lat="44.037865212287464" lon="10.855981021966633"><ele>715.0</ele><time>2026-03-28T10:15:26.836Z</time></trkpt><trkpt lat="44.03785531898569" lon="10.855835172090519"><ele>715.0</ele><time>2026-03-28T10:15:28.836Z</time></trkpt><trkpt lat="44.03784579860767" lon="10.85570922465507"><ele>715.0</ele><time>2026-03-28T10:15:30.836Z</time></trkpt><trkpt lat="44.03781698523472" lon="10.855617666841857"><ele>715.0</ele><time>2026-03-28T10:15:32.836Z</time></trkpt><trkpt lat="44.037822403496335" lon="10.855477930138333"><ele>715.0</ele><time>2026-03-28T10:15:34.836Z</time></trkpt><trkpt lat="44.037816956186994" lon="10.855340664724263"><ele>715.0</ele><time>2026-03-28T10:15:36.836Z</time></trkpt><trkpt lat="44.03779350670583" lon="10.855207696031345"><ele>715.0</ele><time>2026-03-28T10:15:38.836Z</time></trkpt><trkpt lat="44.037787850109495" lon="10.855069038520384"><ele>715.0</ele><time>2026-03-28T10:15:40.836Z</time></trkpt><trkpt lat="44.03776339599171" lon="10.854919013650994"><ele>714.6</ele><time>2026-03-28T10:15:42.836Z</time></trkpt><trkpt lat="44.03771554483322" lon="10.85476994396222"><ele>714.2</ele><time>2026-03-28T10:15:44.836Z</time></trkpt><trkpt lat="44.037656167939865" lon="10.854643016581814"><ele>713.8</ele><time>2026-03-28T10:15:46.836Z</time></trkpt><trkpt lat="44.037595618215356" lon="10.854529434164382"><ele>713.4</ele><time>2026-03-28T10:15:48.836Z</time></trkpt><trkpt lat="44.03753919186502" lon="10.854424356198404"><ele>713.0</ele><time>2026-03-28T10:15:50.836Z</time></trkpt><trkpt lat="44.03750372000502" lon="10.854318375713653"><ele>714.0</ele><time>2026-03-28T10:15:52.835Z</time></trkpt><trkpt lat="44.037460055438494" lon="10.854230883158426"><ele>715.0</ele><time>2026-03-28T10:15:54.835Z</time></trkpt><trkpt lat="44.037415978969236" lon="10.854102847056701"><ele>716.0</ele><time>2026-03-28T10:15:56.836Z</time></trkpt><trkpt lat="44.03739515713852" lon="10.853953598146635"><ele>717.0</ele><time>2026-03-28T10:15:58.836Z</time></trkpt><trkpt lat="44.03739729716779" lon="10.853814406105398"><ele>718.0</ele><time>2026-03-28T10:16:00.835Z</time></trkpt><trkpt lat="44.037418897842585" lon="10.853684131127926"><ele>718.0</ele><time>2026-03-28T10:16:02.836Z</time></trkpt><trkpt lat="44.03745037652337" lon="10.853563199843123"><ele>718.0</ele><time>2026-03-28T10:16:04.836Z</time></trkpt><trkpt lat="44.037522625441355" lon="10.853466745192211"><ele>718.0</ele><time>2026-03-28T10:16:06.836Z</time></trkpt><trkpt lat="44.037604926746994" lon="10.853391805275868"><ele>718.0</ele><time>2026-03-28T10:16:08.836Z</time></trkpt><trkpt lat="44.03767178997722" lon="10.85331611974821"><ele>718.0</ele><time>2026-03-28T10:16:10.835Z</time></trkpt><trkpt lat="44.03773037587824" lon="10.853230852045634"><ele>716.3333333333334</ele><time>2026-03-28T10:16:12.835Z</time></trkpt><trkpt lat="44.03777477797136" lon="10.853132532947324"><ele>714.6666666666667</ele><time>2026-03-28T10:16:14.835Z</time></trkpt><trkpt lat="44.03780609375337" lon="10.853026074469593"><ele>713.0</ele><time>2026-03-28T10:16:16.835Z</time></trkpt><trkpt lat="44.037821229885566" lon="10.852932500262433"><ele>711.3333333333334</ele><time>2026-03-28T10:16:18.835Z</time></trkpt><trkpt lat="44.03782384605228" lon="10.852829915149274"><ele>709.6666666666666</ele><time>2026-03-28T10:16:20.835Z</time></trkpt><trkpt lat="44.037811506584504" lon="10.852736063651633"><ele>708.0</ele><time>2026-03-28T10:16:22.835Z</time></trkpt><trkpt lat="44.03779990988336" lon="10.852634458060317"><ele>708.6666666666666</ele><time>2026-03-28T10:16:24.835Z</time></trkpt><trkpt lat="44.037794414732254" lon="10.852527411372694"><ele>709.3333333333334</ele><time>2026-03-28T10:16:26.835Z</time></trkpt><trkpt lat="44.037768007382326" lon="10.852427448291241"><ele>710.0</ele><time>2026-03-28T10:16:28.835Z</time></trkpt><trkpt lat="44.03774773044892" lon="10.852314666450102"><ele>710.6666666666667</ele><time>2026-03-28T10:16:30.835Z</time></trkpt><trkpt lat="44.03772775619249" lon="10.852215633849811"><ele>711.3333333333334</ele><time>2026-03-28T10:16:32.835Z</time></trkpt><trkpt lat="44.0377028491977" lon="10.852120227202363"><ele>712.0</ele><time>2026-03-28T10:16:34.835Z</time></trkpt><trkpt lat="44.03768371003892" lon="10.852025145699308"><ele>712.0</ele><time>2026-03-28T10:16:36.835Z</time></trkpt><trkpt lat="44.03766515762433" lon="10.851897964767996"><ele>712.0</ele><time>2026-03-28T10:16:38.835Z</time></trkpt><trkpt lat="44.03762779668855" lon="10.851773031680464"><ele>712.0</ele><time>2026-03-28T10:16:41.835Z</time></trkpt><trkpt lat="44.03760107772408" lon="10.851671329210664"><ele>712.0</ele><time>2026-03-28T10:16:43.835Z</time></trkpt><trkpt lat="44.03759573164192" lon="10.851532505835069"><ele>712.0</ele><time>2026-03-28T10:16:45.835Z</time></trkpt><trkpt lat="44.03759492874259" lon="10.851395189768496"><ele>712.0</ele><time>2026-03-28T10:16:47.835Z</time></trkpt><trkpt lat="44.037607388578756" lon="10.851266018500313"><ele>712.0</ele><time>2026-03-28T10:16:49.835Z</time></trkpt><trkpt lat="44.03764443693118" lon="10.851148600351163"><ele>712.0</ele><time>2026-03-28T10:16:51.835Z</time></trkpt><trkpt lat="44.03766908796503" lon="10.851023726939156"><ele>712.0</ele><time>2026-03-28T10:16:53.835Z</time></trkpt><trkpt lat="44.03768235553256" lon="10.850908144191463"><ele>712.0</ele><time>2026-03-28T10:16:55.835Z</time></trkpt><trkpt lat="44.037718600368336" lon="10.850808898712808"><ele>712.0</ele><time>2026-03-28T10:16:57.835Z</time></trkpt><trkpt lat="44.03773836687868" lon="10.850721118476471"><ele>712.1666666666667</ele><time>2026-03-28T10:16:59.835Z</time></trkpt><trkpt lat="44.03775303184082" lon="10.850603791416646"><ele>712.3333333333334</ele><time>2026-03-28T10:17:01.835Z</time></trkpt><trkpt lat="44.03777598112055" lon="10.850505697838262"><ele>712.5</ele><time>2026-03-28T10:17:03.835Z</time></trkpt><trkpt lat="44.03779596404968" lon="10.850421349903613"><ele>712.6666666666666</ele><time>2026-03-28T10:17:05.835Z</time></trkpt><trkpt lat="44.03782597357817" lon="10.850329255289946"><ele>712.8333333333333</ele><time>2026-03-28T10:17:07.835Z</time></trkpt><trkpt lat="44.037853163209256" lon="10.85021862718941"><ele>713.0</ele><time>2026-03-28T10:17:10.835Z</time></trkpt><trkpt lat="44.03788182207011" lon="10.850123459272915"><ele>713.0</ele><time>2026-03-28T10:17:12.835Z</time></trkpt><trkpt lat="44.037916720723594" lon="10.850030372384131"><ele>713.0</ele><time>2026-03-28T10:17:14.835Z</time></trkpt><trkpt lat="44.037951575034114" lon="10.849945905347"><ele>713.0</ele><time>2026-03-28T10:17:16.835Z</time></trkpt><trkpt lat="44.03798716080865" lon="10.849866132858851"><ele>713.0</ele><time>2026-03-28T10:17:18.835Z</time></trkpt><trkpt lat="44.03803143426662" lon="10.849788645350204"><ele>713.0</ele><time>2026-03-28T10:17:20.835Z</time></trkpt><trkpt lat="44.038072416102196" lon="10.849710526644534"><ele>713.0</ele><time>2026-03-28T10:17:22.835Z</time></trkpt><trkpt lat="44.03811079579403" lon="10.84962810138025"><ele>713.0</ele><time>2026-03-28T10:17:24.835Z</time></trkpt><trkpt lat="44.0381424700191" lon="10.849541097797916"><ele>713.0</ele><time>2026-03-28T10:17:26.835Z</time></trkpt><trkpt lat="44.03818722539507" lon="10.84945582146539"><ele>713.0</ele><time>2026-03-28T10:17:28.835Z</time></trkpt><trkpt lat="44.03823125433717" lon="10.849355804340538"><ele>713.0</ele><time>2026-03-28T10:17:30.835Z</time></trkpt><trkpt lat="44.03827558629553" lon="10.849266877149498"><ele>713.0</ele><time>2026-03-28T10:17:32.835Z</time></trkpt><trkpt lat="44.03831514481046" lon="10.849188180426372"><ele>713.0</ele><time>2026-03-28T10:17:34.835Z</time></trkpt><trkpt lat="44.038360171051174" lon="10.84910430788448"><ele>713.0</ele><time>2026-03-28T10:17:36.835Z</time></trkpt><trkpt lat="44.038405262251246" lon="10.849019818336314"><ele>714.6666666666666</ele><time>2026-03-28T10:17:38.835Z</time></trkpt><trkpt lat="44.03845476202586" lon="10.848938780319095"><ele>716.3333333333333</ele><time>2026-03-28T10:17:40.835Z</time></trkpt><trkpt lat="44.038506930899096" lon="10.848851956783696"><ele>718.0</ele><time>2026-03-28T10:17:42.835Z</time></trkpt><trkpt lat="44.03855227519319" lon="10.848775527212737"><ele>719.6666666666666</ele><time>2026-03-28T10:17:44.834Z</time></trkpt><trkpt lat="44.03859246869092" lon="10.848687122339662"><ele>721.3333333333334</ele><time>2026-03-28T10:17:46.834Z</time></trkpt><trkpt lat="44.038632860798906" lon="10.848604947469184"><ele>723.0</ele><time>2026-03-28T10:17:48.834Z</time></trkpt><trkpt lat="44.0386760938551" lon="10.848521344641517"><ele>722.4285714285714</ele><time>2026-03-28T10:17:50.834Z</time></trkpt><trkpt lat="44.038713401053464" lon="10.848438265566807"><ele>721.8571428571429</ele><time>2026-03-28T10:17:52.834Z</time></trkpt><trkpt lat="44.03874349931931" lon="10.848342468045796"><ele>721.2857142857142</ele><time>2026-03-28T10:17:54.834Z</time></trkpt><trkpt lat="44.03878831490391" lon="10.848262906884598"><ele>720.7142857142858</ele><time>2026-03-28T10:17:56.835Z</time></trkpt><trkpt lat="44.038835179480365" lon="10.848181532685516"><ele>720.1428571428571</ele><time>2026-03-28T10:17:58.834Z</time></trkpt><trkpt lat="44.03887613228535" lon="10.848099790731899"><ele>719.5714285714286</ele><time>2026-03-28T10:18:00.834Z</time></trkpt><trkpt lat="44.038921487422904" lon="10.848006660719134"><ele>719.0</ele><time>2026-03-28T10:18:02.835Z</time></trkpt><trkpt lat="44.03896124171004" lon="10.847927922909786"><ele>719.0</ele><time>2026-03-28T10:18:04.834Z</time></trkpt><trkpt lat="44.03899650714431" lon="10.847837803467723"><ele>719.0</ele><time>2026-03-28T10:18:06.834Z</time></trkpt><trkpt lat="44.039041973804125" lon="10.847742286144097"><ele>719.0</ele><time>2026-03-28T10:18:08.834Z</time></trkpt><trkpt lat="44.03907693115358" lon="10.847658766424004"><ele>719.0</ele><time>2026-03-28T10:18:10.834Z</time></trkpt><trkpt lat="44.03909303121446" lon="10.84753998515948"><ele>719.0</ele><time>2026-03-28T10:18:13.834Z</time></trkpt><trkpt lat="44.03911324195277" lon="10.847442540379106"><ele>719.0</ele><time>2026-03-28T10:18:15.834Z</time></trkpt><trkpt lat="44.039147925303595" lon="10.847359799418728"><ele>720.5</ele><time>2026-03-28T10:18:17.834Z</time></trkpt><trkpt lat="44.039183204412936" lon="10.847279929178457"><ele>722.0</ele><time>2026-03-28T10:18:19.834Z</time></trkpt><trkpt lat="44.03923112039679" lon="10.847200131421683"><ele>723.5</ele><time>2026-03-28T10:18:21.834Z</time></trkpt><trkpt lat="44.03929729023983" lon="10.847098856040535"><ele>725.0</ele><time>2026-03-28T10:18:24.834Z</time></trkpt><trkpt lat="44.03935737375567" lon="10.847022107472917"><ele>726.5</ele><time>2026-03-28T10:18:26.834Z</time></trkpt><trkpt lat="44.03940487379546" lon="10.846946315628827"><ele>728.0</ele><time>2026-03-28T10:18:28.834Z</time></trkpt><trkpt lat="44.03945329964942" lon="10.846870603412825"><ele>727.5714285714286</ele><time>2026-03-28T10:18:30.834Z</time></trkpt><trkpt lat="44.0395026291406" lon="10.846792867231688"><ele>727.1428571428571</ele><time>2026-03-28T10:18:32.834Z</time></trkpt><trkpt lat="44.03956708376394" lon="10.846719867345383"><ele>726.7142857142858</ele><time>2026-03-28T10:18:34.834Z</time></trkpt><trkpt lat="44.039623346761445" lon="10.846655602907289"><ele>726.2857142857142</ele><time>2026-03-28T10:18:36.834Z</time></trkpt><trkpt lat="44.03966923253002" lon="10.846586036737984"><ele>725.8571428571429</ele><time>2026-03-28T10:18:38.834Z</time></trkpt><trkpt lat="44.039712573375176" lon="10.846495919253028"><ele>725.4285714285714</ele><time>2026-03-28T10:18:41.834Z</time></trkpt><trkpt lat="44.03975135334456" lon="10.846410689736196"><ele>725.0</ele><time>2026-03-28T10:18:43.834Z</time></trkpt><trkpt lat="44.039786609314966" lon="10.84632789632331"><ele>725.0</ele><time>2026-03-28T10:18:45.834Z</time></trkpt><trkpt lat="44.03982426969051" lon="10.846227528576259"><ele>725.0</ele><time>2026-03-28T10:18:47.834Z</time></trkpt><trkpt lat="44.039853677637375" lon="10.846141612939931"><ele>725.0</ele><time>2026-03-28T10:18:49.834Z</time></trkpt><trkpt lat="44.039877944389154" lon="10.846044633070049"><ele>725.0</ele><time>2026-03-28T10:18:51.834Z</time></trkpt><trkpt lat="44.03991134660087" lon="10.84594324737331"><ele>725.0</ele><time>2026-03-28T10:18:53.834Z</time></trkpt><trkpt lat="44.03995303075148" lon="10.84587358494327"><ele>725.0</ele><time>2026-03-28T10:18:55.834Z</time></trkpt><trkpt lat="44.039989517047246" lon="10.845783145458771"><ele>725.0</ele><time>2026-03-28T10:18:57.834Z</time></trkpt><trkpt lat="44.04003955662619" lon="10.845692598070439"><ele>726.0</ele><time>2026-03-28T10:18:59.834Z</time></trkpt><trkpt lat="44.040076206683075" lon="10.845611743344685"><ele>727.0</ele><time>2026-03-28T10:19:01.834Z</time></trkpt><trkpt lat="44.04012370291136" lon="10.845519578006607"><ele>728.0</ele><time>2026-03-28T10:19:03.834Z</time></trkpt><trkpt lat="44.04018686809086" lon="10.845428052330314"><ele>729.0</ele><time>2026-03-28T10:19:05.834Z</time></trkpt><trkpt lat="44.040240461546766" lon="10.84533576527454"><ele>730.0</ele><time>2026-03-28T10:19:07.834Z</time></trkpt><trkpt lat="44.04028495192522" lon="10.845236926222187"><ele>731.0</ele><time>2026-03-28T10:19:09.834Z</time></trkpt><trkpt lat="44.04032615184956" lon="10.845126555561686"><ele>731.0</ele><time>2026-03-28T10:19:11.834Z</time></trkpt><trkpt lat="44.04036487716399" lon="10.845021187654577"><ele>731.0</ele><time>2026-03-28T10:19:13.834Z</time></trkpt><trkpt lat="44.0403945969563" lon="10.84489705864188"><ele>731.0</ele><time>2026-03-28T10:19:15.834Z</time></trkpt><trkpt lat="44.040422820586535" lon="10.844746742129448"><ele>731.0</ele><time>2026-03-28T10:19:17.834Z</time></trkpt><trkpt lat="44.040430648679866" lon="10.844602144937593"><ele>731.0</ele><time>2026-03-28T10:19:19.834Z</time></trkpt><trkpt lat="44.04043593123058" lon="10.844499046266082"><ele>731.0</ele><time>2026-03-28T10:19:20.834Z</time></trkpt><trkpt lat="44.04043407702882" lon="10.844403729479872"><ele>731.0</ele><time>2026-03-28T10:19:21.834Z</time></trkpt><trkpt lat="44.04041724030287" lon="10.844262593459128"><ele>731.0</ele><time>2026-03-28T10:19:23.833Z</time></trkpt><trkpt lat="44.04039601678526" lon="10.84414196288082"><ele>731.0</ele><time>2026-03-28T10:19:25.833Z</time></trkpt><trkpt lat="44.04037037467346" lon="10.844044383036513"><ele>731.0</ele><time>2026-03-28T10:19:27.833Z</time></trkpt><trkpt lat="44.040351508433915" lon="10.843928795359764"><ele>731.0</ele><time>2026-03-28T10:19:30.833Z</time></trkpt><trkpt lat="44.040342480224105" lon="10.843832158436326"><ele>731.5714285714286</ele><time>2026-03-28T10:19:32.833Z</time></trkpt><trkpt lat="44.04032033477519" lon="10.843748178045166"><ele>732.1428571428571</ele><time>2026-03-28T10:19:34.833Z</time></trkpt><trkpt lat="44.04032004032572" lon="10.843660224473654"><ele>732.7142857142858</ele><time>2026-03-28T10:19:36.833Z</time></trkpt><trkpt lat="44.04031877142681" lon="10.843554587819506"><ele>733.2857142857142</ele><time>2026-03-28T10:19:39.833Z</time></trkpt><trkpt lat="44.040282700960454" lon="10.843443106786845"><ele>733.8571428571429</ele><time>2026-03-28T10:19:42.833Z</time></trkpt><trkpt lat="44.040243081520295" lon="10.84336174033242"><ele>734.4285714285714</ele><time>2026-03-28T10:19:45.833Z</time></trkpt><trkpt lat="44.04019220900477" lon="10.843284833912561"><ele>735.0</ele><time>2026-03-28T10:19:48.833Z</time></trkpt><trkpt lat="44.04014064641097" lon="10.843202862125878"><ele>735.3333333333334</ele><time>2026-03-28T10:19:51.833Z</time></trkpt><trkpt lat="44.04008483878757" lon="10.843142273621371"><ele>735.6666666666666</ele><time>2026-03-28T10:19:54.833Z</time></trkpt><trkpt lat="44.04004639188943" lon="10.843072878709295"><ele>736.0</ele><time>2026-03-28T10:19:56.833Z</time></trkpt><trkpt lat="44.039991062157966" lon="10.842988738143845"><ele>736.3333333333333</ele><time>2026-03-28T10:19:59.833Z</time></trkpt><trkpt lat="44.039988278038464" lon="10.842874595938712"><ele>736.6666666666666</ele><time>2026-03-28T10:20:03.833Z</time></trkpt><trkpt lat="44.03999846001278" lon="10.842758110129854"><ele>737.0</ele><time>2026-03-28T10:20:07.833Z</time></trkpt><trkpt lat="44.04001323782586" lon="10.842663889794713"><ele>737.7142857142858</ele><time>2026-03-28T10:20:10.833Z</time></trkpt><trkpt lat="44.04002449890843" lon="10.842555212433824"><ele>738.4285714285714</ele><time>2026-03-28T10:20:13.833Z</time></trkpt><trkpt lat="44.040026666023614" lon="10.84245734434295"><ele>739.1428571428571</ele><time>2026-03-28T10:20:16.833Z</time></trkpt><trkpt lat="44.0399808272936" lon="10.842369672892636"><ele>739.8571428571429</ele><time>2026-03-28T10:20:19.833Z</time></trkpt><trkpt lat="44.039930294984885" lon="10.842305731074525"><ele>740.5714285714286</ele><time>2026-03-28T10:20:22.833Z</time></trkpt><trkpt lat="44.03987890559305" lon="10.842248932502299"><ele>741.2857142857143</ele><time>2026-03-28T10:20:25.833Z</time></trkpt><trkpt lat="44.039808054125416" lon="10.842207019409269"><ele>742.0</ele><time>2026-03-28T10:20:28.833Z</time></trkpt><trkpt lat="44.03975181828069" lon="10.842156061818697"><ele>744.0</ele><time>2026-03-28T10:20:31.833Z</time></trkpt><trkpt lat="44.03969970420717" lon="10.84207085090163"><ele>746.0</ele><time>2026-03-28T10:20:34.833Z</time></trkpt><trkpt lat="44.03966304491377" lon="10.841985280590812"><ele>748.0</ele><time>2026-03-28T10:20:37.833Z</time></trkpt><trkpt lat="44.03965424227651" lon="10.841883766502916"><ele>750.0</ele><time>2026-03-28T10:20:40.833Z</time></trkpt><trkpt lat="44.0396529599761" lon="10.841785167172489"><ele>752.0</ele><time>2026-03-28T10:20:43.833Z</time></trkpt><trkpt lat="44.03966467339792" lon="10.841672334435547"><ele>754.0</ele><time>2026-03-28T10:20:46.833Z</time></trkpt><trkpt lat="44.039667180493005" lon="10.841581928635655"><ele>756.0</ele><time>2026-03-28T10:20:49.833Z</time></trkpt><trkpt lat="44.039640882232256" lon="10.841483021369047"><ele>756.5714285714286</ele><time>2026-03-28T10:20:52.833Z</time></trkpt><trkpt lat="44.03961771812218" lon="10.841385813972183"><ele>757.1428571428571</ele><time>2026-03-28T10:20:55.833Z</time></trkpt><trkpt lat="44.039589600731986" lon="10.841303485013448"><ele>757.7142857142858</ele><time>2026-03-28T10:20:58.833Z</time></trkpt><trkpt lat="44.03953752142096" lon="10.841203182308066"><ele>758.2857142857142</ele><time>2026-03-28T10:21:02.833Z</time></trkpt><trkpt lat="44.03950826938735" lon="10.841105415100808"><ele>758.8571428571429</ele><time>2026-03-28T10:21:05.833Z</time></trkpt><trkpt lat="44.03949807265912" lon="10.841011457433614"><ele>759.4285714285714</ele><time>2026-03-28T10:21:08.833Z</time></trkpt><trkpt lat="44.03947715834194" lon="10.840909511946919"><ele>760.0</ele><time>2026-03-28T10:21:11.833Z</time></trkpt><trkpt lat="44.03946811478055" lon="10.840820701012671"><ele>760.6666666666667</ele><time>2026-03-28T10:21:14.833Z</time></trkpt><trkpt lat="44.03943430199812" lon="10.840715518603577"><ele>761.3333333333334</ele><time>2026-03-28T10:21:17.833Z</time></trkpt><trkpt lat="44.03942107605675" lon="10.840595351167252"><ele>762.0</ele><time>2026-03-28T10:21:20.833Z</time></trkpt><trkpt lat="44.0394077338089" lon="10.840500051004353"><ele>762.6666666666666</ele><time>2026-03-28T10:21:22.833Z</time></trkpt><trkpt lat="44.03938964577456" lon="10.840414772264849"><ele>763.3333333333333</ele><time>2026-03-28T10:21:24.833Z</time></trkpt><trkpt lat="44.03936733391744" lon="10.840323497227114"><ele>764.0</ele><time>2026-03-28T10:21:26.833Z</time></trkpt><trkpt lat="44.03932674088515" lon="10.840210326107416"><ele>764.5</ele><time>2026-03-28T10:21:29.833Z</time></trkpt><trkpt lat="44.03930406386981" lon="10.84010481736274"><ele>765.0</ele><time>2026-03-28T10:21:32.833Z</time></trkpt><trkpt lat="44.039293571992864" lon="10.840017661058877"><ele>765.5</ele><time>2026-03-28T10:21:34.833Z</time></trkpt><trkpt lat="44.039268907804214" lon="10.839899959274915"><ele>766.0</ele><time>2026-03-28T10:21:37.832Z</time></trkpt><trkpt lat="44.03924454522998" lon="10.839779804284916"><ele>766.5</ele><time>2026-03-28T10:21:40.832Z</time></trkpt><trkpt lat="44.039204692986026" lon="10.839677197252321"><ele>767.0</ele><time>2026-03-28T10:21:43.832Z</time></trkpt><trkpt lat="44.03911746855288" lon="10.839657137686787"><ele>770.5</ele><time>2026-03-28T10:21:46.832Z</time></trkpt><trkpt lat="44.039065806913634" lon="10.839741274372628"><ele>774.0</ele><time>2026-03-28T10:21:49.832Z</time></trkpt><trkpt lat="44.0390797802545" lon="10.83984161180786"><ele>777.5</ele><time>2026-03-28T10:21:54.832Z</time></trkpt><trkpt lat="44.039099260540404" lon="10.839932954428615"><ele>781.0</ele><time>2026-03-28T10:21:58.832Z</time></trkpt><trkpt lat="44.03909333822967" lon="10.840043738826827"><ele>784.5000000000001</ele><time>2026-03-28T10:22:01.832Z</time></trkpt><trkpt lat="44.03908094778902" lon="10.840171603997632"><ele>788.0</ele><time>2026-03-28T10:22:04.832Z</time></trkpt><trkpt lat="44.03906207905716" lon="10.840289379397273"><ele>788.0</ele><time>2026-03-28T10:22:07.832Z</time></trkpt><trkpt lat="44.039062456761435" lon="10.840384672096015"><ele>788.0</ele><time>2026-03-28T10:22:09.832Z</time></trkpt><trkpt lat="44.03905228917811" lon="10.840516521781923"><ele>788.0</ele><time>2026-03-28T10:22:12.832Z</time></trkpt><trkpt lat="44.03903669791182" lon="10.840606736545983"><ele>788.0</ele><time>2026-03-28T10:22:14.831Z</time></trkpt><trkpt lat="44.03902662881196" lon="10.840704401515685"><ele>788.0</ele><time>2026-03-28T10:22:16.832Z</time></trkpt><trkpt lat="44.0389972771853" lon="10.840787201764622"><ele>788.0</ele><time>2026-03-28T10:22:18.832Z</time></trkpt><trkpt lat="44.038967337776114" lon="10.840869330709028"><ele>788.0</ele><time>2026-03-28T10:22:20.832Z</time></trkpt><trkpt lat="44.038913513114736" lon="10.840974491913073"><ele>786.1666666666667</ele><time>2026-03-28T10:22:23.832Z</time></trkpt><trkpt lat="44.03885648484515" lon="10.841046194703125"><ele>784.3333333333334</ele><time>2026-03-28T10:22:26.832Z</time></trkpt><trkpt lat="44.038809135875574" lon="10.841135321429544"><ele>782.5</ele><time>2026-03-28T10:22:29.832Z</time></trkpt><trkpt lat="44.03874241336824" lon="10.841215799964612"><ele>780.6666666666667</ele><time>2026-03-28T10:22:32.832Z</time></trkpt><trkpt lat="44.03868071888116" lon="10.84130529655631"><ele>778.8333333333334</ele><time>2026-03-28T10:22:35.832Z</time></trkpt><trkpt lat="44.03860555745483" lon="10.841378373528364"><ele>777.0</ele><time>2026-03-28T10:22:38.831Z</time></trkpt><trkpt lat="44.03853014655934" lon="10.841451518435635"><ele>777.0</ele><time>2026-03-28T10:22:41.831Z</time></trkpt><trkpt lat="44.038461237837176" lon="10.841509546229412"><ele>777.0</ele><time>2026-03-28T10:22:44.831Z</time></trkpt><trkpt lat="44.03838670986497" lon="10.841565676691602"><ele>777.0</ele><time>2026-03-28T10:22:47.831Z</time></trkpt><trkpt lat="44.038318673117274" lon="10.841612889526234"><ele>777.0</ele><time>2026-03-28T10:22:50.831Z</time></trkpt><trkpt lat="44.03824167039458" lon="10.84165105880185"><ele>777.0</ele><time>2026-03-28T10:22:53.831Z</time></trkpt><trkpt lat="44.03817978223698" lon="10.841700886212598"><ele>777.0</ele><time>2026-03-28T10:22:56.831Z</time></trkpt><trkpt lat="44.03812107233502" lon="10.841735705482645"><ele>778.6666666666666</ele><time>2026-03-28T10:22:58.831Z</time></trkpt><trkpt lat="44.03806472779492" lon="10.841781032770646"><ele>780.3333333333333</ele><time>2026-03-28T10:23:00.831Z</time></trkpt><trkpt lat="44.03798774323624" lon="10.841827013141826"><ele>782.0</ele><time>2026-03-28T10:23:03.831Z</time></trkpt><trkpt lat="44.03794119679105" lon="10.841886341369309"><ele>783.6666666666666</ele><time>2026-03-28T10:23:05.831Z</time></trkpt><trkpt lat="44.03787581807607" lon="10.841977068672577"><ele>785.3333333333333</ele><time>2026-03-28T10:23:08.831Z</time></trkpt><trkpt lat="44.037838789654614" lon="10.84208366565227"><ele>787.0</ele><time>2026-03-28T10:23:11.831Z</time></trkpt><trkpt lat="44.03780899814627" lon="10.842161078074938"><ele>787.0</ele><time>2026-03-28T10:23:13.831Z</time></trkpt><trkpt lat="44.037757606796475" lon="10.842243374223134"><ele>787.0</ele><time>2026-03-28T10:23:16.831Z</time></trkpt><trkpt lat="44.037693594915424" lon="10.842296806000295"><ele>787.0</ele><time>2026-03-28T10:23:19.831Z</time></trkpt><trkpt lat="44.03761680911382" lon="10.842329634724582"><ele>787.0</ele><time>2026-03-28T10:23:22.831Z</time></trkpt><trkpt lat="44.037557134897355" lon="10.842369057754654"><ele>787.0</ele><time>2026-03-28T10:23:25.831Z</time></trkpt><trkpt lat="44.03752266093784" lon="10.842449445064405"><ele>787.0</ele><time>2026-03-28T10:23:29.831Z</time></trkpt><trkpt lat="44.03749612851111" lon="10.842538063207849"><ele>787.0</ele><time>2026-03-28T10:23:32.831Z</time></trkpt><trkpt lat="44.03749002228875" lon="10.84264379930002"><ele>786.2</ele><time>2026-03-28T10:23:37.831Z</time></trkpt><trkpt lat="44.0374799733027" lon="10.842755070364413"><ele>785.4000000000001</ele><time>2026-03-28T10:23:48.831Z</time></trkpt><trkpt lat="44.03748272131376" lon="10.842846079365222"><ele>784.5999999999999</ele><time>2026-03-28T10:24:06.831Z</time></trkpt><trkpt lat="44.03742958459013" lon="10.842773029814332"><ele>783.8</ele><time>2026-03-28T10:26:41.801Z</time></trkpt><trkpt lat="44.037434694386064" lon="10.842879705573027"><ele>783.0</ele><time>2026-03-28T10:32:39.796Z</time></trkpt><trkpt lat="44.0372944606503" lon="10.8429693721394"><ele>796.0</ele><time>2026-03-28T10:34:43.937Z</time></trkpt><trkpt lat="44.037206444346786" lon="10.843034457276064"><ele>796.0</ele><time>2026-03-28T10:34:46.937Z</time></trkpt><trkpt lat="44.03725735390786" lon="10.842964099673452"><ele>796.0</ele><time>2026-03-28T10:34:50.793Z</time></trkpt><trkpt lat="44.0373633476367" lon="10.842887429968181"><ele>796.0</ele><time>2026-03-28T10:34:52.793Z</time></trkpt><trkpt lat="44.03742165346547" lon="10.842945555822231"><ele>796.0</ele><time>2026-03-28T10:35:02.794Z</time></trkpt></trkseg></trk></gpx>